[[{"header":{"parameterUnit":"m.s-1","parameterCategory":1,"la1":30.6,"la2":29.2853,"lo1":-89.7004,"lo2":-87.6739,"dx":0.0162,"dy":0.0183,"nx":112,"ny":82,"refTime":"2022-12-26T06:00:00:Z","depth":0,"parameterNumber":2,"parameterNumberName":"U-component_of_WINDS"},"data":[0.0,0.0,0.0,0.0,0.0,0.0,0.0,0.0,0.0,0.0,0.0,0.0,0.0,0.0,0.0,0.0,0.0,0.0,0.0,0.0,0.0,0.0,0.0,0.0,0.0,0.0,0.0,0.0,0.0,0.0,0.0,0.0,0.0,0.0,0.0,0.0,0.0,0.0,0.0,0.0,0.0,0.0,0.0,0.0,0.0,0.0,0.0,0.0,0.0,0.0,0.0,0.0,0.0,0.0,0.0,0.0,0.0,0.0,0.0,0.0,0.0,0.0,0.0,0.0,0.0,0.0,0.0,0.0,0.0,0.0,0.0,0.0,0.0,0.0,0.0,0.0,0.0,0.0,0.0,0.0,0.0,0.0,0.0,0.0,0.0,0.0,0.0,0.0,0.0,0.0,0.0,-5.5274,-5.5552,-5.505,-5.3828,-5.241,-5.1852,-5.2557,0.0,0.0,0.0,0.0,0.0,0.0,0.0,0.0,0.0,0.0,0.0,0.0,0.0,0.0,0.0,0.0,0.0,0.0,0.0,0.0,0.0,0.0,0.0,0.0,0.0,0.0,0.0,0.0,0.0,0.0,0.0,0.0,0.0,0.0,0.0,0.0,0.0,0.0,0.0,0.0,0.0,0.0,0.0,0.0,0.0,0.0,0.0,0.0,0.0,0.0,0.0,0.0,0.0,0.0,0.0,0.0,0.0,0.0,0.0,0.0,0.0,0.0,0.0,0.0,0.0,0.0,0.0,0.0,0.0,0.0,0.0,0.0,0.0,0.0,0.0,0.0,0.0,0.0,0.0,0.0,0.0,0.0,0.0,0.0,0.0,0.0,0.0,0.0,0.0,0.0,0.0,0.0,0.0,0.0,0.0,0.0,0.0,0.0,0.0,0.0,0.0,0.0,0.0,0.0,-5.3377,-5.3633,-5.3627,-5.3326,-5.254,-5.172,-5.091,-5.0131,0.0,0.0,0.0,0.0,0.0,0.0,0.0,0.0,0.0,0.0,0.0,0.0,0.0,0.0,0.0,0.0,0.0,0.0,0.0,0.0,0.0,0.0,0.0,0.0,0.0,0.0,0.0,0.0,0.0,0.0,0.0,0.0,0.0,0.0,0.0,0.0,0.0,0.0,0.0,0.0,0.0,0.0,0.0,0.0,0.0,0.0,0.0,0.0,0.0,0.0,0.0,0.0,0.0,0.0,0.0,0.0,0.0,0.0,0.0,0.0,0.0,0.0,0.0,0.0,0.0,0.0,0.0,0.0,0.0,0.0,0.0,0.0,0.0,0.0,0.0,0.0,0.0,0.0,0.0,0.0,0.0,0.0,0.0,0.0,0.0,0.0,0.0,0.0,0.0,0.0,0.0,0.0,0.0,0.0,0.0,0.0,0.0,0.0,0.0,0.0,0.0,0.0,0.0,-5.2079,-5.3222,-5.4181,-5.3623,-5.3006,-5.2562,-5.1608,-5.0515,-4.9384,-4.957,0.0,0.0,0.0,0.0,0.0,0.0,0.0,0.0,0.0,0.0,0.0,0.0,0.0,0.0,0.0,0.0,0.0,0.0,0.0,0.0,0.0,0.0,0.0,0.0,0.0,0.0,0.0,0.0,0.0,0.0,0.0,0.0,0.0,0.0,0.0,0.0,0.0,0.0,0.0,0.0,0.0,0.0,0.0,0.0,0.0,0.0,0.0,0.0,0.0,0.0,0.0,0.0,0.0,0.0,0.0,0.0,0.0,0.0,0.0,0.0,0.0,0.0,0.0,0.0,0.0,0.0,0.0,0.0,0.0,0.0,0.0,0.0,0.0,0.0,0.0,0.0,0.0,0.0,0.0,0.0,0.0,0.0,0.0,0.0,0.0,0.0,0.0,0.0,0.0,0.0,0.0,0.0,0.0,0.0,0.0,0.0,0.0,0.0,0.0,0.0,0.0,0.0,-5.2061,-5.2748,-5.4976,-5.4122,-5.3217,-5.2971,-5.1706,-5.0236,-4.8685,-4.8373,0.0,0.0,0.0,0.0,0.0,0.0,0.0,0.0,0.0,0.0,0.0,0.0,0.0,0.0,0.0,0.0,0.0,0.0,0.0,0.0,0.0,0.0,0.0,0.0,0.0,0.0,0.0,0.0,0.0,0.0,0.0,0.0,0.0,0.0,0.0,0.0,0.0,0.0,0.0,0.0,0.0,0.0,0.0,0.0,0.0,0.0,0.0,0.0,0.0,0.0,0.0,0.0,0.0,0.0,0.0,0.0,0.0,0.0,0.0,0.0,0.0,0.0,0.0,0.0,0.0,0.0,0.0,0.0,0.0,0.0,0.0,0.0,0.0,0.0,0.0,0.0,0.0,0.0,0.0,0.0,0.0,0.0,0.0,0.0,0.0,0.0,0.0,0.0,0.0,0.0,0.0,0.0,0.0,0.0,0.0,0.0,0.0,0.0,0.0,0.0,0.0,0.0,-5.1732,-5.211,-5.4975,-5.4374,-5.3653,-5.3381,-5.2142,-5.0047,-4.6978,-4.6727,0.0,0.0,0.0,0.0,0.0,0.0,0.0,0.0,0.0,0.0,0.0,0.0,0.0,0.0,0.0,0.0,0.0,0.0,0.0,0.0,0.0,0.0,0.0,0.0,0.0,0.0,0.0,0.0,0.0,0.0,0.0,0.0,0.0,0.0,0.0,0.0,0.0,0.0,0.0,0.0,0.0,0.0,0.0,0.0,0.0,0.0,0.0,0.0,0.0,0.0,0.0,0.0,0.0,0.0,0.0,0.0,0.0,0.0,0.0,0.0,0.0,0.0,0.0,0.0,0.0,0.0,0.0,0.0,0.0,0.0,0.0,0.0,0.0,0.0,0.0,0.0,0.0,0.0,0.0,0.0,0.0,0.0,0.0,0.0,0.0,0.0,0.0,0.0,0.0,0.0,0.0,0.0,0.0,0.0,0.0,0.0,0.0,0.0,0.0,0.0,0.0,0.0,-5.1442,-5.1837,0.0,-5.4259,-5.344,-5.3157,-5.1933,-4.9967,-4.715,0.0,0.0,0.0,0.0,0.0,0.0,0.0,0.0,0.0,0.0,0.0,0.0,0.0,0.0,0.0,0.0,0.0,0.0,0.0,0.0,0.0,0.0,0.0,0.0,0.0,0.0,0.0,0.0,0.0,0.0,0.0,0.0,0.0,0.0,0.0,0.0,0.0,0.0,0.0,0.0,0.0,0.0,0.0,0.0,0.0,0.0,0.0,0.0,0.0,0.0,0.0,0.0,0.0,0.0,0.0,0.0,0.0,0.0,0.0,0.0,0.0,0.0,0.0,0.0,0.0,0.0,0.0,0.0,0.0,0.0,0.0,0.0,0.0,0.0,0.0,0.0,0.0,0.0,0.0,0.0,0.0,0.0,0.0,0.0,0.0,0.0,0.0,0.0,0.0,0.0,0.0,0.0,0.0,0.0,0.0,0.0,0.0,0.0,0.0,0.0,0.0,0.0,-5.165,-5.1033,-5.1591,0.0,-5.395,-5.3275,-5.3143,-5.175,-4.9883,-4.752,0.0,0.0,0.0,0.0,0.0,0.0,0.0,0.0,0.0,0.0,0.0,0.0,0.0,0.0,0.0,0.0,0.0,0.0,0.0,0.0,0.0,0.0,0.0,0.0,0.0,0.0,0.0,0.0,0.0,0.0,0.0,0.0,0.0,0.0,0.0,0.0,0.0,0.0,0.0,0.0,0.0,0.0,0.0,0.0,0.0,0.0,0.0,0.0,0.0,0.0,0.0,0.0,0.0,0.0,0.0,0.0,0.0,0.0,0.0,0.0,0.0,0.0,0.0,0.0,0.0,0.0,0.0,0.0,0.0,0.0,0.0,0.0,0.0,0.0,0.0,0.0,0.0,0.0,0.0,0.0,0.0,0.0,0.0,0.0,0.0,0.0,0.0,0.0,0.0,0.0,0.0,0.0,0.0,0.0,0.0,0.0,0.0,0.0,0.0,0.0,0.0,0.0,-5.0739,-5.0496,-5.1245,-5.4139,-5.3564,-5.3172,-5.3442,-5.1759,-4.9921,0.0,0.0,0.0,0.0,0.0,0.0,0.0,0.0,0.0,0.0,0.0,0.0,0.0,0.0,0.0,0.0,0.0,0.0,0.0,0.0,0.0,0.0,0.0,0.0,0.0,0.0,0.0,0.0,0.0,0.0,0.0,0.0,0.0,0.0,0.0,0.0,0.0,0.0,0.0,0.0,0.0,0.0,0.0,0.0,0.0,0.0,0.0,0.0,0.0,0.0,0.0,0.0,0.0,0.0,0.0,0.0,0.0,0.0,0.0,0.0,0.0,0.0,0.0,0.0,0.0,0.0,0.0,0.0,0.0,0.0,0.0,0.0,0.0,0.0,0.0,0.0,0.0,0.0,0.0,0.0,0.0,0.0,0.0,0.0,0.0,0.0,0.0,0.0,0.0,0.0,0.0,0.0,0.0,0.0,0.0,0.0,0.0,0.0,0.0,0.0,0.0,0.0,0.0,-5.063,-5.0659,-5.1191,-5.3001,-5.3262,-5.3227,-5.2862,-5.1933,-5.0917,-4.9872,0.0,0.0,0.0,0.0,0.0,0.0,0.0,0.0,0.0,0.0,0.0,0.0,0.0,0.0,0.0,0.0,0.0,0.0,0.0,0.0,0.0,0.0,0.0,0.0,0.0,0.0,0.0,0.0,0.0,0.0,0.0,0.0,0.0,0.0,0.0,0.0,0.0,0.0,0.0,0.0,0.0,0.0,0.0,0.0,0.0,0.0,0.0,0.0,0.0,0.0,0.0,0.0,0.0,0.0,0.0,0.0,0.0,0.0,0.0,0.0,0.0,0.0,0.0,0.0,0.0,0.0,0.0,0.0,0.0,0.0,0.0,0.0,0.0,0.0,0.0,0.0,0.0,0.0,0.0,0.0,0.0,0.0,0.0,0.0,0.0,0.0,0.0,0.0,0.0,0.0,0.0,0.0,0.0,0.0,0.0,0.0,0.0,0.0,0.0,0.0,0.0,0.0,-5.0104,-5.0511,-5.1265,-5.2775,-5.3065,-5.3094,-5.2949,-5.2136,-5.1352,-5.0714,0.0,0.0,0.0,0.0,0.0,0.0,0.0,0.0,0.0,0.0,0.0,0.0,0.0,0.0,0.0,0.0,0.0,0.0,0.0,0.0,0.0,0.0,0.0,0.0,0.0,0.0,0.0,0.0,0.0,0.0,0.0,0.0,0.0,0.0,0.0,0.0,0.0,0.0,0.0,0.0,0.0,0.0,0.0,0.0,0.0,0.0,0.0,0.0,0.0,0.0,0.0,0.0,0.0,0.0,0.0,0.0,0.0,0.0,0.0,0.0,0.0,0.0,0.0,0.0,0.0,0.0,0.0,0.0,0.0,0.0,0.0,0.0,0.0,0.0,0.0,0.0,0.0,0.0,0.0,0.0,0.0,0.0,0.0,0.0,0.0,0.0,0.0,0.0,0.0,0.0,0.0,0.0,0.0,0.0,0.0,0.0,0.0,0.0,0.0,0.0,0.0,0.0,-4.9611,-5.0336,-5.1439,-5.3239,-5.2978,-5.2891,-5.3471,-5.2397,-5.1497,-5.0975,0.0,0.0,0.0,0.0,0.0,0.0,0.0,0.0,0.0,0.0,0.0,0.0,0.0,0.0,0.0,0.0,0.0,0.0,0.0,0.0,0.0,0.0,0.0,0.0,0.0,0.0,0.0,0.0,0.0,0.0,0.0,0.0,0.0,0.0,0.0,0.0,0.0,0.0,0.0,0.0,0.0,0.0,0.0,0.0,0.0,0.0,0.0,0.0,0.0,0.0,0.0,0.0,0.0,0.0,0.0,0.0,0.0,0.0,0.0,0.0,-4.6419,0.0,0.0,0.0,0.0,0.0,0.0,0.0,0.0,0.0,0.0,0.0,0.0,0.0,0.0,0.0,0.0,0.0,0.0,0.0,0.0,0.0,0.0,0.0,0.0,0.0,0.0,0.0,0.0,0.0,0.0,0.0,0.0,0.0,0.0,0.0,0.0,0.0,0.0,0.0,0.0,0.0,-5.0307,-5.1033,-5.1759,-5.2688,-5.3094,-5.3355,-5.35,-5.2804,-5.2514,-5.2891,-5.1004,0.0,0.0,0.0,0.0,0.0,0.0,0.0,0.0,0.0,0.0,0.0,0.0,0.0,0.0,0.0,0.0,0.0,0.0,0.0,0.0,0.0,0.0,0.0,0.0,0.0,0.0,0.0,0.0,0.0,0.0,0.0,0.0,0.0,0.0,0.0,0.0,0.0,0.0,0.0,0.0,0.0,0.0,0.0,0.0,0.0,0.0,0.0,0.0,0.0,0.0,0.0,0.0,0.0,0.0,0.0,0.0,0.0,0.0,0.0,0.0,-4.5493,0.0,0.0,0.0,0.0,0.0,0.0,0.0,0.0,0.0,0.0,0.0,0.0,0.0,0.0,0.0,0.0,0.0,0.0,0.0,0.0,0.0,0.0,0.0,0.0,0.0,0.0,0.0,0.0,0.0,0.0,0.0,0.0,0.0,0.0,0.0,0.0,0.0,0.0,0.0,0.0,-5.054,-5.1497,-5.2455,-5.3413,-5.3791,-5.411,-5.44,-5.3849,-5.35,-5.35,-5.2252,0.0,0.0,0.0,0.0,0.0,0.0,0.0,0.0,0.0,0.0,0.0,0.0,0.0,0.0,0.0,0.0,0.0,0.0,0.0,0.0,0.0,0.0,0.0,0.0,0.0,0.0,0.0,0.0,0.0,0.0,0.0,0.0,0.0,0.0,0.0,0.0,0.0,0.0,0.0,0.0,0.0,0.0,0.0,0.0,0.0,0.0,0.0,0.0,0.0,0.0,0.0,0.0,0.0,-4.482,-4.4327,-4.4327,-4.4327,-4.4385,-4.4531,-4.4995,-4.5634,-4.633,0.0,0.0,0.0,0.0,0.0,0.0,0.0,0.0,0.0,0.0,0.0,0.0,0.0,0.0,0.0,0.0,0.0,0.0,0.0,0.0,0.0,0.0,0.0,0.0,0.0,-4.8456,-4.8448,0.0,0.0,0.0,0.0,0.0,0.0,0.0,0.0,0.0,0.0,0.0,0.0,-5.0917,-5.1984,-5.3065,-5.4371,-5.4517,-5.4749,-5.5358,-5.4952,-5.4429,-5.3878,-5.3646,-5.2572,0.0,0.0,0.0,0.0,0.0,0.0,0.0,0.0,0.0,0.0,0.0,0.0,0.0,0.0,0.0,0.0,0.0,0.0,0.0,0.0,0.0,0.0,0.0,0.0,0.0,0.0,0.0,0.0,0.0,0.0,0.0,0.0,-4.6224,-4.5551,0.0,0.0,0.0,0.0,0.0,0.0,0.0,0.0,0.0,0.0,0.0,0.0,0.0,-4.4408,-4.4453,-4.488,-4.5099,-4.5055,-4.5446,-4.5634,-4.5634,-4.5634,-4.5924,-4.6475,-4.6534,0.0,-4.4472,-4.6069,0.0,0.0,0.0,0.0,0.0,0.0,0.0,0.0,0.0,0.0,0.0,0.0,0.0,0.0,0.0,0.0,0.0,0.0,0.0,0.0,0.0,0.0,-4.6878,-4.7889,-4.7645,-4.7499,0.0,-4.8787,-4.8798,-4.8624,-4.8682,0.0,0.0,0.0,0.0,0.0,0.0,0.0,-5.2216,-5.2507,-5.3065,-5.4371,-5.4517,-5.4749,-5.5358,-5.5329,-5.5242,-5.5155,-5.411,-5.3355,-5.3007,-5.1585,0.0,0.0,0.0,0.0,0.0,0.0,0.0,0.0,0.0,0.0,0.0,0.0,0.0,0.0,0.0,0.0,0.0,0.0,0.0,0.0,0.0,0.0,0.0,0.0,0.0,0.0,0.0,0.0,0.0,-4.6341,-4.6153,-4.5665,-4.5866,-4.5911,0.0,0.0,0.0,0.0,0.0,0.0,0.0,0.0,0.0,-4.5119,-4.5084,-4.5227,-4.5576,-4.6214,-4.6505,-4.6505,-4.6824,-4.694,-4.694,-4.694,-4.7114,-4.7375,-4.7375,-4.6882,-4.6185,-4.7027,-4.7027,-4.6592,0.0,0.0,0.0,0.0,-4.6339,-4.6329,-4.5922,-4.569,0.0,-4.6473,0.0,0.0,0.0,0.0,0.0,0.0,0.0,0.0,0.0,0.0,0.0,-4.7866,-4.7785,-4.7785,-4.8625,-4.8526,-4.829,0.0,-4.9112,-4.9618,-4.8867,0.0,0.0,0.0,0.0,0.0,-5.2565,-5.321,-5.4023,-5.4923,-5.5358,-5.5823,-5.6432,-5.6171,-5.5968,-5.5968,-5.5097,-5.4255,-5.3559,-5.2717,-5.1643,0.0,0.0,0.0,0.0,0.0,0.0,0.0,0.0,0.0,0.0,0.0,0.0,0.0,0.0,0.0,0.0,0.0,0.0,0.0,0.0,0.0,0.0,0.0,0.0,0.0,0.0,0.0,0.0,-4.5348,-4.5515,-4.5443,-4.588,-4.593,0.0,0.0,0.0,0.0,0.0,0.0,-4.4211,-4.4385,-4.4763,-4.5372,-4.5866,-4.6446,-4.7056,-4.755,-4.7782,-4.7782,-4.7782,-4.7782,-4.7782,-4.7782,-4.7782,-4.7782,-4.7956,-4.813,-4.8246,-4.8101,-4.8014,-4.8043,-4.7903,-4.7865,-4.7664,-4.6287,-4.6144,-4.6412,-4.5115,-4.49,-4.515,-4.5275,0.0,-4.5272,-4.4962,0.0,0.0,0.0,0.0,-4.6517,-4.6777,-4.7227,-4.7599,-4.7758,-4.7891,-4.808,-4.8525,-4.8527,-4.8378,0.0,-4.9131,-4.9745,-4.8757,0.0,0.0,0.0,0.0,-5.2268,-5.2781,-5.3526,-5.4396,-5.5275,-5.5997,-5.6665,-5.7245,-5.6897,-5.6636,-5.6636,-5.6026,-5.5242,-5.4284,-5.4081,-5.3181,-5.1439,0.0,0.0,0.0,0.0,0.0,0.0,0.0,0.0,0.0,0.0,0.0,0.0,0.0,0.0,0.0,0.0,0.0,0.0,0.0,0.0,0.0,0.0,0.0,0.0,0.0,0.0,0.0,0.0,0.0,-4.4291,-4.4237,0.0,0.0,0.0,0.0,-4.4022,-4.4574,-4.485,-4.485,-4.543,-4.6069,-4.6662,-4.672,-4.7085,-4.7724,-4.7753,-4.7782,-4.7782,-4.7782,-4.7782,-4.7782,-4.7782,-4.7782,-4.7811,-4.842,-4.903,-4.9572,-4.8914,-4.8682,-4.8596,-4.8162,-4.7988,-4.7943,-4.7416,-4.7539,-4.7975,-4.7893,-4.756,-4.7201,-4.7646,-4.7812,-4.7649,-4.6547,-4.7418,0.0,0.0,-4.6713,-4.7085,-4.6476,-4.638,-4.6531,-4.7,-4.7565,-4.7922,-4.8101,-4.8963,-4.9495,0.0,-4.8436,-4.811,-4.8056,0.0,-5.0049,-5.0752,-5.0823,-5.1403,-5.3213,-5.3083,-5.3465,-5.5221,-5.5997,-5.6665,-5.7245,-5.7274,-5.7245,-5.7245,-5.6694,-5.6316,-5.6258,-5.5649,-5.4691,-5.3384,-5.2775,0.0,0.0,0.0,0.0,0.0,0.0,0.0,0.0,0.0,0.0,0.0,0.0,0.0,0.0,0.0,0.0,0.0,0.0,0.0,0.0,0.0,0.0,0.0,0.0,0.0,0.0,0.0,0.0,-4.5302,-4.5243,0.0,-4.5198,-4.5198,-4.5198,-4.5198,-4.5779,-4.6127,-4.6127,-4.6766,-4.7201,-4.7433,-4.7433,-4.755,-4.7782,-4.8188,-4.8391,-4.8391,-4.8798,-4.9001,-4.9001,-4.9001,-4.9001,-4.9001,-4.9233,-4.9698,-5.0357,-5.0075,-4.9745,-4.9382,-4.9221,-4.868,-4.7915,-4.6997,-4.6798,-4.6872,-4.6087,-4.5731,-4.5598,-4.5737,-4.583,-4.5716,-4.5342,-4.5924,-4.6676,-4.6389,-4.673,-4.717,-4.7302,-4.733,-4.738,-4.7581,-4.7782,-4.8032,-4.8477,-4.8538,-4.861,-4.8781,-4.9632,-5.0044,-4.9292,-4.984,-5.061,-5.1199,-5.1707,-5.2352,-5.3355,-5.445,-5.5353,-5.5971,-5.6607,-5.7071,-5.7274,-5.7303,-5.7303,-5.7303,-5.71,-5.681,-5.6432,-5.6171,-5.5649,-5.4749,-5.395,-5.3314,0.0,0.0,0.0,0.0,0.0,0.0,0.0,0.0,0.0,0.0,0.0,0.0,0.0,0.0,0.0,0.0,0.0,0.0,0.0,0.0,0.0,0.0,0.0,0.0,0.0,0.0,-4.5783,-4.5911,-4.6069,-4.6214,-4.6214,-4.6388,-4.6534,-4.6534,-4.6911,-4.7143,-4.7143,-4.755,-4.7869,-4.8101,-4.8101,-4.8188,-4.842,-4.8827,-4.9059,-4.9059,-4.9368,-4.962,-4.9669,-4.9522,-4.9277,-4.9001,-4.9431,-4.9608,-4.9728,-5.0205,-4.9889,-4.9036,-4.9192,-4.8517,-4.726,-4.6169,-4.5845,-4.5962,-4.5557,-4.5472,-4.5438,-4.5673,-4.5723,-4.5723,-4.5723,-4.5999,-4.6376,-4.6753,-4.7104,-4.7531,-4.8058,-4.8209,-4.8209,-4.8209,-4.8335,-4.8485,-4.8485,-4.8485,-4.8535,-4.8736,-4.9625,-5.012,-4.9299,-4.9662,-5.032,-5.1136,-5.1314,-5.1789,-5.301,-5.4288,-5.5253,-5.5676,-5.6702,-5.7303,-5.7303,-5.7507,-5.7448,-5.7013,-5.7187,-5.6926,-5.6113,-5.649,-5.6403,-5.5765,-5.4855,-5.4428,-5.4483,0.0,0.0,0.0,0.0,0.0,0.0,0.0,0.0,0.0,0.0,0.0,0.0,0.0,0.0,0.0,0.0,0.0,0.0,0.0,0.0,0.0,0.0,0.0,-4.6151,-4.5477,-4.5198,-4.5837,-4.6475,-4.6807,-4.6807,-4.7433,-4.7782,-4.7782,-4.7811,-4.7811,-4.7811,-4.784,-4.813,-4.8692,-4.874,-4.9059,-4.9717,-4.9669,-4.9669,-4.9669,-4.9404,-4.9404,-4.9669,-4.9157,-4.8431,-4.7671,-4.8897,-4.8786,-4.7836,-4.9245,-4.8965,-4.7613,-4.7936,-4.7342,-4.6165,-4.5074,-4.5045,-4.5698,-4.6753,-4.7093,-4.723,-4.7732,-4.7908,-4.7908,-4.7908,-4.7908,-4.7933,-4.7933,-4.7958,-4.8083,-4.8661,-4.8786,-4.8786,-4.8786,-4.9213,-4.9289,-4.8184,-4.8812,-4.9439,-4.8912,-4.8335,-4.7958,-4.7958,-4.841,-4.9204,-5.0364,-4.9555,0.0,-5.2051,-5.2528,-5.312,-5.4397,-5.6165,-5.7274,-5.7303,-5.7884,-5.771,-5.649,-5.6955,-5.6723,-5.5474,-5.6607,-5.6984,-5.6403,-5.549,-5.4871,-5.4539,0.0,0.0,0.0,0.0,0.0,0.0,0.0,0.0,0.0,0.0,0.0,0.0,0.0,0.0,0.0,0.0,0.0,0.0,0.0,0.0,0.0,0.0,-4.6243,-4.5374,-4.626,-4.6882,-4.6592,-4.7143,-4.7521,-4.7521,-4.7666,-4.7782,-4.7782,-4.8217,-4.8449,-4.8449,-4.8914,-4.9233,-4.9407,-4.9407,-4.9494,-4.9717,-4.9502,-4.9404,-4.9404,-4.9157,-4.9058,-4.9108,-4.9416,-4.8929,-4.792,-4.8722,-4.8627,-4.7985,-4.8362,-4.7995,-4.7313,-4.7875,-4.7218,-4.5943,-4.5849,-4.62,-4.6728,-4.7029,-4.738,-4.7707,-4.7857,-4.7908,-4.7908,-4.7908,-4.8209,-4.8535,-4.8535,-4.8812,-4.9163,-4.9339,-4.9364,-4.9364,-4.9364,-4.949,-4.9515,-4.9188,-4.9364,-4.9565,-4.9389,-4.9238,-4.9138,-4.9138,-4.8937,-4.9039,-4.9799,-5.0061,0.0,-5.1575,-5.3452,-5.4781,-5.51,-5.605,-5.6839,-5.7274,-5.7071,-5.6781,-5.6432,-5.6578,-5.6287,-5.5445,-5.5736,-5.5742,-5.5377,-5.5526,-5.5733,0.0,0.0,0.0,0.0,0.0,0.0,0.0,0.0,0.0,0.0,0.0,0.0,0.0,0.0,0.0,0.0,0.0,0.0,0.0,0.0,0.0,0.0,-4.6858,-4.665,-4.6156,-4.7056,-4.7637,-4.7288,-4.7782,-4.8188,-4.8188,-4.842,-4.8613,-4.8613,-4.8914,-4.9117,-4.9117,-4.9465,-4.9717,-4.9717,-4.9717,-4.9717,-4.9717,-4.9453,-4.9305,-4.9305,-4.9166,-4.918,-4.9309,-4.9683,-4.9005,0.0,-4.8137,-4.7542,-4.6341,-4.6714,-4.6611,0.0,0.0,0.0,0.0,0.0,-4.6652,-4.7093,-4.738,-4.7807,-4.8309,-4.8535,-4.8611,-4.8611,-4.8611,-4.8862,-4.9113,-4.9113,-4.9339,-4.959,-4.959,-4.959,-4.959,-4.959,-4.959,-4.959,-4.959,-4.959,-4.959,-4.959,-4.959,0.0,-4.959,-4.9339,-4.9314,-4.9866,-5.0079,-5.0407,-5.0946,-5.2642,-5.3757,-5.3757,-5.5074,-5.5909,-5.5732,-5.6651,0.0,0.0,0.0,-5.6229,-5.5852,-5.5713,0.0,0.0,0.0,0.0,0.0,0.0,0.0,0.0,-5.497,-5.4941,0.0,0.0,0.0,0.0,0.0,0.0,0.0,0.0,0.0,0.0,0.0,0.0,0.0,0.0,0.0,0.0,-4.7375,-4.723,-4.7811,-4.7956,-4.7956,-4.7898,-4.8449,-4.8827,-4.8827,-4.9349,-4.9717,-4.9717,-4.9717,-4.9717,-4.9717,0.0,0.0,0.0,0.0,-4.9746,-4.9785,-4.9519,-4.94,-4.9486,-4.9478,-4.9581,-4.9813,-4.9868,-4.8762,-4.6892,-4.7302,-4.6178,-4.4075,-4.4866,-4.5025,-4.4939,-4.6679,-4.6704,-4.5817,-4.618,-4.6652,-4.7143,-4.7732,0.0,0.0,-4.9414,-4.959,-4.959,-4.959,-4.959,-4.959,-4.959,-4.959,-4.959,-4.959,-4.959,-4.959,-4.959,-4.959,-4.959,-4.959,-4.959,-4.959,-4.959,-4.959,-4.959,-4.959,-4.959,-4.9766,-5.0243,-4.9916,-4.9766,-5.0268,-5.0972,-5.1492,-5.1492,0.0,0.0,-5.3784,-5.6271,-5.6709,-5.4008,-5.5302,-5.6145,-5.6116,-5.5839,-5.6247,-5.7571,-5.702,-5.6501,-5.6019,-5.5814,-5.5667,-5.5667,-5.6105,-5.5595,0.0,0.0,0.0,0.0,0.0,0.0,0.0,0.0,0.0,0.0,0.0,0.0,0.0,0.0,0.0,-4.7898,-4.8101,-4.8344,-4.8537,-4.8972,-4.9117,-4.8595,-4.9117,-4.9494,-4.9494,-4.9611,-4.9717,-4.9717,-4.9717,-4.9717,-4.9717,-4.9717,0.0,-4.9717,-4.9717,-4.9979,-5.0531,-4.9954,-4.996,-5.0503,0.0,0.0,-4.9949,-4.9443,-4.8427,-4.71,-4.6685,-4.5654,-4.4264,-4.4422,-4.4594,-4.484,-4.5489,-4.5793,-4.5817,-4.618,-4.6652,-4.7143,-4.7732,-4.8284,-4.8862,-4.9414,-4.959,-4.959,-4.959,-4.959,0.0,-4.959,-4.959,-4.959,-4.959,-4.959,-4.959,-4.959,-4.959,-4.959,-4.959,-4.959,-4.959,-4.959,-4.959,-4.959,-4.959,-4.959,-4.964,-4.9741,-4.9665,-4.964,-4.9741,-5.0804,-5.1492,-5.1492,-5.242,-5.3594,-5.4946,-5.519,-5.5424,-5.5812,-5.5031,-5.4512,-5.4457,-5.4374,-5.4979,-5.6219,-5.6135,-5.6137,-5.6308,-5.6821,-5.6902,-5.6581,-5.5955,-5.5472,0.0,0.0,0.0,0.0,0.0,0.0,0.0,0.0,0.0,0.0,0.0,-4.9204,0.0,0.0,-4.8653,-4.8304,-4.8508,-4.8827,-4.9146,-4.9465,-4.9553,-4.9233,-4.9494,-4.9717,-4.9717,-4.9717,-4.9717,-4.9717,-4.9717,-4.9717,-4.9717,-4.9717,-4.9814,-5.0211,-5.0211,-5.0481,-5.1149,-5.0716,-5.0583,-5.0823,-5.1003,-5.0698,-4.9912,-5.0208,-4.9329,-4.747,-4.7172,-4.6279,-4.5077,-4.5077,-4.5203,-4.5392,-4.5893,-4.5859,-4.5599,-4.6262,-4.6809,-4.747,-4.8397,-4.8937,-4.9264,-4.9816,-4.9816,-4.959,-4.959,-4.959,-4.959,-4.959,-4.959,-4.959,-4.959,-4.959,-4.959,-4.959,-4.959,-4.959,-4.959,-4.959,-4.959,-4.959,-4.959,-4.959,-4.959,-4.959,-4.959,-4.959,-4.959,-4.959,-4.959,-5.0142,-5.0537,-5.0537,-5.1997,-5.3158,-5.3429,-5.3788,-5.4686,-5.6263,-5.4786,-5.4215,-5.5169,-5.5034,-5.5584,-5.6851,-5.7025,-5.7196,-5.7337,-5.7503,-5.7497,-5.735,-5.6711,-5.6482,0.0,0.0,0.0,0.0,0.0,0.0,0.0,0.0,-5.1616,-5.0871,-5.0299,-4.9698,-4.9204,-4.8682,-4.8478,-4.8856,-4.8914,-4.9088,-4.9611,-4.9717,-4.9717,-4.9717,-4.9717,-4.9717,-4.9717,-4.9717,-4.9717,-4.9717,-4.9717,-4.9717,-4.9717,-4.9785,-5.0104,-5.0705,-5.0801,-5.1149,-5.1788,-5.1648,-5.1535,-5.1418,-5.2266,-5.2014,-5.0761,-5.1285,-5.0333,-4.8292,-4.7671,-4.6841,-4.5934,-4.5934,-4.5934,-4.6062,-4.6573,-4.635,-4.5761,-4.6551,-4.7184,-4.777,-4.9024,-4.9439,-4.9515,-5.0067,-4.9967,-4.959,-4.959,-4.959,-4.959,-4.959,-4.959,-4.959,-4.959,-4.959,-4.959,-4.959,-4.959,-4.959,-4.959,-4.959,-4.959,-4.959,-4.959,-4.959,-4.959,-4.959,-4.959,-4.959,-4.959,-4.959,-4.959,-4.959,-4.9719,-4.995,-5.1606,-5.2508,-5.1953,-5.3355,-5.4855,-5.6319,-5.4985,-5.4844,-5.6408,-5.6358,-5.6851,-5.7974,-5.8317,-5.8457,-5.8398,-5.8303,-5.8241,-5.8181,-5.8083,-5.7966,-5.3174,0.0,0.0,-5.2881,-5.2812,-5.2516,0.0,0.0,-5.1041,-5.0734,-5.0627,-5.0589,-5.0481,-5.0394,-5.0191,-4.964,-4.9582,-4.9582,-4.9717,-4.9717,-4.9717,-4.9717,-4.9717,-4.9717,-4.9717,-4.9717,-4.9717,-4.9717,-4.9717,-4.9717,-4.9717,-5.0249,-5.0598,-5.0734,-5.1207,-5.1817,-5.2455,-5.2775,-5.3111,-5.3658,-5.4104,-5.4226,-5.3976,-5.1871,-5.0572,-4.9887,-4.7257,-4.6038,-4.5934,-4.5934,-4.6062,-4.6357,-4.6445,-4.6602,-4.6882,-4.7558,-4.7795,-4.7946,-4.8636,-4.8862,-4.8962,-4.9515,-4.964,-4.959,-4.959,-4.959,-4.959,-4.959,-4.959,-4.959,-4.959,-4.959,-4.959,-4.959,-4.959,-4.959,-4.959,-4.959,-4.959,-4.959,-4.959,-4.959,-4.959,-4.959,-4.959,-4.959,-4.959,-4.959,-4.959,-4.959,-5.0014,-5.1142,-5.0563,-5.0942,-5.3059,-5.5503,-5.6729,-5.6432,-5.6499,-5.6619,-5.6821,-5.7398,-5.7974,-5.8695,-5.8986,-5.9044,-5.8752,-5.9564,-5.9794,-5.9585,-6.01,-5.9454,-5.4341,0.0,0.0,0.0,-5.4251,-5.3972,-5.3854,-5.3675,-5.3315,-5.2484,-5.2339,-5.2107,-5.1352,-5.1207,-5.112,0.0,-5.0801,-5.0801,-5.0801,-5.0801,-5.0801,-5.0801,-5.0801,-5.0656,-5.0307,-5.0299,-5.0423,-5.0772,-5.0801,-5.0801,-5.0801,-5.1062,-5.1381,-5.181,-5.202,-5.2659,-5.3704,-5.3859,-5.4161,-5.4604,-5.5128,-5.4883,-5.3948,-5.321,-5.1917,-5.0017,-4.7774,-4.6848,-4.6848,-4.7044,-4.7239,-4.7369,-4.7798,-4.8056,-4.8224,-4.8156,-4.8158,-4.8283,-4.935,-4.9515,-4.9339,-4.9891,-4.9866,-4.959,-4.959,-4.959,-4.959,-4.959,-4.959,-4.959,-4.959,-4.959,-4.959,-4.959,-4.959,-4.959,-4.959,-4.959,-4.959,-4.959,-4.959,-4.969,-5.0017,-4.9816,-4.9715,-5.0017,-4.9791,-4.9886,-5.06,-5.0078,-5.0372,-5.2447,-5.2201,-5.2937,-5.55,-5.6708,-5.7361,-5.7507,-5.7278,-5.7481,-5.8263,-5.8581,-5.9015,-5.9594,-6.0147,-6.0321,-6.0202,-6.0403,-6.0398,-6.0307,-6.0384,-6.0091,-5.5478,0.0,0.0,-5.5768,-5.5519,-5.5182,-5.5391,-5.5317,-5.4865,-5.3733,-5.3384,-5.2978,-5.2049,-5.173,-5.1614,-5.1614,-5.1614,-5.1614,-5.1614,-5.1614,-5.1614,-5.1614,-5.1614,-5.1497,-5.1236,-5.1033,-5.112,-5.1585,-5.1788,-5.1875,-5.1875,-5.2223,-5.263,-5.3094,-5.3268,-5.382,-5.4749,-5.4952,-5.5163,-5.5377,-5.6012,-5.568,-5.4536,-5.4134,-5.2455,-4.9682,-4.8396,-4.7762,-4.7828,-4.805,-4.8223,-4.8355,-4.8877,-4.9137,-4.9217,-4.8818,-4.8668,-4.8793,-4.9851,-4.9941,-4.9665,-5.0067,-4.9916,-4.959,-4.959,-4.959,-4.959,-4.959,-4.959,-4.959,-4.959,-4.959,-4.959,-4.959,-4.959,-4.959,-4.959,-4.959,-4.964,-4.9791,-4.9816,-4.9992,-5.0569,-5.0318,-5.0142,-5.0368,-5.0067,-5.0128,-5.0879,-5.079,-5.1231,-5.2815,-5.4069,-5.5429,-5.691,-5.7568,-5.8058,-5.8552,-5.829,-5.8552,-5.951,-5.9742,-6.0032,-6.0467,-6.0961,-6.1193,-6.1193,-6.0952,-6.0831,-6.0802,-6.0499,-6.0585,0.0,0.0,-5.6568,-5.6356,-5.6035,-5.5537,-5.4715,-5.4546,-5.4342,-5.3646,-5.3007,-5.2652,-5.2594,-5.2049,-5.1614,-5.1614,-5.1614,-5.1614,-5.1614,-5.1614,-5.1614,-5.1614,-5.1614,-5.1846,0.0,-5.1962,-5.1585,-5.1614,-5.2194,-5.2594,-5.2594,-5.3733,-5.4429,-5.4458,-5.501,-5.5329,-5.5387,-5.6026,-5.6374,-5.6374,-5.6984,-5.7218,-5.7105,-5.424,-5.1554,-4.9137,-4.8706,-4.86,-4.86,-4.86,-4.8772,-4.9072,-4.9072,-4.9332,-4.959,-4.9565,-4.9565,-4.9565,-4.9615,-4.9615,-4.959,-4.9615,-4.9615,-4.959,-4.959,-4.959,-4.959,-4.959,-4.959,-4.959,-4.959,-4.959,-4.959,-4.959,-4.959,-4.959,-4.959,-4.959,-4.9741,-5.0293,-5.0393,-5.0569,-5.1147,-5.1247,-5.1046,-5.0494,-5.0393,-5.0193,-4.973,-5.1855,-5.2937,-5.1678,-5.5503,-5.7686,-5.6517,-5.8143,-5.9248,-5.9277,-5.98,-6.0119,-6.0177,-6.0787,-6.1164,-6.1164,-6.1193,-6.1193,-6.1193,-6.1193,-6.1193,-6.1193,-6.0831,-6.1181,0.0,0.0,-5.674,-5.6863,-5.6711,-5.6443,-5.6372,-5.6374,-5.62,-5.5562,-5.5271,-5.4981,-5.4546,-5.3965,-5.353,-5.353,-5.3152,-5.2891,-5.2891,-5.2891,-5.2891,-5.2891,-5.2891,0.0,0.0,0.0,0.0,-5.3471,-5.3733,-5.4023,-5.4429,-5.4865,-5.5097,-5.5097,-5.53,-5.562,-5.6055,-5.6287,-5.6607,-5.7013,-5.7216,-5.7303,-5.7191,-5.4295,-5.2482,-5.158,-4.95,-4.86,-4.86,-4.8837,-4.9007,-4.9137,-4.9332,-4.9525,-4.959,-4.959,-4.959,-4.959,-4.959,-4.959,-4.959,-4.959,-4.959,-4.959,-4.959,-4.959,-4.959,-4.959,-4.959,-4.959,-4.959,-4.959,-4.959,-4.959,-4.959,-4.969,-5.0067,-5.0142,-5.0318,-5.087,-5.0996,-5.1172,-5.1724,-5.1523,-5.1403,-5.1679,-5.1395,-5.106,-5.0879,-5.2766,-5.4236,-5.4688,-5.6504,-5.7819,-5.8288,-5.9304,-5.9887,-5.9887,-6.0496,-6.0874,-6.0874,-6.1077,-6.1193,-6.1193,-6.1193,-6.1193,-6.1193,-6.16,-6.1803,-6.1803,-6.2116,-6.2435,0.0,-5.7368,-5.7261,-5.7488,-5.7276,-5.7032,-5.7272,-5.7303,-5.7187,-5.681,-5.6549,-5.6287,-5.5852,-5.5242,-5.4836,-5.4836,-5.4458,-5.411,-5.3907,-5.3878,-5.3791,-5.3559,-5.35,0.0,0.0,0.0,0.0,-5.4458,-5.4923,-5.5358,-5.5736,-5.5968,-5.6084,-5.6084,-5.6084,-5.6287,-5.6723,-5.6723,-5.6926,-5.7303,-5.7303,-5.6822,-5.5876,-5.3997,-5.2692,-5.1705,-4.9758,-4.8967,-4.8967,-4.9202,-4.9392,-4.9566,-4.9826,-5.0017,-5.0193,-5.0193,-5.0193,-5.0142,-4.9741,-4.959,-4.959,-4.959,-4.959,-4.959,-4.959,-4.959,-4.959,-4.959,-4.959,-4.959,-4.959,-4.959,-4.964,-4.9841,-4.9891,-5.0042,-5.0594,-5.072,-5.0896,-5.1473,-5.1574,-5.1749,-5.2302,-5.1774,-5.1478,-5.1962,-5.1906,-5.1993,-5.2492,-5.4046,-5.5557,-5.6588,-5.7718,-5.8713,-5.9567,-6.0206,-6.0555,-6.0555,-6.0961,-6.1193,-6.1193,-6.1193,-6.1193,-6.1193,-6.1396,-6.1513,-6.1513,-6.2151,-6.2441,-6.247,-6.2906,-6.3225,-5.8171,-5.8189,-5.825,-5.8195,-5.7751,-5.736,-5.7303,-5.7303,-5.7303,-5.7303,-5.6839,-5.6461,0.0,0.0,-5.5474,-5.5474,-5.5416,-5.5213,-5.4633,-5.4546,-5.4284,0.0,0.0,0.0,0.0,0.0,0.0,-5.4604,0.0,-5.6432,-5.6461,-5.6984,-5.7303,-5.7303,-5.7303,-5.7303,-5.7303,-5.7303,-5.7303,-5.7303,-5.7303,-5.5992,-5.3631,-5.3571,-5.2103,-4.9719,-4.9654,-4.9615,-4.964,-4.964,-4.9967,-5.0469,-5.0469,-5.0795,-5.1272,-5.1272,-5.1272,-5.1122,-5.0042,-4.969,-4.9665,-4.964,-4.964,-4.964,-4.9615,-4.959,-4.959,-4.959,-4.959,-4.959,-4.959,-4.9615,-4.9766,-5.0293,-5.0444,-5.0619,-5.1197,-5.1322,-5.1498,-5.2051,-5.2151,-5.2302,-5.2829,-5.2026,-5.1389,-5.1522,-5.2143,-5.3065,-5.4256,-5.5677,-5.6736,-5.7419,-5.9119,-6.0264,-6.0264,-6.0816,-6.1193,-6.1193,-6.1193,-6.1193,-6.1193,-6.1222,-6.1251,-6.1251,-6.1832,-6.2151,-6.2151,-6.2819,-6.3138,-6.3138,-6.3167,-6.3516,-5.871,-5.8871,-5.8773,-5.8305,-5.8085,-5.7863,-5.7416,-5.7303,-5.7303,-5.7303,-5.7187,-5.7071,0.0,0.0,0.0,-5.6142,-5.5736,0.0,-5.5213,-5.4807,0.0,-5.4894,0.0,-5.4517,-5.5126,-5.562,0.0,0.0,-5.6229,-5.6607,-5.7042,-5.7216,-5.7303,-5.7303,-5.7303,-5.7303,-5.7303,-5.7303,-5.7303,-5.7303,-5.7303,-5.648,-5.4856,-5.3904,-5.257,-5.0979,-5.0014,-4.9816,-5.0218,-5.0218,-5.0544,-5.1071,-5.1071,-5.1147,-5.1272,-5.1272,-5.1272,-5.1247,-5.0946,-5.0845,-5.077,-5.0343,-5.0218,-5.0117,-4.9715,-4.959,-4.959,-4.959,-4.959,-4.959,-4.959,-4.9891,-5.0243,-5.0393,-5.0745,-5.1222,-5.1774,-5.19,-5.2051,-5.2603,-5.2729,-5.2754,-5.2904,-5.2352,-5.2587,-5.4611,-5.4744,-5.4718,-5.503,-5.6676,-5.8224,-5.9355,-6.0347,-6.0932,-6.0932,-6.1106,-6.1193,-6.1193,-6.1193,-6.1193,-6.1193,-6.1629,-6.1861,-6.1861,-6.2499,-6.2848,-6.2848,-6.3486,-6.3806,-6.3806,-6.427,-6.459,-5.9009,-5.8991,-5.8828,-5.8305,-5.8085,-5.7892,-5.7416,-5.7303,-5.7303,-5.7303,-5.71,0.0,0.0,0.0,0.0,0.0,0.0,0.0,-5.5881,-5.5562,-5.5358,0.0,-5.5097,0.0,-5.5794,-5.62,-5.652,0.0,-5.681,-5.6955,-5.7274,-5.7303,-5.7303,-5.7303,-5.7303,-5.7303,-5.7303,-5.7303,-5.7303,-5.7303,-5.7303,-5.6651,-5.5353,-5.4084,-5.2754,-5.1455,0.0,-4.9916,-5.0419,-5.0419,-5.0896,-5.1649,-5.1649,-5.18,-5.2,-5.2,-5.2,-5.2,-5.2,-5.2,-5.1875,-5.1071,-5.0795,-5.0695,-5.0117,-4.9967,-4.9916,-4.9665,-4.9766,-4.9967,-4.9967,-5.0368,-5.0845,-5.1096,-5.1398,-5.18,-5.2352,-5.2477,-5.2553,-5.2879,-5.2929,-5.3035,-5.3368,-5.2683,-5.2992,-5.5697,-5.5654,-5.5605,-5.6438,-5.7805,-5.9088,-6.0118,-6.0526,-6.0758,-6.0758,-6.1019,-6.1193,-6.1193,-6.1454,-6.16,-6.16,-6.218,-6.2529,-6.2529,-6.3167,-6.3516,-6.3516,-6.4154,-6.4444,-6.4473,-6.4822,-6.4996,-5.9099,-5.8936,-5.8664,-5.828,-5.8059,-5.7781,-5.736,-5.7303,-5.7303,-5.7303,0.0,-5.652,-5.652,0.0,-5.652,-5.652,0.0,-5.7129,-5.6607,-5.6461,-5.6229,-5.5707,-5.5591,-5.5794,-5.6461,-5.652,-5.6752,-5.7274,-5.7303,-5.7303,-5.7303,-5.7303,-5.7303,-5.7303,-5.7303,-5.7303,-5.7303,-5.7303,-5.7303,-5.7303,-5.7303,-5.6651,-5.5353,-5.4263,-5.3059,-5.1705,0.0,0.0,-5.0781,-5.0685,-5.1272,-5.2226,-5.2226,-5.2503,-5.2929,-5.2929,-5.2929,-5.2929,-5.2929,-5.2929,-5.2754,-5.1724,-5.1398,-5.1297,-5.072,-5.0519,-5.0444,-5.0042,-5.0218,-5.0544,-5.0619,-5.1021,-5.1498,-5.2,-5.2151,-5.2352,-5.2829,-5.2929,-5.2929,-5.2929,-5.2929,-5.3139,-5.3947,-5.31,-5.3274,-5.5907,-5.5967,-5.6321,-5.8142,-5.8975,-5.9626,-6.0148,-6.0264,-6.0322,-6.0322,-6.0932,-6.1309,-6.1309,-6.189,-6.2238,-6.2238,-6.2877,-6.3225,-6.3225,-6.3835,-6.4091,-6.4091,-6.4706,-6.4996,-6.4996,-6.4996,-6.4996,-5.9099,-5.9045,-5.8882,-5.8305,-5.814,-5.7974,-5.7416,-5.7303,0.0,0.0,0.0,-5.7158,-5.7158,-5.7158,-5.7158,-5.7158,0.0,0.0,0.0,0.0,-5.6549,0.0,0.0,0.0,0.0,0.0,0.0,0.0,0.0,-5.7303,-5.7303,-5.7303,-5.7303,-5.7303,-5.7303,-5.7303,-5.7303,-5.7303,-5.7303,-5.7303,-5.7303,-5.6651,-5.5412,-5.515,-5.4382,-5.3086,-5.2292,0.0,-5.2647,-5.2067,-5.2201,-5.2779,-5.2779,-5.2854,-5.2929,-5.2929,-5.2929,-5.2929,-5.2929,-5.2929,-5.2829,-5.2176,-5.1975,-5.185,-5.1297,-5.1122,-5.1197,-5.1574,-5.1398,-5.1247,-5.1699,-5.1875,-5.1975,-5.2076,-5.2452,-5.2804,-5.2904,-5.2929,-5.2929,-5.2929,-5.2929,-5.3139,-5.3907,-5.3803,-5.4443,-5.667,-5.735,-5.8147,-5.9673,-5.9972,-6.009,-6.0177,-6.07,-6.1019,-6.1019,-6.16,-6.1948,-6.1948,-6.2558,-6.2906,-6.2906,-6.3545,-6.3864,-6.3864,-6.4502,-6.4822,-6.4822,-6.4938,-6.4996,-6.4996,-6.4996,-6.4996,-5.9099,-5.9099,-5.8936,-5.836,-5.8195,-5.8029,-5.7416,0.0,0.0,0.0,-5.7042,-5.6839,-5.6839,0.0,0.0,0.0,0.0,0.0,0.0,0.0,0.0,0.0,0.0,0.0,0.0,0.0,0.0,0.0,0.0,-5.7303,-5.7303,-5.7303,-5.7303,-5.7303,-5.7303,-5.7303,-5.7303,-5.7303,-5.7303,-5.7303,-5.7303,-5.6992,-5.6366,-5.5703,-5.5287,-5.4966,-5.3874,0.0,-5.3648,-5.3303,-5.3055,-5.2929,-5.2929,-5.2929,-5.2929,-5.2929,-5.2929,-5.2929,-5.2929,-5.2929,-5.2879,-5.2628,-5.2528,-5.2427,-5.1875,-5.19,-5.2126,-5.2126,-5.2327,-5.2528,-5.2528,-5.2729,-5.2879,-5.2603,-5.2729,-5.2929,-5.2929,-5.3452,-5.3768,-5.3042,-5.4081,-5.5155,-5.5495,-5.5268,-5.6042,-5.886,-5.8366,-5.8253,-5.9971,-6.0206,-6.0206,-6.0206,-6.0787,-6.1193,-6.1193,-6.2064,-6.2616,-6.2616,-6.3225,-6.3574,-6.3574,-6.4183,-6.4532,-6.4532,-6.4502,-6.4648,-6.4996,-6.4648,-6.4677,-6.4996,-6.4996,-6.4996,-5.9123,-5.9009,-5.8811,-5.8386,-5.8162,-5.7882,-5.7499,-5.7272,0.0,0.0,-5.6926,-5.6607,-5.6607,-5.6607,-5.6374,0.0,0.0,0.0,0.0,0.0,0.0,0.0,0.0,0.0,0.0,0.0,0.0,0.0,0.0,0.0,-5.7303,-5.7303,-5.7303,-5.7303,-5.7303,-5.7303,-5.7303,-5.7303,-5.7303,-5.7303,-5.7303,-5.7303,-5.7247,-5.6422,-5.63,-5.675,-5.5662,0.0,0.0,-5.4825,-5.4377,-5.3768,-5.3452,-5.3384,-5.3316,-5.2998,-5.2929,-5.2929,-5.2929,-5.2929,-5.2955,-5.3055,-5.308,-5.3005,-5.2578,-5.2829,-5.3206,-5.2904,-5.3331,-5.3808,-5.3532,-5.3582,-5.3557,-5.3055,-5.2929,-5.2998,-5.3247,-5.3868,-5.4237,-5.3724,-5.5116,-5.6536,-5.7004,-5.674,-5.7474,-6.0341,-5.9082,-5.8383,-6.0001,-6.0438,-6.0613,-6.0613,-6.1077,-6.1454,-6.16,-6.2645,-6.3283,-6.3283,-6.3893,-6.4241,-6.4241,-6.4735,-6.4996,-6.4996,-6.4502,-6.4473,-6.4996,-6.4473,-6.4502,-6.4996,-6.4996,-6.4996,-5.9188,-5.868,-5.8244,-5.857,-5.8031,-5.7462,-5.7719,0.0,0.0,-5.7187,-5.7274,-5.7216,-5.7216,-5.7216,0.0,0.0,0.0,0.0,0.0,0.0,0.0,0.0,0.0,0.0,0.0,0.0,0.0,0.0,0.0,0.0,-5.7303,-5.7303,-5.7303,-5.7303,-5.7303,-5.7303,-5.7303,-5.7303,-5.7303,-5.7303,-5.7303,-5.7303,-5.7332,-5.7828,-5.806,-5.8119,-5.7881,0.0,0.0,-5.6968,-5.6661,-5.652,-5.526,-5.482,-5.4686,-5.3384,-5.2929,-5.2929,-5.2929,-5.2929,-5.3005,-5.3482,-5.3632,-5.3632,-5.3557,-5.3959,-5.4511,-5.4963,-5.4787,-5.4587,-5.5039,-5.4436,-5.3557,-5.3055,-5.2929,-5.3247,-5.4552,-5.3494,-5.3069,-5.5355,-5.5032,-5.4975,-5.6882,-5.7556,-5.824,-5.9304,-5.9711,-6.0001,-6.0177,-6.1193,-6.1919,-6.1919,-6.1977,-6.2267,-6.2877,-6.3545,-6.3888,-6.3888,-6.4561,-6.4909,-6.4909,-6.4967,-6.4996,-6.4996,-6.4938,-6.4938,-6.4996,-6.4938,-6.4938,-6.4996,-6.4996,-6.4996,-5.9117,-5.8919,-5.8716,-5.8714,-5.8431,-5.8094,-5.7833,0.0,-5.7266,-5.7301,-5.7303,-5.7303,-5.7303,-5.7303,-5.71,0.0,0.0,0.0,0.0,0.0,0.0,0.0,0.0,0.0,0.0,0.0,0.0,0.0,0.0,0.0,-5.7303,-5.7303,-5.7303,-5.7303,-5.7303,-5.7303,-5.7303,-5.7303,-5.7303,-5.7303,-5.7303,-5.7303,-5.7332,-5.8,-5.8523,-5.8958,-5.924,0.0,0.0,-5.8355,-5.7742,-5.6844,-5.5525,-5.5525,-5.5959,-5.37,-5.3452,-5.4039,-5.3179,-5.2929,-5.3005,-5.3532,-5.3934,-5.421,-5.421,-5.4612,-5.5114,-5.5315,-5.5465,-5.5541,-5.5415,-5.4561,-5.3658,-5.3432,-5.3155,-5.2966,-5.3199,-5.3279,-5.3708,-5.5207,-5.6401,-5.7539,-5.8772,-5.9517,-6.0071,-6.0408,-6.0293,-6.0351,-6.0758,-6.1542,-6.2238,-6.2645,-6.3051,-6.337,-6.3632,-6.4241,-6.4619,-6.4619,-6.4851,-6.4822,-6.4415,-6.4793,-6.4793,-6.4415,-6.4415,-6.4619,-6.4996,-6.459,-6.4619,-6.4996,-6.4996,-6.5199,-5.9297,-5.9014,-5.8776,-5.856,-5.8397,-5.8178,0.0,0.0,-5.738,-5.733,-5.7303,-5.7303,-5.7303,-5.7303,-5.71,0.0,0.0,0.0,0.0,0.0,0.0,0.0,0.0,0.0,0.0,0.0,0.0,0.0,0.0,0.0,-5.7303,-5.7303,-5.7303,-5.7303,-5.7303,-5.7303,-5.7303,-5.7303,-5.7303,-5.7303,-5.7303,-5.739,-5.7623,-5.829,-5.8958,-5.9597,0.0,0.0,0.0,-5.9707,-5.9121,-5.8088,-5.6742,-5.6807,-5.7359,-5.4994,-5.4727,-5.5459,-5.4485,-5.4251,-5.4415,-5.4497,-5.5013,-5.5451,-5.5131,-5.5315,-5.5641,-5.5641,-5.5917,-5.6093,-5.5541,-5.5016,-5.4442,-5.3872,-5.3749,-5.3772,-5.3608,-5.404,-5.4964,-5.6553,-5.8186,-5.9482,-6.0274,-6.0991,-6.1396,-6.1222,-6.0787,-6.0729,-6.1367,-6.2006,-6.2645,-6.3312,-6.3951,-6.4328,-6.4328,-6.4735,-6.4996,-6.4996,-6.4996,-6.4793,-6.4328,-6.4764,-6.4764,-6.4328,-6.4328,-6.4532,-6.4996,-6.4532,-6.4648,-6.5257,-6.5257,-6.5722,-5.9672,-5.8841,-5.8141,-5.8141,-5.7713,-5.7281,0.0,0.0,-5.6578,-5.7187,-5.7303,-5.7303,-5.7303,-5.7303,-5.71,0.0,0.0,0.0,0.0,0.0,0.0,0.0,0.0,0.0,0.0,0.0,0.0,0.0,0.0,0.0,-5.7303,-5.7303,-5.7303,-5.7303,-5.7303,-5.7303,-5.7303,-5.7303,-5.7303,-5.7303,-5.7303,-5.7652,-5.8319,-5.8987,-5.9626,0.0,0.0,0.0,0.0,-6.1193,-6.1193,-6.1013,-5.9645,-5.9058,-5.8905,-5.7487,-5.6973,-5.6973,-5.6973,-5.7418,-5.7818,-5.6867,-5.699,-5.7406,-5.6454,-5.6194,-5.6194,-5.6194,-5.6219,-5.6093,-5.5541,-5.5976,-5.6055,-5.4157,-5.4875,-5.6269,-5.6838,-5.6052,-5.6438,-6.0362,-6.0075,-5.9588,-6.0952,-6.1687,-6.189,-6.128,-6.1193,-6.1396,-6.2006,-6.2674,-6.3312,-6.3888,-6.459,-6.4967,-6.4967,-6.4996,-6.4996,-6.4996,-6.4996,-6.4996,-6.4967,-6.4996,-6.4996,-6.4967,-6.4967,-6.4967,-6.4996,-6.4967,-6.5315,-6.5925,-6.5925,-6.6622,-5.9644,-5.9175,-5.88,-5.88,-5.853,-5.8204,-5.7955,0.0,-5.738,-5.733,-5.7303,-5.7303,-5.7303,-5.7303,-5.71,-5.652,0.0,0.0,0.0,0.0,0.0,0.0,0.0,0.0,0.0,0.0,0.0,0.0,0.0,0.0,-5.7303,-5.7303,-5.7303,-5.7303,-5.7303,-5.7303,-5.7303,-5.7303,-5.7303,-5.7303,-5.7768,-5.8087,-5.8348,-5.9422,0.0,0.0,0.0,0.0,0.0,-6.1193,-6.1193,-6.1073,-5.9645,-5.9707,-6.0226,-5.787,-5.7615,-5.8333,-5.7888,-5.7836,-5.8096,-5.8631,-5.8912,-5.9112,-5.9216,-5.7804,-5.6412,-5.7374,-5.6968,-5.6653,-5.8464,-5.8131,-5.7068,-5.6038,-5.6637,-5.6942,-5.535,-5.5864,-5.7349,-6.0036,-6.0517,-6.0955,-6.2286,-6.2645,-6.2412,-6.1367,-6.1193,-6.1425,-6.2006,-6.2674,-6.3341,-6.3917,-6.4619,-6.4996,-6.4996,-6.4996,-6.4996,-6.4996,-6.4996,-6.4793,-6.4357,-6.4764,-6.4793,-6.4357,-6.4764,-6.4996,-6.4996,-6.5431,-6.5954,-6.6593,-6.7057,-6.7492,-6.0154,-5.9737,-5.9214,-5.8847,-5.8595,-5.8386,0.0,0.0,-5.747,-5.7069,-5.7158,-5.7245,-5.7013,-5.6955,-5.6839,-5.6461,-5.5649,0.0,0.0,0.0,0.0,0.0,0.0,0.0,0.0,0.0,0.0,0.0,0.0,0.0,-5.7303,-5.7303,-5.7303,-5.7303,-5.7303,-5.7303,-5.7303,-5.7565,-5.7681,-5.7681,-5.8348,-5.8813,-5.9045,-5.9829,0.0,0.0,0.0,0.0,0.0,-6.1193,-6.1193,-6.1133,-6.0226,-6.0409,-6.1013,-5.9245,-5.9261,-6.0137,-5.969,-5.9854,-6.032,-6.048,-6.0359,-6.0131,-6.0511,-5.9306,-5.8063,-5.8956,-5.856,-5.8276,-6.0139,-5.9913,-5.8885,-5.7822,-5.8402,-5.8638,-5.6439,-5.7432,-5.922,-6.0938,-6.181,-6.2428,-6.3304,-6.3254,-6.2732,-6.1687,-6.1542,-6.1774,-6.2383,-6.3051,-6.369,-6.4328,-6.4764,-6.4996,-6.4996,-6.4996,-6.4996,-6.4996,-6.4996,-6.4793,-6.4415,-6.4764,-6.4793,-6.4415,-6.4793,-6.5112,-6.5344,-6.6244,-6.6883,-6.726,-6.7928,-6.8247,0.0,-6.0409,-5.9379,-5.8437,-5.8218,-5.8048,-5.7404,0.0,0.0,-5.6578,-5.6926,-5.7129,-5.6578,-5.6432,-5.6403,-5.6345,-5.5358,0.0,0.0,0.0,0.0,0.0,0.0,0.0,0.0,0.0,0.0,0.0,0.0,0.0,-5.7303,-5.7303,-5.7332,-5.7361,-5.7361,-5.7361,-5.7361,-5.8,-5.8319,-5.8377,-5.9045,-5.9655,-6.0206,-6.0235,0.0,0.0,0.0,0.0,0.0,-6.1193,-6.1193,-6.1193,-6.1193,-6.1193,-6.1193,-6.1251,-6.16,-6.2093,-6.2209,-6.3022,-6.3786,-6.245,-6.1503,-6.0893,-6.0893,-6.0756,-6.062,-6.0756,-6.0688,-6.062,-6.0825,-6.1425,-6.137,-5.9429,-6.0139,-6.0918,-5.9454,-6.0312,-6.1687,-6.2935,-6.3661,-6.4096,-6.3975,-6.3516,-6.2877,-6.2267,-6.2122,-6.2354,-6.308,-6.3661,-6.427,-6.4909,-6.4996,-6.4996,-6.4996,-6.4996,-6.4996,-6.4996,-6.4996,-6.4996,-6.4996,-6.4996,-6.4996,-6.4996,-6.5025,-6.5373,-6.6012,-6.7231,-6.787,-6.7957,-6.8509,-6.877,-6.1042,0.0,-5.9502,-5.9008,-5.8709,-5.847,0.0,-5.783,-5.7555,0.0,-5.7216,-5.7274,-5.7129,-5.6723,-5.6229,-5.5736,0.0,-5.53,0.0,0.0,0.0,0.0,0.0,0.0,0.0,0.0,0.0,0.0,0.0,-5.7303,-5.7303,-5.7303,-5.7536,-5.8058,-5.8058,-5.8058,-5.8058,-5.8232,-5.8552,-5.9074,-5.9684,-6.0061,-6.0206,-6.0729,0.0,0.0,0.0,0.0,-6.1193,-6.1193,-6.1193,-6.1193,-6.1193,-6.1193,-6.1251,-6.1716,-6.1977,-6.2238,-6.3225,-6.3777,-6.4062,-6.4179,-6.4117,-6.3973,-6.3973,-6.2403,-6.0825,-6.1975,-6.1504,-6.1097,-6.3357,-6.3309,-6.223,-6.0784,-6.1576,-6.2101,-6.025,-6.1313,-6.2877,-6.3661,-6.4328,-6.4619,-6.4125,-6.3516,-6.3051,-6.2877,-6.2412,-6.2499,-6.3661,-6.3888,-6.427,-6.4909,-6.4996,-6.4996,-6.4996,-6.4996,-6.4996,-6.4996,-6.4996,-6.4996,-6.4996,-6.4996,-6.4996,-6.4996,-6.546,-6.6012,-6.6651,-6.697,-6.7638,-6.8596,-6.8247,-6.8363,-5.9839,-5.9853,-5.9692,-5.9205,-5.8882,-5.8609,-5.825,0.0,0.0,0.0,0.0,0.0,0.0,-5.6142,-5.562,0.0,-5.5387,0.0,0.0,0.0,0.0,0.0,0.0,0.0,0.0,0.0,0.0,0.0,0.0,-5.7303,-5.7303,-5.7594,-5.7942,-5.829,-5.861,-5.8755,-5.8755,-5.9045,-5.9364,-5.9713,-6.0351,-6.0642,-6.0671,-6.1019,-6.1193,0.0,0.0,0.0,-6.1193,-6.1193,-6.1193,-6.1193,-6.1193,-6.1193,-6.128,-6.1861,-6.2296,-6.2703,-6.369,-6.4241,-6.4532,-6.488,-6.4996,-6.4996,-6.4996,-6.3908,-6.2802,-6.3619,-6.3197,-6.3,-6.4583,-6.4425,-6.35,-6.2244,-6.2553,-6.272,-6.1347,-6.2092,-6.3283,-6.3922,-6.4561,-6.488,-6.4532,-6.369,-6.3196,-6.3486,-6.2964,-6.2906,-6.3922,-6.4299,-6.4619,-6.4938,-6.4996,-6.4996,-6.4996,-6.4996,-6.4996,-6.4996,-6.4996,-6.4996,-6.4996,-6.4996,-6.4996,-6.4996,-6.5606,-6.6099,-6.6447,-6.6738,-6.7231,-6.7928,-6.7899,-6.8073,-5.8281,-5.8969,-5.9656,-5.91,-5.8895,-5.8664,-5.828,0.0,0.0,0.0,0.0,0.0,0.0,-5.53,0.0,0.0,0.0,0.0,0.0,0.0,0.0,0.0,0.0,0.0,0.0,0.0,0.0,0.0,0.0,-5.7332,-5.7448,-5.8,-5.8406,-5.8581,-5.9132,-5.948,-5.9597,-6.0003,-6.0264,-6.0351,-6.0932,-6.1193,-6.1193,-6.1193,-6.1193,0.0,0.0,0.0,-6.1193,-6.1193,-6.1193,-6.1193,-6.1193,-6.1193,-6.128,-6.1977,-6.2616,-6.3196,-6.3922,-6.4532,-6.4996,-6.4996,-6.4996,-6.4996,-6.4996,-6.4996,-6.4996,-6.4996,-6.4996,-6.4996,-6.4996,-6.4996,-6.4677,-6.3399,-6.3167,-6.3051,-6.2383,-6.2761,-6.3428,-6.4067,-6.4619,-6.4996,-6.4996,-6.4009,-6.3457,-6.4096,-6.3632,-6.3457,-6.4096,-6.4648,-6.4996,-6.4996,-6.4996,-6.4996,-6.4996,-6.4996,-6.4996,-6.4996,-6.4996,-6.4996,-6.4996,-6.4996,-6.4996,-6.4996,-6.5606,-6.5925,-6.5925,-6.6476,-6.6825,-6.7057,-6.7522,-6.7841,-5.7349,-5.7783,-5.8358,-5.857,-5.8813,-5.8882,-5.8305,0.0,0.0,0.0,0.0,0.0,0.0,-5.4981,-5.4749,0.0,0.0,0.0,0.0,0.0,0.0,0.0,0.0,0.0,0.0,0.0,0.0,0.0,0.0,0.0,-5.8116,-5.8232,-5.8784,-5.9858,-6.0003,-6.0322,-6.0903,-6.0438,-6.0467,-6.1048,-6.1164,-6.1193,-6.1193,-6.1193,-6.1193,0.0,0.0,-6.1193,-6.1193,-6.1193,-6.1193,-6.1193,-6.1193,-6.1193,-6.1338,-6.2499,-6.2993,-6.3254,-6.4444,-6.4909,-6.4996,-6.4996,-6.4996,-6.4996,-6.4996,-6.4996,-6.4996,-6.4996,-6.4996,-6.4996,-6.4996,-6.4996,-6.4677,-6.3399,-6.3516,-6.3719,-6.308,-6.3457,-6.4067,-6.4706,-6.4909,-6.4996,-6.4996,-6.4386,-6.4125,-6.4735,-6.4299,-6.4125,-6.4764,-6.4938,-6.4996,-6.4996,-6.4996,-6.4996,-6.4996,-6.4996,-6.4996,-6.4996,-6.4996,-6.4996,-6.4996,-6.4996,-6.4996,-6.4996,-6.5606,-6.5925,-6.5925,-6.6012,-6.6651,-6.7725,-6.726,-6.7638,-5.6723,-5.728,-5.795,-5.7968,-5.7971,-5.7862,-5.7326,0.0,0.0,0.0,0.0,0.0,0.0,0.0,-5.4836,-5.5794,0.0,0.0,0.0,0.0,0.0,0.0,0.0,0.0,0.0,0.0,0.0,0.0,0.0,0.0,-5.829,-5.8958,-5.9597,-6.0177,-6.0555,-6.0874,-6.1193,-6.0874,-6.0903,-6.1193,-6.1193,-6.1193,-6.1193,-6.1193,-6.1193,-6.1193,0.0,-6.1193,-6.1193,-6.1193,-6.1193,-6.1193,-6.1193,-6.1396,-6.1832,-6.3138,-6.3835,-6.4183,-6.4793,-6.4996,-6.4996,-6.4996,-6.4996,-6.4996,-6.4996,-6.4996,-6.4996,-6.4996,-6.4996,-6.4996,-6.4996,-6.4996,-6.4677,-6.3399,-6.3574,-6.3864,-6.3225,-6.3574,-6.4241,-6.4851,-6.4996,-6.4996,-6.4996,-6.4444,-6.4241,-6.488,-6.4444,-6.427,-6.4909,-6.4996,-6.4996,-6.4996,-6.4996,-6.4996,-6.4996,-6.4996,-6.4996,-6.4996,-6.4996,-6.4996,-6.4996,-6.4996,-6.4996,-6.4996,-6.5257,-6.5431,-6.5431,-6.5751,-6.6244,-6.6825,-6.7231,-6.7725,-5.6104,-5.6809,-5.7527,-5.6892,-5.703,-5.7176,-5.6675,0.0,0.0,0.0,0.0,0.0,0.0,-5.5416,0.0,-5.6258,-5.6926,0.0,0.0,0.0,0.0,0.0,0.0,0.0,0.0,0.0,0.0,0.0,0.0,0.0,-5.8726,-5.9684,-6.0264,-6.0438,-6.0932,-6.1193,-6.1193,-6.1193,-6.1193,-6.1193,-6.1193,-6.1193,-6.1193,-6.1193,-6.1193,-6.1193,-6.1193,-6.1193,-6.1193,-6.1193,-6.1193,-6.1222,-6.1367,-6.189,-6.2674,-6.3661,-6.4444,-6.4996,-6.4996,-6.4996,-6.4996,-6.4996,-6.4996,-6.4996,-6.4996,-6.4996,-6.4996,-6.4996,-6.4996,-6.4996,-6.4996,-6.4996,-6.4706,-6.3574,-6.3806,-6.4096,-6.3457,-6.3806,-6.4415,-6.488,-6.4996,-6.4996,-6.4996,-6.459,-6.4415,-6.4909,-6.4561,-6.4444,-6.4909,-6.4996,-6.4996,-6.4996,-6.4996,-6.4996,-6.4996,-6.4996,-6.4996,-6.4996,-6.4996,-6.4996,-6.4996,-6.4996,-6.4996,-6.4996,-6.4996,-6.5054,-6.5199,-6.5693,-6.6099,-6.6418,-6.7405,-6.7957,-5.5389,-5.6018,-5.6574,-5.4873,-5.6248,-5.7892,-5.7331,-5.6721,0.0,-5.4798,0.0,0.0,0.0,-5.5533,-5.6287,-5.6403,0.0,0.0,0.0,0.0,0.0,0.0,0.0,0.0,0.0,0.0,0.0,0.0,0.0,0.0,-6.0003,-6.0148,-6.0496,-6.1106,-6.1164,-6.1193,-6.1193,-6.1193,-6.1193,-6.1193,-6.1193,-6.1193,-6.1193,-6.1193,-6.1193,-6.1193,-6.1193,-6.1193,-6.1193,-6.1193,-6.1193,-6.1251,-6.1803,-6.279,-6.383,-6.3946,-6.4444,-6.4996,-6.4996,-6.4996,-6.4996,-6.4996,-6.4996,-6.4996,-6.4996,-6.4996,-6.4996,-6.4996,-6.4996,-6.4996,-6.4996,-6.4996,-6.4822,-6.4125,-6.4444,-6.4735,-6.4096,-6.4473,-6.4938,-6.4967,-6.4996,-6.4996,-6.4996,-6.4938,-6.4938,-6.4967,-6.4938,-6.4938,-6.4967,-6.4996,-6.4996,-6.4996,-6.4996,-6.4996,-6.4996,-6.4996,-6.4996,-6.4996,-6.4996,-6.4996,-6.4996,-6.4996,-6.4996,-6.4996,-6.4996,-6.5286,-6.5867,-6.5896,-6.6564,-6.7754,-6.7841,-6.8189,-5.7215,-5.737,-5.7464,-5.7101,-5.7251,-5.7258,0.0,-5.5972,-5.5613,-5.5416,-5.538,0.0,0.0,0.0,-5.6955,0.0,0.0,0.0,0.0,0.0,0.0,0.0,0.0,0.0,0.0,0.0,0.0,0.0,0.0,0.0,0.0,-6.0584,-6.0932,-6.1193,-6.1193,-6.1193,-6.1193,-6.1193,-6.1193,-6.1193,-6.1193,-6.1193,-6.1193,-6.1193,-6.1193,-6.1193,-6.1193,-6.1193,-6.1193,-6.1193,-6.1193,-6.1309,-6.2325,-6.3254,-6.4033,-6.4473,-6.4793,-6.4996,-6.4996,-6.4996,-6.4996,-6.4996,-6.4996,-6.4996,-6.4996,-6.4996,-6.4996,-6.4996,-6.4996,-6.4996,-6.4996,-6.4996,-6.4822,-6.4183,-6.4532,-6.4822,-6.412,-6.4532,-6.4996,-6.4996,-6.4996,-6.4996,-6.4996,-6.4996,-6.4996,-6.4996,-6.4996,-6.4996,-6.4996,-6.4996,-6.4996,-6.4996,-6.4996,-6.4996,-6.4996,-6.4996,-6.4996,-6.4996,-6.4996,-6.4996,-6.4996,-6.4996,-6.517,-6.5577,-6.5577,-6.5896,-6.6535,-6.6941,-6.7405,-6.7899,-6.8276,-6.8596,-5.8216,-5.8178,-5.7981,-5.7936,0.0,0.0,-5.6266,-5.5864,-5.5695,-5.5845,-5.5808,0.0,0.0,0.0,0.0,0.0,0.0,0.0,0.0,0.0,0.0,0.0,0.0,0.0,0.0,0.0,0.0,0.0,0.0,0.0,0.0,-6.0961,-6.1193,-6.1193,-6.1193,-6.1193,-6.1193,-6.1193,-6.1193,-6.1193,-6.1193,-6.1193,-6.1193,-6.1193,-6.1193,-6.1193,-6.1193,-6.1193,-6.1193,-6.1193,-6.1425,-6.189,-6.2761,-6.3603,-6.4386,-6.4822,-6.4996,-6.4996,-6.4996,-6.4996,-6.4996,-6.4996,-6.4996,-6.4996,-6.4996,-6.4996,-6.4996,-6.4996,-6.4996,-6.4996,-6.4996,-6.4996,-6.488,-6.4444,-6.4677,-6.4851,-6.4415,-6.4677,-6.4996,-6.4996,-6.4996,-6.4996,-6.4996,-6.5141,-6.5286,-6.5286,-6.5286,-6.5286,-6.5286,-6.5112,-6.4996,-6.4996,-6.4996,-6.4996,-6.4996,-6.4996,-6.4996,-6.4996,-6.4996,-6.4996,-6.4996,-6.517,-6.5489,-6.5925,-6.6128,-6.6564,-6.7202,-6.7667,-6.7986,-6.8189,-6.8625,-6.8828,-5.7955,-5.8024,-5.7699,-5.6547,0.0,0.0,-5.7094,-5.6704,-5.6255,-5.5987,0.0,-5.6607,0.0,0.0,0.0,0.0,0.0,0.0,0.0,0.0,0.0,0.0,0.0,0.0,0.0,0.0,0.0,0.0,0.0,0.0,0.0,-6.1193,-6.1193,0.0,-6.1193,-6.1193,-6.1193,-6.1193,-6.1193,-6.1193,-6.1193,-6.1193,-6.1193,-6.1193,-6.1193,-6.1193,-6.1193,-6.1193,-6.1193,-6.1222,-6.1948,-6.3109,-6.3109,-6.3864,-6.4996,-6.4996,-6.4996,-6.4996,-6.4996,-6.4996,-6.4996,-6.4996,-6.4996,-6.4996,-6.4996,-6.4996,-6.4996,-6.4996,-6.4996,-6.4996,-6.4996,-6.4996,-6.4996,-6.4996,-6.4996,-6.4996,-6.4996,-6.4996,-6.4996,-6.4996,-6.4996,-6.4996,-6.4996,-6.5519,-6.5925,-6.5954,-6.5954,-6.5954,-6.5925,-6.5373,-6.4996,-6.4996,-6.4996,-6.4996,-6.4996,-6.4996,-6.4996,-6.4996,-6.4996,-6.4996,-6.4996,-6.5606,-6.5954,-6.5889,-6.6564,-6.7231,-6.7899,-6.7899,-6.8218,-6.8828,-6.8828,-6.8828,-5.9264,-5.91,-5.8798,-5.8962,0.0,0.0,0.0,-5.7494,0.0,0.0,0.0,0.0,0.0,0.0,0.0,0.0,0.0,0.0,0.0,0.0,0.0,0.0,0.0,0.0,0.0,0.0,0.0,0.0,0.0,0.0,0.0,-6.1193,-6.1193,0.0,-6.1193,-6.1193,-6.1193,-6.1404,-6.1404,-6.1193,-6.1404,-6.1404,-6.1193,-6.1193,-6.1193,-6.1193,-6.1193,-6.1193,-6.1222,-6.1658,-6.2587,-6.3748,-6.3748,-6.427,-6.4996,-6.4996,-6.4996,-6.4996,-6.4996,-6.4996,-6.4996,-6.4996,-6.4996,-6.4996,-6.4996,-6.4996,-6.4996,-6.4996,-6.4996,-6.4996,-6.4996,-6.4996,-6.4996,-6.4996,-6.4996,-6.4996,-6.4996,-6.4996,-6.4996,-6.4996,-6.4996,-6.5112,-6.5577,-6.5809,-6.607,-6.6535,-6.6593,-6.6447,-6.5983,-6.5751,-6.5489,-6.5025,-6.5373,-6.546,-6.5025,-6.4996,-6.4996,-6.4996,-6.5402,-6.5635,-6.5635,-6.5838,-6.636,-6.7289,-6.7492,-6.7899,-6.8538,-6.8538,-6.8654,-6.8828,-6.8828,-6.8828,-6.0065,-5.9472,-5.8892,-5.9767,-5.8808,-5.7842,-5.8381,0.0,0.0,0.0,0.0,0.0,0.0,0.0,0.0,0.0,0.0,0.0,0.0,0.0,0.0,0.0,0.0,0.0,0.0,0.0,0.0,0.0,0.0,0.0,0.0,-6.1193,0.0,0.0,-6.1284,-6.1313,-6.1193,-6.1583,-6.1583,-6.1193,-6.1434,-6.1434,-6.1193,-6.1193,-6.1193,-6.1193,-6.1193,-6.1338,-6.1571,-6.1948,-6.2848,-6.3975,-6.3975,-6.4415,-6.4996,-6.4996,-6.4996,-6.4996,-6.4996,-6.4996,-6.4996,-6.4996,-6.4996,-6.4996,-6.4996,-6.4996,-6.5025,-6.5286,-6.517,-6.5054,-6.5315,-6.517,-6.4996,-6.4996,-6.4996,-6.4996,-6.4996,-6.4996,-6.4996,-6.4996,-6.4996,-6.5199,-6.5838,-6.5925,-6.6244,-6.7144,-6.7057,-6.6651,-6.6012,-6.5722,-6.5489,-6.5373,-6.5489,-6.5402,-6.5025,-6.4996,-6.5083,-6.5344,-6.5722,-6.6157,-6.668,-6.6709,-6.7086,-6.787,-6.8131,-6.845,-6.8828,-6.8828,-6.8828,-6.8828,-6.8828,-6.8828,-6.0413,-5.946,-5.856,-5.9501,-5.851,0.0,-5.883,-5.8882,-5.8555,-5.7948,0.0,0.0,0.0,0.0,0.0,0.0,0.0,0.0,0.0,0.0,0.0,0.0,0.0,0.0,0.0,0.0,0.0,0.0,0.0,0.0,0.0,0.0,0.0,-6.1193,-6.1434,-6.1494,-6.1253,-6.1821,-6.1821,0.0,-6.1554,-6.1523,-6.1193,-6.1193,-6.1193,-6.1193,-6.1251,-6.1629,-6.218,-6.2238,-6.2993,-6.4125,-6.4125,-6.4473,-6.4996,-6.4996,-6.4996,-6.4996,-6.4996,-6.4996,-6.4996,-6.4996,-6.4996,-6.4996,-6.4996,-6.5025,-6.517,-6.5693,-6.546,-6.5199,-6.5722,-6.5431,-6.4996,-6.4996,-6.4996,-6.4996,-6.4996,-6.4996,-6.4996,-6.4996,-6.5025,-6.5257,-6.5838,-6.5983,-6.6418,-6.7609,-6.726,-6.668,-6.6099,-6.5519,-6.5373,-6.5867,-6.5431,-6.5054,-6.4996,-6.5025,-6.5315,-6.5896,-6.6041,-6.6651,-6.7841,-6.787,-6.7899,-6.7957,-6.8538,-6.8828,-6.8828,-6.8828,-6.8828,-6.8828,-6.8828,-6.8828,-5.9944,-6.0109,0.0,0.0,-5.9338,-5.874,-5.9039,-5.9045,-5.8828,0.0,0.0,0.0,0.0,0.0,0.0,0.0,0.0,0.0,0.0,0.0,0.0,0.0,0.0,0.0,0.0,0.0,0.0,0.0,0.0,0.0,0.0,0.0,0.0,-6.1193,-6.1434,-6.1554,-6.1494,-6.2175,-6.2175,0.0,-6.2116,-6.1968,-6.1193,-6.1193,-6.1193,-6.1222,-6.1687,-6.2267,-6.2906,-6.3428,-6.4067,-6.4793,-6.4793,-6.4851,-6.4996,-6.4996,-6.4996,-6.4996,-6.4996,-6.4996,-6.4996,-6.4996,-6.4996,-6.4996,-6.4996,-6.5344,-6.5635,-6.5286,-6.546,-6.5635,-6.5286,-6.5083,-6.4996,-6.4996,-6.4996,-6.4996,-6.4996,-6.4996,-6.4996,-6.4996,-6.5373,-6.578,-6.5896,-6.636,-6.6767,-6.7057,-6.697,-6.6825,-6.668,-6.6564,-6.6331,-6.5954,-6.5809,-6.5519,-6.5025,-6.5431,-6.578,-6.5925,-6.6883,-6.758,-6.787,-6.787,-6.8102,-6.8625,-6.8741,-6.8828,-6.8828,-6.8828,-6.8828,-6.8828,-6.8828,-6.8828,-5.9794,0.0,0.0,-6.0044,0.0,-5.9842,-5.9842,-5.9446,0.0,0.0,0.0,0.0,0.0,0.0,0.0,0.0,0.0,0.0,0.0,0.0,0.0,0.0,0.0,0.0,0.0,0.0,0.0,0.0,0.0,0.0,0.0,-6.1284,-6.1404,-6.1404,-6.1821,-6.1969,-6.185,-6.2351,-6.2234,-6.1613,-6.2116,-6.1998,-6.1404,-6.1253,-6.1193,-6.1222,-6.1832,-6.247,-6.3138,-6.3777,-6.4415,-6.4996,-6.4996,-6.4996,-6.4996,-6.4996,-6.4996,-6.4996,-6.4996,-6.4996,-6.4996,-6.4996,-6.4996,-6.5025,-6.5344,-6.546,-6.5548,-6.5809,-6.5693,-6.546,-6.546,-6.5228,-6.4996,-6.4996,-6.4996,-6.4996,-6.4996,-6.4996,-6.5083,-6.5373,-6.546,-6.5664,-6.6273,-6.6651,-6.6767,-6.6476,-6.668,-6.6999,-6.7318,-6.7086,-6.6767,-6.6418,-6.6099,-6.5809,-6.546,-6.5751,-6.6186,-6.6825,-6.7492,-6.8015,-6.8334,-6.8334,-6.8479,-6.8828,-6.8828,-6.8828,-6.8828,-6.8828,-6.8828,-6.8828,-6.8828,-6.8828,-5.9794,0.0,-5.9109,-6.0198,-6.0613,0.0,-6.0722,0.0,0.0,0.0,0.0,0.0,0.0,0.0,0.0,0.0,0.0,0.0,0.0,0.0,0.0,0.0,0.0,0.0,0.0,0.0,0.0,0.0,0.0,0.0,-6.1253,-6.1494,-6.1613,-6.1673,-6.2292,-6.2498,-6.2175,-6.2556,-6.2351,-6.1791,-6.1969,-6.191,-6.1613,-6.1344,-6.1253,-6.1251,-6.1948,-6.2587,-6.3138,-6.3893,-6.4502,-6.4996,-6.4996,-6.4996,-6.4996,-6.4996,-6.4996,-6.4996,-6.4996,-6.4996,-6.4996,-6.5112,-6.5083,-6.5112,-6.5751,-6.5577,-6.5344,-6.6273,-6.5867,-6.5257,-6.5664,-6.5373,-6.5025,-6.5112,-6.5083,-6.4996,-6.4996,-6.4996,-6.517,-6.5809,-6.5519,-6.5489,-6.6535,-6.6709,-6.6535,-6.6012,-6.6564,-6.726,-6.7812,-6.7289,-6.6883,-6.6883,-6.6302,-6.5925,-6.5925,-6.6128,-6.6738,-6.7812,-6.7986,-6.8276,-6.8799,-6.8828,-6.8828,-6.8828,-6.8828,-6.8828,-6.8828,-6.8828,-6.8828,-6.8828,-6.8828,-6.8828,0.0,0.0,-6.0502,0.0,-6.1328,-6.1069,0.0,0.0,0.0,0.0,0.0,0.0,0.0,0.0,0.0,0.0,0.0,0.0,0.0,0.0,0.0,0.0,0.0,0.0,0.0,0.0,0.0,0.0,0.0,0.0,-6.1554,-6.1613,-6.1732,-6.2057,-6.2439,-6.2556,-6.2556,-6.2847,-6.2847,-6.2498,-6.2234,-6.191,-6.1613,-6.1554,-6.1404,-6.128,-6.2441,-6.3022,-6.3167,-6.4357,-6.4909,-6.4996,-6.4996,-6.4996,-6.4996,-6.4996,-6.4996,-6.4996,-6.4996,-6.4996,-6.5083,-6.5635,-6.5431,-6.5112,-6.5751,-6.5867,-6.5722,-6.5344,-6.5519,-6.5693,-6.5228,-6.5054,-6.5112,-6.5693,-6.5373,-6.4996,-6.4996,-6.4996,-6.517,-6.5809,-6.5867,-6.5867,-6.6012,-6.607,-6.6012,-6.5954,-6.697,-6.7783,-6.787,-6.7289,-6.6883,-6.6883,-6.6302,-6.5925,-6.5925,-6.697,-6.7696,-6.787,-6.8392,-6.8741,-6.8828,-6.8828,-6.8828,-6.8828,-6.8828,-6.8828,-6.8828,-6.8828,-6.8828,-6.8828,-6.8828,-6.8828,-5.9065,-6.043,-6.1578,0.0,0.0,0.0,0.0,0.0,0.0,0.0,0.0,0.0,0.0,0.0,0.0,0.0,0.0,0.0,0.0,0.0,0.0,0.0,0.0,0.0,0.0,0.0,0.0,0.0,0.0,-6.1253,-6.1344,-6.1494,-6.1732,-6.2116,-6.2439,-6.2615,-6.2615,-6.2731,-6.2673,-6.2292,-6.2175,-6.191,-6.1613,-6.1613,-6.1639,-6.1745,-6.2674,-6.3283,-6.369,-6.4619,-6.4996,-6.4996,-6.4996,-6.4996,-6.4996,-6.4996,-6.4996,-6.4996,-6.4996,-6.5228,-6.5489,-6.5431,-6.546,-6.5577,-6.5838,-6.5693,-6.5431,-6.5489,-6.546,-6.5344,-6.5054,-6.5257,-6.5489,-6.5431,-6.546,-6.5431,-6.5054,-6.5257,-6.5606,-6.5867,-6.5925,-6.5925,-6.5925,-6.5925,-6.6186,-6.6912,-6.7522,-6.8015,-6.8363,-6.7841,-6.7434,-6.7434,-6.6854,-6.6622,-6.6999,-6.7551,-6.8015,-6.8392,-6.8683,-6.8828,-6.8828,-6.8828,-6.8828,-6.8828,-6.8828,-6.8828,-6.8828,-6.8828,-6.8828,-6.8828,-6.8828,-6.8828,0.0,0.0,0.0,0.0,0.0,0.0,0.0,0.0,0.0,0.0,0.0,0.0,0.0,0.0,0.0,0.0,0.0,0.0,0.0,0.0,0.0,0.0,0.0,0.0,0.0,0.0,0.0,0.0,0.0,-6.1253,-6.1284,-6.1494,-6.1732,-6.2116,-6.2439,-6.2615,-6.2615,-6.2673,-6.2556,-6.2234,-6.2292,-6.2087,-6.1613,-6.1848,-6.2107,-6.2383,-6.2877,-6.3457,-6.4033,-6.4735,-6.4996,-6.4996,-6.4996,-6.4996,-6.4996,-6.4996,-6.4996,-6.4996,-6.4996,-6.5286,-6.5635,-6.5344,-6.5431,-6.5722,-6.5867,-6.5489,-6.5083,-6.5548,-6.5344,-6.5025,-6.5199,-6.546,-6.5664,-6.5489,-6.5577,-6.5577,-6.5083,-6.5489,-6.5867,-6.5722,-6.5954,-6.6128,-6.5954,-6.6215,-6.6767,-6.7725,-6.8015,-6.8276,-6.877,-6.8276,-6.787,-6.787,-6.7434,-6.7347,-6.7841,-6.8015,-6.8334,-6.8799,-6.8828,-6.8828,-6.8828,-6.8828,-6.8828,-6.8828,-6.8828,-6.8828,-6.8828,-6.8828,-6.8828,-6.8828,-6.8828,-6.8828,0.0,0.0,0.0,0.0,0.0,0.0,0.0,0.0,0.0,0.0,0.0,0.0,0.0,0.0,0.0,0.0,0.0,0.0,0.0,0.0,0.0,0.0,0.0,0.0,0.0,0.0,0.0,0.0,0.0,-6.1284,-6.1554,-6.1613,-6.1732,-6.2116,-6.2439,-6.2615,-6.2615,-6.2905,-6.2905,-6.2556,-6.2905,-6.2526,-6.1613,-6.2586,-6.3051,-6.3051,-6.308,-6.3457,-6.4033,-6.4735,-6.4996,-6.4996,-6.4996,-6.4996,-6.4996,-6.4996,-6.4996,-6.4996,-6.4996,-6.4996,-6.5141,-6.5693,-6.5489,-6.5141,-6.5751,-6.5489,-6.4996,-6.5025,-6.4996,-6.5112,-6.5722,-6.546,-6.5315,-6.6506,-6.5896,-6.5025,-6.4996,-6.5489,-6.5751,-6.5141,-6.6012,-6.6651,-6.6041,-6.697,-6.7812,-6.787,-6.8392,-6.877,-6.8828,-6.8276,-6.787,-6.787,-6.7841,-6.7841,-6.787,-6.8421,-6.8799,-6.8828,-6.8828,-6.8828,-6.8828,-6.8828,-6.8828,-6.8828,-6.8828,-6.8828,-6.8828,-6.8828,-6.8828,-6.8828,-6.8828,-6.8828,0.0,0.0,0.0,0.0,0.0,0.0,0.0,0.0,0.0,0.0,0.0,0.0,0.0,0.0,0.0,0.0,0.0,0.0,0.0,0.0,0.0,0.0,0.0,0.0,0.0,0.0,0.0,0.0,0.0,0.0,-6.1613,-6.1791,-6.2057,-6.2439,-6.2556,-6.2673,-6.2905,-6.2847,-6.2731,-6.2615,-6.3293,-6.3326,-6.2556,-6.3353,-6.3847,-6.4002,-6.3752,-6.4067,-6.4677,-6.488,-6.4996,-6.4996,-6.4996,-6.4996,-6.4996,-6.4996,-6.4996,-6.4996,-6.4996,-6.5257,-6.5577,-6.5373,-6.546,-6.5577,-6.5373,-6.517,-6.4996,-6.4996,-6.5286,-6.5635,-6.5867,-6.607,-6.6215,-6.6273,-6.5606,-6.4996,-6.4996,-6.517,-6.5489,-6.6099,-6.6244,-6.6476,-6.7086,-6.758,-6.8015,-6.8421,-6.8683,-6.8828,-6.8828,-6.8276,-6.8044,-6.845,-6.8131,-6.8044,-6.845,-6.8712,-6.8828,-6.8828,-6.8828,-6.8828,-6.8828,-6.8828,-6.8828,-6.8828,-6.8828,-6.8828,-6.8828,-6.8828,-6.8828,-6.8828,-6.8828,-6.8828,0.0,0.0,0.0,0.0,0.0,0.0,0.0,0.0,0.0,0.0,0.0,0.0,0.0,0.0,0.0,0.0,0.0,0.0,0.0,0.0,0.0,0.0,0.0,0.0,0.0,0.0,0.0,0.0,0.0,0.0,-6.1434,-6.1732,-6.2116,-6.2439,-6.2556,-6.285,-6.3292,-6.3175,-6.3148,-6.3386,-6.4038,-6.407,-6.3623,-6.4152,-6.4438,-6.4476,-6.4396,-6.459,-6.4996,-6.4996,-6.4996,-6.4996,-6.4996,-6.4996,-6.4996,-6.4996,-6.4996,-6.4996,-6.4996,-6.5257,-6.5548,-6.5112,-6.5257,-6.5519,-6.5112,-6.5141,-6.5315,-6.5315,-6.5751,-6.6244,-6.6244,-6.6418,-6.6389,-6.5751,-6.5286,-6.5054,-6.5257,-6.5315,-6.5548,-6.6389,-6.6564,-6.6854,-6.7725,-6.8073,-6.8334,-6.877,-6.8828,-6.8828,-6.8828,-6.845,-6.8363,-6.877,-6.845,-6.8363,-6.8799,-6.8828,-6.8828,-6.8828,-6.8828,-6.8915,-6.9147,-6.8944,-6.9031,-6.9466,-6.9263,-6.9147,-6.9147,-6.8944,-6.8828,-6.8828,-6.8828,-6.8828,0.0,0.0,0.0,0.0,0.0,0.0,0.0,0.0,0.0,0.0,0.0,0.0,0.0,0.0,0.0,0.0,0.0,0.0,0.0,0.0,0.0,0.0,0.0,0.0,0.0,0.0,0.0,0.0,0.0,-6.1494,-6.1253,-6.1494,-6.1791,-6.2116,-6.2439,-6.2912,-6.3565,-6.3801,-6.4306,-6.4964,-6.4994,-6.4845,-6.4575,-6.4924,-6.4849,-6.4568,-6.4833,-6.4996,-6.4996,-6.4996,-6.4996,-6.4996,-6.4996,-6.4996,-6.4996,-6.4996,-6.4996,-6.4996,-6.4996,-6.4996,-6.4996,-6.4996,-6.4996,-6.4996,-6.4996,-6.546,-6.5925,-6.5889,-6.6418,-6.6883,-6.6854,-6.6389,-6.578,-6.5141,-6.4996,-6.5199,-6.5809,-6.5889,-6.5983,-6.5983,-6.6999,-6.7899,-6.7899,-6.8421,-6.8828,-6.8828,-6.8828,-6.8828,-6.8828,-6.8828,-6.8828,-6.8828,-6.8828,-6.8828,-6.8828,-6.8828,-6.8857,-6.8857,-6.8886,-6.9147,-6.9786,-6.9205,-6.9466,-7.0686,-7.0105,-6.9815,-6.9815,-6.9176,-6.8857,-6.8828,-6.8857,-6.8857,-5.7641,0.0,0.0,0.0,0.0,0.0,0.0,0.0,0.0,0.0,0.0,0.0,0.0,0.0,0.0,0.0,0.0,0.0,0.0,0.0,0.0,0.0,0.0,0.0,0.0,0.0,0.0,0.0,-6.1791,-6.1791,-6.1494,-6.1998,-6.2351,-6.2498,-6.2789,-6.3053,-6.3232,-6.3348,-6.3438,-6.3617,-6.4575,-6.4845,-6.4545,-6.5335,-6.568,-6.5555,-6.5163,-6.5158,-6.5348,-6.5124,-6.4996,-6.4996,-6.4996,-6.4996,-6.4996,-6.4996,-6.4996,-6.4996,-6.4996,-6.4996,-6.4996,-6.4996,-6.4996,-6.5083,-6.5519,-6.5809,-6.6012,-6.6476,-6.6738,-6.6767,-6.6302,-6.607,-6.578,-6.5141,-6.5344,-6.5722,-6.5896,-6.668,-6.7347,-6.7347,-6.7638,-6.8015,-6.8479,-6.8712,-6.8828,-6.8828,-6.8828,-6.8828,-6.8828,-6.8828,-6.8828,-6.8828,-6.8828,-6.8828,-6.8828,-6.9234,-6.9525,-6.9525,-6.9931,-7.0279,-7.0453,-7.0279,-7.0366,-7.0715,-7.0541,-7.0453,-7.0453,-6.9815,-6.9263,-6.8828,-6.9292,-6.9525,0.0,0.0,0.0,0.0,0.0,0.0,0.0,0.0,0.0,0.0,0.0,0.0,0.0,0.0,0.0,0.0,0.0,0.0,0.0,0.0,0.0,0.0,0.0,0.0,0.0,0.0,0.0,-6.2057,-6.2057,-6.2116,-6.2057,-6.2351,-6.2615,-6.2615,-6.2905,-6.3141,-6.3323,-6.341,-6.3737,-6.4306,-6.4784,-6.4964,-6.4931,-6.5099,-6.5297,-6.5345,-6.478,-6.4716,-6.4843,-6.4653,-6.4764,-6.4996,-6.4996,-6.4822,-6.4619,-6.488,-6.4822,-6.4619,-6.488,-6.4996,-6.5025,-6.5286,-6.5373,-6.5489,-6.6128,-6.6535,-6.6767,-6.6854,-6.668,-6.6389,-6.6012,-6.5925,-6.5838,-6.546,-6.5867,-6.6389,-6.668,-6.7347,-6.787,-6.787,-6.8102,-6.8392,-6.877,-6.8828,-6.8828,-6.8828,-6.8828,-6.8828,-6.8828,-6.8828,-6.8828,-6.8828,-6.8828,-6.8944,-6.9205,-6.9554,-6.9902,-7.0163,-7.0512,-7.0831,-7.1092,-7.086,-7.0976,-7.1498,-7.1266,-7.1121,-7.1121,-7.0482,-6.996,-6.9612,-6.9989,-7.0163,0.0,0.0,0.0,0.0,0.0,0.0,0.0,0.0,0.0,0.0,0.0,0.0,0.0,0.0,0.0,0.0,0.0,0.0,0.0,0.0,0.0,0.0,0.0,0.0,0.0,-6.2129,-6.2789,-6.2615,-6.2292,-6.2234,-6.2556,-6.2556,-6.2615,-6.2615,-6.2905,-6.3232,-6.3535,-6.3859,-6.4605,-6.5772,-6.5203,-6.5083,-6.5347,-6.4449,-6.4203,-6.4422,-6.4047,-6.3922,-6.3922,-6.3922,-6.427,-6.4764,-6.4764,-6.4473,-6.4033,-6.4677,-6.4619,-6.4265,-6.488,-6.5141,-6.5286,-6.5867,-6.6041,-6.6157,-6.6796,-6.7347,-6.7638,-6.697,-6.636,-6.5925,-6.5925,-6.5925,-6.5889,-6.6012,-6.6535,-6.7144,-6.7754,-6.7928,-6.7986,-6.7986,-6.845,-6.8828,-6.8828,-6.8828,-6.8828,-6.8828,-6.8828,-6.8828,-6.8828,-6.8886,-6.8944,-6.8944,-6.9002,-6.9263,-6.9844,-6.9931,-7.0221,-7.0802,-7.0889,-7.1179,-7.176,-7.1237,-7.1469,-7.2602,-7.205,-7.1789,-7.1789,-7.1063,-7.0715,-7.0715,-7.0802,-7.0831,0.0,0.0,0.0,0.0,0.0,0.0,0.0,0.0,0.0,0.0,0.0,0.0,0.0,0.0,0.0,0.0,0.0,0.0,0.0,0.0,0.0,0.0,0.0,0.0,0.0,-6.3001,-6.3815,-6.2673,-6.2292,-6.2116,-6.2175,-6.2439,-6.2615,-6.2615,-6.2905,-6.3139,-6.32,-6.3737,-6.4126,-6.4395,-6.4606,-6.4665,-6.4694,-6.397,-6.3906,-6.4146,-6.3531,-6.3469,-6.3626,-6.3407,-6.3341,-6.3457,-6.3457,-6.369,-6.4004,-6.4183,-6.4793,-6.5577,-6.5693,-6.6099,-6.6535,-6.6651,-6.668,-6.6825,-6.7492,-6.7405,-6.6941,-6.6302,-6.6012,-6.5925,-6.5925,-6.5925,-6.607,-6.6564,-6.7202,-6.7725,-6.7841,-6.8276,-6.8625,-6.8625,-6.8741,-6.8828,-6.8828,-6.8828,-6.8828,-6.8828,-6.8828,-6.8828,-6.8828,-6.9263,-6.9583,-6.9583,-7.0047,-7.0395,-7.0512,-7.1005,-7.1353,-7.1469,-7.1963,-7.2311,-7.2427,-7.2311,-7.2369,-7.2602,-7.2485,-7.2427,-7.2427,-7.1266,-7.0715,-7.0744,-7.1237,-7.1469,0.0,0.0,0.0,-5.7243,0.0,0.0,0.0,0.0,0.0,0.0,0.0,0.0,0.0,0.0,0.0,0.0,0.0,0.0,0.0,0.0,0.0,0.0,0.0,0.0,0.0,-6.4009,-6.4106,-6.3177,-6.2793,-6.2733,-6.303,-6.2938,-6.2847,-6.2847,-6.3021,-6.3228,-6.3528,-6.3857,-6.4097,-6.4278,-6.4278,-6.4159,-6.3771,-6.3176,-6.3025,-6.3348,-6.2983,-6.2832,-6.2861,-6.3211,-6.3029,-6.2703,-6.3661,-6.4038,-6.4091,-6.5112,-6.5664,-6.5983,-6.6302,-6.6622,-6.6941,-6.726,-6.7376,-6.7434,-6.7783,-6.7202,-6.6331,-6.6012,-6.5925,-6.5925,-6.5925,-6.6418,-6.6999,-6.7289,-6.787,-6.8363,-6.8363,-6.8596,-6.8828,-6.8828,-6.8828,-6.8828,-6.8828,-6.8828,-6.8944,-6.9263,-6.9292,-6.9408,-6.9728,-7.0047,-7.025,-7.025,-7.0541,-7.086,-7.1179,-7.1498,-7.1818,-7.2108,-7.2427,-7.2602,-7.2602,-7.2602,-7.2602,-7.2602,-7.2602,-7.2602,-7.2602,-7.1992,-7.1673,-7.1673,-7.1992,-7.2137,0.0,0.0,0.0,0.0,0.0,-5.7011,0.0,0.0,0.0,0.0,0.0,0.0,0.0,0.0,0.0,0.0,0.0,0.0,0.0,0.0,0.0,0.0,0.0,0.0,0.0,-6.4853,-6.4397,-6.3742,-6.3524,-6.3607,-6.3977,-6.3408,-6.3079,-6.3079,-6.3199,-6.3498,-6.4006,-6.4067,-6.4308,-6.4665,-6.4099,-6.3594,-6.3179,-6.2352,-6.2144,-6.2432,-6.2489,-6.2336,-6.2151,-6.3156,-6.3036,-6.2441,-6.4009,-6.4386,-6.4178,-6.5896,-6.636,-6.6215,-6.6854,-6.721,-6.7479,-6.7899,-6.7986,-6.787,-6.7725,-6.6854,-6.5896,-6.578,-6.5838,-6.5954,-6.607,-6.6999,-6.7899,-6.8044,-6.845,-6.8828,-6.8828,-6.8828,-6.8828,-6.8828,-6.8828,-6.8828,-6.8828,-6.8828,-6.9031,-6.967,-6.9786,-7.0018,-7.0628,-7.0831,-7.0889,-7.0889,-7.1005,-7.1295,-7.1818,-7.1847,-7.2079,-7.2573,-7.2602,-7.2602,-7.2602,-7.2602,-7.2602,-7.2602,-7.2602,-7.2602,-7.2602,-7.2602,-7.2602,-7.2602,-7.2602,-7.2602,0.0,0.0,0.0,0.0,-5.7243,0.0,0.0,0.0,0.0,0.0,0.0,0.0,0.0,0.0,0.0,0.0,0.0,0.0,0.0,0.0,0.0,0.0,0.0,0.0,0.0,0.0,-6.553,-6.4064,-6.4293,-6.4371,-6.4005,-6.3408,-6.3079,-6.3079,-6.3617,-6.3917,-6.4006,-6.4368,-6.4666,-6.4964,-6.3743,-6.3328,-6.3506,-6.2204,-6.1702,-6.1759,-6.2014,-6.2154,-6.2151,-6.288,-6.3113,-6.2993,-6.3225,-6.3603,-6.4062,-6.4909,-6.5867,-6.6854,-6.7522,-6.8332,-6.8998,-6.875,-6.8334,-6.7783,-6.7173,-6.6506,-6.5809,-6.5257,-6.5489,-6.607,-6.6622,-6.7318,-6.8015,-6.8596,-6.877,-6.8828,-6.8828,-6.8828,-6.8828,-6.8828,-6.8828,-6.8828,-6.8828,-6.8828,-6.9031,-6.967,-6.9786,-7.0018,-7.0628,-7.1208,-7.1557,-7.1557,-7.2079,-7.2427,-7.2485,-7.2515,-7.2544,-7.2602,-7.2602,-7.2602,-7.2602,-7.2602,-7.2602,-7.2602,-7.2602,-7.2602,-7.2602,-7.2602,-7.2602,-7.2602,-7.2602,-7.2602,0.0,0.0,0.0,0.0,0.0,0.0,-5.7442,0.0,-5.7276,0.0,0.0,0.0,0.0,0.0,0.0,0.0,0.0,0.0,0.0,0.0,0.0,0.0,0.0,0.0,0.0,0.0,0.0,0.0,0.0,-6.4483,-6.4005,-6.3767,-6.3617,-6.3617,-6.3857,-6.4366,-6.5144,-6.4964,-6.4785,-6.4785,-6.4627,-6.4317,-6.3755,-6.3526,-6.3353,-6.3237,-6.3053,-6.2858,-6.2732,-6.3557,-6.3943,-6.391,-6.4101,-6.4357,-6.4764,-6.6387,-6.7196,-6.7617,-6.839,-6.8864,-6.8972,-6.846,-6.8102,-6.7696,-6.6651,-6.6128,-6.5867,-6.5606,-6.5983,-6.6622,-6.7289,-6.7957,-6.8509,-6.877,-6.8828,-6.8828,-6.8828,-6.8828,-6.8828,-6.8828,-6.8828,-6.8828,-6.8828,-6.9118,-6.9583,-7.0221,-7.0628,-7.1092,-7.1731,-7.205,-7.2224,-7.2224,-7.2456,-7.2602,-7.2602,-7.2602,-7.2602,-7.2602,-7.2602,-7.2602,-7.2602,-7.2602,-7.2602,-7.2602,-7.2602,-7.2602,-7.2602,-7.2602,-7.2602,-7.2602,-7.2602,-7.2602,-6.2501,0.0,0.0,0.0,0.0,0.0,0.0,0.0,0.0,0.0,0.0,0.0,0.0,0.0,0.0,0.0,0.0,0.0,0.0,0.0,0.0,0.0,0.0,0.0,0.0,0.0,0.0,0.0,0.0,0.0,-6.4528,-6.45,-6.4327,-6.4006,-6.4186,-6.4755,-6.5742,-6.5144,-6.4875,-6.4872,-6.5059,-6.4828,-6.4288,-6.4613,-6.4567,-6.4158,-6.3911,-6.3681,-6.3462,-6.4729,-6.4993,-6.4706,-6.5459,-6.5446,-6.5263,-6.7269,-6.7691,-6.7559,-6.8748,-6.8914,-6.8479,-6.8282,-6.7903,-6.7334,-6.6679,-6.6264,-6.6083,-6.6258,-6.6781,-6.7392,-6.782,-6.843,-6.8895,-6.8828,-6.8828,-6.8828,-6.8828,-6.8828,-6.8828,-6.8828,-6.8828,-6.8828,-6.8828,-6.935,-6.9989,-7.0628,-7.1266,-7.1905,-7.2544,-7.2602,-7.2602,-7.2602,-7.2602,-7.2602,-7.2602,-7.2602,-7.2602,-7.2602,-7.2602,-7.2602,-7.2602,-7.2602,-7.2602,-7.2602,-7.2602,-7.2602,-7.2602,-7.2602,-7.2602,-7.2602,-7.2602,-7.2602,0.0,0.0,0.0,-6.1251,0.0,0.0,0.0,0.0,-5.8833,0.0,0.0,0.0,0.0,0.0,0.0,0.0,0.0,0.0,0.0,0.0,0.0,0.0,0.0,0.0,0.0,0.0,0.0,0.0,0.0,0.0,-6.5775,-6.5693,-6.5216,-6.4065,-6.4635,-6.5024,-6.4994,-6.4755,-6.496,-6.5668,-6.4298,-6.424,-6.5273,-6.4783,-6.4275,-6.3635,-6.4217,-6.4293,-6.4164,-6.6306,-6.6357,-6.5192,-6.6971,-6.6634,-6.5141,-6.6447,-6.6535,-6.6273,-6.816,-6.8421,-6.8032,-6.8664,-6.7783,-6.6587,-6.7524,-6.7131,-6.6493,-6.7172,-6.7845,-6.8305,-6.8003,-6.8602,-6.9203,-6.8895,-6.8828,-6.8828,-6.8828,-6.8828,-6.8828,-6.8828,-6.8828,-6.8828,-6.8828,-6.935,-6.9989,-7.0628,-7.1266,-7.1905,-7.2544,-7.2602,-7.2602,-7.2602,-7.2602,-7.2602,-7.2602,-7.2602,-7.2602,-7.2602,-7.2602,-7.2602,-7.2602,-7.2602,-7.2602,-7.2602,-7.2602,-7.2602,-7.2602,-7.2602,-7.2602,-7.2602,-7.2602,-7.2602,0.0,0.0,-6.2484,-6.1985,0.0,0.0,0.0,0.0,0.0,0.0,0.0,0.0,0.0,0.0,0.0,0.0,0.0,0.0,0.0,0.0,0.0,0.0,0.0,0.0,0.0,0.0,0.0,0.0,0.0,0.0,0.0,-6.575,-6.5612,-6.5353,-6.5397,-6.5864,-6.6777,-6.6262,-6.6013,-6.6055,-6.5799,-6.5626,-6.5657,-6.6092,-6.5981,-6.5381,-6.5483,-6.5279,-6.5056,-6.5768,-6.5948,-6.5694,-6.6136,-6.651,-6.6846,-6.6921,-6.7462,-6.83,-6.9432,-6.9276,-6.851,-6.807,-6.7858,-6.7669,-6.7594,-6.7487,-6.7524,-6.7925,-6.8225,-6.8488,-6.8727,-6.9057,-6.9203,-6.8895,-6.8828,-6.8828,-6.8828,-6.8828,-6.8828,-6.8828,-6.8828,-6.8944,-6.9379,-6.9989,-7.0482,-7.0686,-7.1615,-7.2369,-7.2573,-7.2602,-7.2602,-7.2602,-7.2602,-7.2602,-7.2602,-7.2602,-7.2602,-7.2602,-7.2602,-7.2602,-7.2602,-7.2602,-7.2602,-7.2602,-7.2602,-7.2602,-7.2602,-7.2602,-7.2602,-7.2602,-7.2602,-7.2602,-6.2013,-6.2514,0.0,-6.2486,-6.2891,0.0,-6.2411,0.0,0.0,0.0,0.0,0.0,0.0,0.0,0.0,0.0,0.0,0.0,0.0,0.0,0.0,0.0,0.0,0.0,0.0,0.0,0.0,0.0,0.0,0.0,0.0,0.0,-6.5875,-6.6218,-6.588,-6.6216,-6.7354,-6.6924,-6.6564,-6.6392,-6.6436,-6.6442,-6.6473,-6.6789,-6.6733,-6.6371,-6.6112,-6.5882,-6.5727,-6.6695,-6.694,-6.6755,-6.7487,-6.7788,-6.7759,-6.7597,-6.8405,-6.9594,-6.9393,-6.902,-6.8641,-6.807,-6.8135,-6.8383,-6.8177,-6.8246,-6.8467,-6.87,-6.8811,-6.898,-6.8956,-6.9094,-6.9203,-6.8895,-6.8828,-6.8828,-6.8828,-6.9002,-6.9089,-6.8886,-6.9002,-6.9292,-6.9699,-7.0308,-7.0802,-7.1034,-7.1934,-7.2602,-7.2602,-7.2602,-7.2602,-7.2602,-7.2602,-7.2602,-7.2602,-7.2602,-7.2602,-7.2602,-7.2602,-7.2602,-7.2602,-7.2602,-7.2515,-7.2282,-7.2485,-7.2485,-7.2282,-7.2515,-7.2602,-7.2602,-7.2602,-7.2602]},{"header":{"parameterUnit":"m.s-1","parameterCategory":1,"la1":30.6,"la2":29.2853,"lo1":-89.7004,"lo2":-87.6739,"dx":0.0162,"dy":0.0183,"nx":112,"ny":82,"refTime":"2022-12-26T06:00:00:Z","depth":0,"parameterNumber":3,"parameterNumberName":"V-component_of_WINDS"},"data":[0.0,0.0,0.0,0.0,0.0,0.0,0.0,0.0,0.0,0.0,0.0,0.0,0.0,0.0,0.0,0.0,0.0,0.0,0.0,0.0,0.0,0.0,0.0,0.0,0.0,0.0,0.0,0.0,0.0,0.0,0.0,0.0,0.0,0.0,0.0,0.0,0.0,0.0,0.0,0.0,0.0,0.0,0.0,0.0,0.0,0.0,0.0,0.0,0.0,0.0,0.0,0.0,0.0,0.0,0.0,0.0,0.0,0.0,0.0,0.0,0.0,0.0,0.0,0.0,0.0,0.0,0.0,0.0,0.0,0.0,0.0,0.0,0.0,0.0,0.0,0.0,0.0,0.0,0.0,0.0,0.0,0.0,0.0,0.0,0.0,0.0,0.0,0.0,0.0,0.0,0.0,4.1275,4.1294,4.0921,4.0012,4.0397,3.9519,3.663,0.0,0.0,0.0,0.0,0.0,0.0,0.0,0.0,0.0,0.0,0.0,0.0,0.0,0.0,0.0,0.0,0.0,0.0,0.0,0.0,0.0,0.0,0.0,0.0,0.0,0.0,0.0,0.0,0.0,0.0,0.0,0.0,0.0,0.0,0.0,0.0,0.0,0.0,0.0,0.0,0.0,0.0,0.0,0.0,0.0,0.0,0.0,0.0,0.0,0.0,0.0,0.0,0.0,0.0,0.0,0.0,0.0,0.0,0.0,0.0,0.0,0.0,0.0,0.0,0.0,0.0,0.0,0.0,0.0,0.0,0.0,0.0,0.0,0.0,0.0,0.0,0.0,0.0,0.0,0.0,0.0,0.0,0.0,0.0,0.0,0.0,0.0,0.0,0.0,0.0,0.0,0.0,0.0,0.0,0.0,0.0,0.0,0.0,0.0,0.0,0.0,0.0,0.0,0.0,4.2268,4.382,4.4011,4.3763,4.3119,4.2824,4.141,3.8554,0.0,0.0,0.0,0.0,0.0,0.0,0.0,0.0,0.0,0.0,0.0,0.0,0.0,0.0,0.0,0.0,0.0,0.0,0.0,0.0,0.0,0.0,0.0,0.0,0.0,0.0,0.0,0.0,0.0,0.0,0.0,0.0,0.0,0.0,0.0,0.0,0.0,0.0,0.0,0.0,0.0,0.0,0.0,0.0,0.0,0.0,0.0,0.0,0.0,0.0,0.0,0.0,0.0,0.0,0.0,0.0,0.0,0.0,0.0,0.0,0.0,0.0,0.0,0.0,0.0,0.0,0.0,0.0,0.0,0.0,0.0,0.0,0.0,0.0,0.0,0.0,0.0,0.0,0.0,0.0,0.0,0.0,0.0,0.0,0.0,0.0,0.0,0.0,0.0,0.0,0.0,0.0,0.0,0.0,0.0,0.0,0.0,0.0,0.0,0.0,0.0,0.0,0.0,4.1891,4.3581,4.5363,4.4995,4.4576,4.4497,4.3689,4.2013,3.9194,3.8641,0.0,0.0,0.0,0.0,0.0,0.0,0.0,0.0,0.0,0.0,0.0,0.0,0.0,0.0,0.0,0.0,0.0,0.0,0.0,0.0,0.0,0.0,0.0,0.0,0.0,0.0,0.0,0.0,0.0,0.0,0.0,0.0,0.0,0.0,0.0,0.0,0.0,0.0,0.0,0.0,0.0,0.0,0.0,0.0,0.0,0.0,0.0,0.0,0.0,0.0,0.0,0.0,0.0,0.0,0.0,0.0,0.0,0.0,0.0,0.0,0.0,0.0,0.0,0.0,0.0,0.0,0.0,0.0,0.0,0.0,0.0,0.0,0.0,0.0,0.0,0.0,0.0,0.0,0.0,0.0,0.0,0.0,0.0,0.0,0.0,0.0,0.0,0.0,0.0,0.0,0.0,0.0,0.0,0.0,0.0,0.0,0.0,0.0,0.0,0.0,0.0,0.0,4.3878,4.4457,4.6541,4.5615,4.5052,4.5341,4.4356,4.2528,3.9689,3.9699,0.0,0.0,0.0,0.0,0.0,0.0,0.0,0.0,0.0,0.0,0.0,0.0,0.0,0.0,0.0,0.0,0.0,0.0,0.0,0.0,0.0,0.0,0.0,0.0,0.0,0.0,0.0,0.0,0.0,0.0,0.0,0.0,0.0,0.0,0.0,0.0,0.0,0.0,0.0,0.0,0.0,0.0,0.0,0.0,0.0,0.0,0.0,0.0,0.0,0.0,0.0,0.0,0.0,0.0,0.0,0.0,0.0,0.0,0.0,0.0,0.0,0.0,0.0,0.0,0.0,0.0,0.0,0.0,0.0,0.0,0.0,0.0,0.0,0.0,0.0,0.0,0.0,0.0,0.0,0.0,0.0,0.0,0.0,0.0,0.0,0.0,0.0,0.0,0.0,0.0,0.0,0.0,0.0,0.0,0.0,0.0,0.0,0.0,0.0,0.0,0.0,0.0,4.4086,4.4605,4.7684,4.6645,4.5926,4.6301,4.5226,4.3409,4.0568,4.044,0.0,0.0,0.0,0.0,0.0,0.0,0.0,0.0,0.0,0.0,0.0,0.0,0.0,0.0,0.0,0.0,0.0,0.0,0.0,0.0,0.0,0.0,0.0,0.0,0.0,0.0,0.0,0.0,0.0,0.0,0.0,0.0,0.0,0.0,0.0,0.0,0.0,0.0,0.0,0.0,0.0,0.0,0.0,0.0,0.0,0.0,0.0,0.0,0.0,0.0,0.0,0.0,0.0,0.0,0.0,0.0,0.0,0.0,0.0,0.0,0.0,0.0,0.0,0.0,0.0,0.0,0.0,0.0,0.0,0.0,0.0,0.0,0.0,0.0,0.0,0.0,0.0,0.0,0.0,0.0,0.0,0.0,0.0,0.0,0.0,0.0,0.0,0.0,0.0,0.0,0.0,0.0,0.0,0.0,0.0,0.0,0.0,0.0,0.0,0.0,0.0,0.0,4.4423,4.4863,0.0,4.6959,4.6353,4.6618,4.5644,4.3916,4.1441,0.0,0.0,0.0,0.0,0.0,0.0,0.0,0.0,0.0,0.0,0.0,0.0,0.0,0.0,0.0,0.0,0.0,0.0,0.0,0.0,0.0,0.0,0.0,0.0,0.0,0.0,0.0,0.0,0.0,0.0,0.0,0.0,0.0,0.0,0.0,0.0,0.0,0.0,0.0,0.0,0.0,0.0,0.0,0.0,0.0,0.0,0.0,0.0,0.0,0.0,0.0,0.0,0.0,0.0,0.0,0.0,0.0,0.0,0.0,0.0,0.0,0.0,0.0,0.0,0.0,0.0,0.0,0.0,0.0,0.0,0.0,0.0,0.0,0.0,0.0,0.0,0.0,0.0,0.0,0.0,0.0,0.0,0.0,0.0,0.0,0.0,0.0,0.0,0.0,0.0,0.0,0.0,0.0,0.0,0.0,0.0,0.0,0.0,0.0,0.0,0.0,0.0,4.5196,4.4656,4.5145,0.0,4.7313,4.6721,4.7224,4.6087,4.4424,4.232,0.0,0.0,0.0,0.0,0.0,0.0,0.0,0.0,0.0,0.0,0.0,0.0,0.0,0.0,0.0,0.0,0.0,0.0,0.0,0.0,0.0,0.0,0.0,0.0,0.0,0.0,0.0,0.0,0.0,0.0,0.0,0.0,0.0,0.0,0.0,0.0,0.0,0.0,0.0,0.0,0.0,0.0,0.0,0.0,0.0,0.0,0.0,0.0,0.0,0.0,0.0,0.0,0.0,0.0,0.0,0.0,0.0,0.0,0.0,0.0,0.0,0.0,0.0,0.0,0.0,0.0,0.0,0.0,0.0,0.0,0.0,0.0,0.0,0.0,0.0,0.0,0.0,0.0,0.0,0.0,0.0,0.0,0.0,0.0,0.0,0.0,0.0,0.0,0.0,0.0,0.0,0.0,0.0,0.0,0.0,0.0,0.0,0.0,0.0,0.0,0.0,0.0,4.4989,4.4675,4.5538,4.8747,4.7808,4.725,4.812,4.6604,4.485,0.0,0.0,0.0,0.0,0.0,0.0,0.0,0.0,0.0,0.0,0.0,0.0,0.0,0.0,0.0,0.0,0.0,0.0,0.0,0.0,0.0,0.0,0.0,0.0,0.0,0.0,0.0,0.0,0.0,0.0,0.0,0.0,0.0,0.0,0.0,0.0,0.0,0.0,0.0,0.0,0.0,0.0,0.0,0.0,0.0,0.0,0.0,0.0,0.0,0.0,0.0,0.0,0.0,0.0,0.0,0.0,0.0,0.0,0.0,0.0,0.0,0.0,0.0,0.0,0.0,0.0,0.0,0.0,0.0,0.0,0.0,0.0,0.0,0.0,0.0,0.0,0.0,0.0,0.0,0.0,0.0,0.0,0.0,0.0,0.0,0.0,0.0,0.0,0.0,0.0,0.0,0.0,0.0,0.0,0.0,0.0,0.0,0.0,0.0,0.0,0.0,0.0,0.0,4.5288,4.5314,4.5891,4.7618,4.7853,4.7716,4.7597,4.6761,4.5846,4.4905,0.0,0.0,0.0,0.0,0.0,0.0,0.0,0.0,0.0,0.0,0.0,0.0,0.0,0.0,0.0,0.0,0.0,0.0,0.0,0.0,0.0,0.0,0.0,0.0,0.0,0.0,0.0,0.0,0.0,0.0,0.0,0.0,0.0,0.0,0.0,0.0,0.0,0.0,0.0,0.0,0.0,0.0,0.0,0.0,0.0,0.0,0.0,0.0,0.0,0.0,0.0,0.0,0.0,0.0,0.0,0.0,0.0,0.0,0.0,0.0,0.0,0.0,0.0,0.0,0.0,0.0,0.0,0.0,0.0,0.0,0.0,0.0,0.0,0.0,0.0,0.0,0.0,0.0,0.0,0.0,0.0,0.0,0.0,0.0,0.0,0.0,0.0,0.0,0.0,0.0,0.0,0.0,0.0,0.0,0.0,0.0,0.0,0.0,0.0,0.0,0.0,0.0,4.5114,4.548,4.6159,4.7519,4.778,4.7806,4.7675,4.6944,4.6238,4.5663,0.0,0.0,0.0,0.0,0.0,0.0,0.0,0.0,0.0,0.0,0.0,0.0,0.0,0.0,0.0,0.0,0.0,0.0,0.0,0.0,0.0,0.0,0.0,0.0,0.0,0.0,0.0,0.0,0.0,0.0,0.0,0.0,0.0,0.0,0.0,0.0,0.0,0.0,0.0,0.0,0.0,0.0,0.0,0.0,0.0,0.0,0.0,0.0,0.0,0.0,0.0,0.0,0.0,0.0,0.0,0.0,0.0,0.0,0.0,0.0,0.0,0.0,0.0,0.0,0.0,0.0,0.0,0.0,0.0,0.0,0.0,0.0,0.0,0.0,0.0,0.0,0.0,0.0,0.0,0.0,0.0,0.0,0.0,0.0,0.0,0.0,0.0,0.0,0.0,0.0,0.0,0.0,0.0,0.0,0.0,0.0,0.0,0.0,0.0,0.0,0.0,0.0,4.467,4.5323,4.6316,4.7937,4.7702,4.7623,4.8146,4.7179,4.6369,4.5898,0.0,0.0,0.0,0.0,0.0,0.0,0.0,0.0,0.0,0.0,0.0,0.0,0.0,0.0,0.0,0.0,0.0,0.0,0.0,0.0,0.0,0.0,0.0,0.0,0.0,0.0,0.0,0.0,0.0,0.0,0.0,0.0,0.0,0.0,0.0,0.0,0.0,0.0,0.0,0.0,0.0,0.0,0.0,0.0,0.0,0.0,0.0,0.0,0.0,0.0,0.0,0.0,0.0,0.0,0.0,0.0,0.0,0.0,0.0,0.0,3.8692,0.0,0.0,0.0,0.0,0.0,0.0,0.0,0.0,0.0,0.0,0.0,0.0,0.0,0.0,0.0,0.0,0.0,0.0,0.0,0.0,0.0,0.0,0.0,0.0,0.0,0.0,0.0,0.0,0.0,0.0,0.0,0.0,0.0,0.0,0.0,0.0,0.0,0.0,0.0,0.0,0.0,4.5297,4.595,4.6604,4.744,4.7806,4.8041,4.8172,4.7545,4.7283,4.7623,4.5924,0.0,0.0,0.0,0.0,0.0,0.0,0.0,0.0,0.0,0.0,0.0,0.0,0.0,0.0,0.0,0.0,0.0,0.0,0.0,0.0,0.0,0.0,0.0,0.0,0.0,0.0,0.0,0.0,0.0,0.0,0.0,0.0,0.0,0.0,0.0,0.0,0.0,0.0,0.0,0.0,0.0,0.0,0.0,0.0,0.0,0.0,0.0,0.0,0.0,0.0,0.0,0.0,0.0,0.0,0.0,0.0,0.0,0.0,0.0,0.0,4.0072,0.0,0.0,0.0,0.0,0.0,0.0,0.0,0.0,0.0,0.0,0.0,0.0,0.0,0.0,0.0,0.0,0.0,0.0,0.0,0.0,0.0,0.0,0.0,0.0,0.0,0.0,0.0,0.0,0.0,0.0,0.0,0.0,0.0,0.0,0.0,0.0,0.0,0.0,0.0,0.0,4.5506,4.6369,4.7231,4.8094,4.8433,4.8721,4.8982,4.8486,4.8172,4.8172,4.7048,0.0,0.0,0.0,0.0,0.0,0.0,0.0,0.0,0.0,0.0,0.0,0.0,0.0,0.0,0.0,0.0,0.0,0.0,0.0,0.0,0.0,0.0,0.0,0.0,0.0,0.0,0.0,0.0,0.0,0.0,0.0,0.0,0.0,0.0,0.0,0.0,0.0,0.0,0.0,0.0,0.0,0.0,0.0,0.0,0.0,0.0,0.0,0.0,0.0,0.0,0.0,0.0,0.0,3.9654,3.9913,3.9913,3.9913,3.9965,4.0095,4.0514,4.1089,4.1716,0.0,0.0,0.0,0.0,0.0,0.0,0.0,0.0,0.0,0.0,0.0,0.0,0.0,0.0,0.0,0.0,0.0,0.0,0.0,0.0,0.0,0.0,0.0,0.0,0.0,4.4891,4.4785,0.0,0.0,0.0,0.0,0.0,0.0,0.0,0.0,0.0,0.0,0.0,0.0,4.5846,4.6704,4.778,4.8956,4.9087,4.9296,4.9845,4.9479,4.9008,4.8512,4.8303,4.7336,0.0,0.0,0.0,0.0,0.0,0.0,0.0,0.0,0.0,0.0,0.0,0.0,0.0,0.0,0.0,0.0,0.0,0.0,0.0,0.0,0.0,0.0,0.0,0.0,0.0,0.0,0.0,0.0,0.0,0.0,0.0,0.0,3.3738,3.34,0.0,0.0,0.0,0.0,0.0,0.0,0.0,0.0,0.0,0.0,0.0,0.0,0.0,3.9117,3.9243,3.9881,4.0164,4.0213,4.083,4.1089,4.1089,4.1089,4.135,4.1847,4.1899,0.0,4.0043,4.1481,0.0,0.0,0.0,0.0,0.0,0.0,0.0,0.0,0.0,0.0,0.0,0.0,0.0,0.0,0.0,0.0,0.0,0.0,0.0,0.0,0.0,0.0,4.7912,4.8945,4.8802,4.8124,0.0,4.5395,4.3938,4.3781,4.3833,0.0,0.0,0.0,0.0,0.0,0.0,0.0,4.6913,4.7174,4.778,4.8956,4.9087,4.9296,4.9845,4.9819,4.974,4.9662,4.8721,4.8041,4.7728,4.6447,0.0,0.0,0.0,0.0,0.0,0.0,0.0,0.0,0.0,0.0,0.0,0.0,0.0,0.0,0.0,0.0,0.0,0.0,0.0,0.0,0.0,0.0,0.0,0.0,0.0,0.0,0.0,0.0,0.0,3.4369,3.4621,3.5517,3.5194,3.507,0.0,0.0,0.0,0.0,0.0,0.0,0.0,0.0,0.0,3.9135,4.0063,4.0723,4.1036,4.1611,4.1873,4.1873,4.216,4.2265,4.2265,4.2265,4.2422,4.2657,4.2657,4.2213,4.1585,4.2343,4.2343,4.1951,0.0,0.0,0.0,0.0,4.3496,4.3677,4.4443,4.5293,0.0,4.5669,0.0,0.0,0.0,0.0,0.0,0.0,0.0,0.0,0.0,0.0,0.0,4.9892,4.9808,4.9591,4.9373,4.8314,4.6939,0.0,4.5102,4.5069,4.5769,0.0,0.0,0.0,0.0,0.0,4.7226,4.7911,4.8643,4.9453,4.9845,5.0263,5.0812,5.0577,5.0394,5.0394,4.961,4.8852,4.8224,4.7466,4.6499,0.0,0.0,0.0,0.0,0.0,0.0,0.0,0.0,0.0,0.0,0.0,0.0,0.0,0.0,0.0,0.0,0.0,0.0,0.0,0.0,0.0,0.0,0.0,0.0,0.0,0.0,0.0,0.0,3.5669,3.5962,3.7543,3.707,3.6945,0.0,0.0,0.0,0.0,0.0,0.0,3.9808,3.9965,4.0305,4.0853,4.1298,4.1821,4.2369,4.2814,4.3023,4.3023,4.3023,4.3023,4.3023,4.3023,4.3023,4.3023,4.318,4.3337,4.3441,4.331,4.3232,4.3258,4.3703,4.386,4.3964,4.4796,4.5445,4.6008,4.6413,4.7108,4.7786,4.7398,0.0,4.7292,4.7587,0.0,0.0,0.0,0.0,4.9449,5.0383,5.0978,5.1379,5.1551,5.1694,5.1785,5.1583,5.1474,5.0646,0.0,4.7136,4.7001,4.7914,0.0,0.0,0.0,0.0,4.8421,4.7628,4.8726,4.9627,4.9879,5.042,5.1021,5.1544,5.123,5.0995,5.0995,5.0446,4.974,4.8878,4.8695,4.7885,4.6316,0.0,0.0,0.0,0.0,0.0,0.0,0.0,0.0,0.0,0.0,0.0,0.0,0.0,0.0,0.0,0.0,0.0,0.0,0.0,0.0,0.0,0.0,0.0,0.0,0.0,0.0,0.0,0.0,0.0,3.9013,3.931,0.0,0.0,0.0,0.0,3.9551,4.0047,4.0383,4.0383,4.0906,4.1481,4.2107,4.2159,4.2396,4.2971,4.2997,4.3023,4.3023,4.3023,4.3023,4.3023,4.3023,4.3023,4.3049,4.3598,4.4147,4.4537,4.4042,4.3833,4.4045,4.5605,4.624,4.6399,4.8041,4.9014,4.9571,4.9595,5.0668,5.185,5.0318,4.9836,4.9992,5.102,5.0961,0.0,0.0,5.1766,5.2639,5.4416,5.4908,5.5087,5.5765,5.631,5.611,5.3774,5.426,5.4252,0.0,5.0157,4.982,4.9872,0.0,5.093,4.9225,5.0934,5.1403,4.8548,4.9609,5.0515,4.9939,5.042,5.1021,5.1544,5.157,5.1544,5.1544,5.1047,5.0707,5.0655,5.0106,4.9244,4.8068,4.7519,0.0,0.0,0.0,0.0,0.0,0.0,0.0,0.0,0.0,0.0,0.0,0.0,0.0,0.0,0.0,0.0,0.0,0.0,0.0,0.0,0.0,0.0,0.0,0.0,0.0,0.0,0.0,0.0,4.0522,4.0647,0.0,4.0697,4.0697,4.0697,4.0697,4.1219,4.1533,4.1533,4.2108,4.25,4.2709,4.2709,4.2814,4.3023,4.3389,4.3572,4.3572,4.3938,4.4121,4.4121,4.4121,4.4121,4.4121,4.433,4.4748,4.5242,4.5088,4.5683,4.676,4.7325,4.8047,4.8865,5.0178,5.0736,5.104,5.175,5.2376,5.2802,5.2267,5.203,5.2129,5.2507,5.283,5.3106,5.3719,5.4353,5.5108,5.6123,5.6406,5.6466,5.6705,5.6944,5.6989,5.6509,5.6456,5.6291,5.5624,5.3809,5.262,5.3324,5.2866,5.2294,5.2101,5.1707,5.1222,5.0632,5.0664,5.0722,5.0507,5.0969,5.1387,5.157,5.1596,5.1596,5.1596,5.1413,5.1152,5.0812,5.0577,5.0106,4.9296,4.8898,4.8321,0.0,0.0,0.0,0.0,0.0,0.0,0.0,0.0,0.0,0.0,0.0,0.0,0.0,0.0,0.0,0.0,0.0,0.0,0.0,0.0,0.0,0.0,0.0,0.0,0.0,0.0,4.0863,4.1248,4.1481,4.1611,4.1611,4.1768,4.1899,4.1899,4.2239,4.2448,4.2448,4.2814,4.3101,4.331,4.331,4.3389,4.3598,4.3964,4.4173,4.4173,4.4647,4.4776,4.4722,4.4884,4.5154,4.5395,4.5793,4.6463,4.719,4.7538,4.86,5.0009,4.9085,4.9479,5.068,5.1728,5.2276,5.2641,5.3814,5.4192,5.4271,5.4431,5.4491,5.4491,5.4491,5.482,5.5269,5.5718,5.6137,5.6645,5.7274,5.7453,5.7453,5.7453,5.7603,5.7782,5.7782,5.7782,5.7842,5.8082,5.6338,5.5057,5.5845,5.5155,5.4555,5.4597,5.3838,5.3163,5.2779,5.2311,5.1864,5.1467,5.1504,5.1596,5.1596,5.1779,5.1727,5.1335,5.1492,5.1256,5.0524,5.0864,5.0786,5.0211,4.9936,4.9765,4.9706,0.0,0.0,0.0,0.0,0.0,0.0,0.0,0.0,0.0,0.0,0.0,0.0,0.0,0.0,0.0,0.0,0.0,0.0,0.0,0.0,0.0,0.0,0.0,4.092,4.0679,4.0697,4.1272,4.1847,4.2238,4.2238,4.2709,4.3023,4.3023,4.3049,4.3049,4.3049,4.3075,4.3337,4.3939,4.3885,4.4173,4.4668,4.4722,4.4722,4.4722,4.5072,4.5072,4.4722,4.5341,4.606,4.6846,4.8051,4.9214,5.0299,5.133,5.2509,5.3581,5.0957,5.0657,5.1837,5.2891,5.3683,5.4461,5.5718,5.6248,5.6286,5.6885,5.7094,5.7094,5.7094,5.7094,5.7124,5.7124,5.7154,5.7304,5.7992,5.8141,5.8141,5.8141,5.865,5.874,5.7423,5.8171,5.8919,5.8291,5.7603,5.7154,5.7154,5.7693,5.7737,5.6676,5.7385,0.0,5.497,5.4513,5.3937,5.2761,5.2032,5.157,5.1596,5.2119,5.1962,5.0864,5.1282,5.1073,4.9949,5.0969,5.1309,5.0786,5.0514,5.0611,5.097,0.0,0.0,0.0,0.0,0.0,0.0,0.0,0.0,0.0,0.0,0.0,0.0,0.0,0.0,0.0,0.0,0.0,0.0,0.0,0.0,0.0,0.0,4.1638,4.0676,4.1561,4.2213,4.1951,4.2448,4.2788,4.2788,4.2918,4.3023,4.3023,4.3415,4.3624,4.3624,4.4042,4.433,4.4487,4.4487,4.4565,4.4668,4.4964,4.5072,4.5072,4.5341,4.5448,4.5395,4.5981,4.6839,4.7815,4.8616,4.9808,5.1233,5.1522,5.2607,5.395,5.2822,5.3253,5.451,5.464,5.5059,5.5688,5.6047,5.6466,5.6855,5.7034,5.7094,5.7094,5.7094,5.7453,5.7842,5.7842,5.8171,5.859,5.88,5.883,5.883,5.883,5.8979,5.9009,5.862,5.883,5.9069,5.886,5.868,5.856,5.856,5.8321,5.8184,5.8308,5.7462,0.0,5.6532,5.487,5.3599,5.3326,5.1926,5.1178,5.157,5.1387,5.1126,5.0812,5.0943,5.0681,4.9923,5.0185,5.0411,5.0522,5.088,5.1406,0.0,0.0,0.0,0.0,0.0,0.0,0.0,0.0,0.0,0.0,0.0,0.0,0.0,0.0,0.0,0.0,0.0,0.0,0.0,0.0,0.0,0.0,4.2006,4.2004,4.1559,4.2369,4.2892,4.2579,4.3023,4.3389,4.3389,4.3598,4.3676,4.3676,4.4042,4.4225,4.4225,4.4539,4.4668,4.4668,4.4668,4.4668,4.4668,4.5018,4.518,4.518,4.5848,4.6062,4.5982,4.6839,4.8052,0.0,5.0065,5.1431,5.3192,5.3385,5.4095,0.0,0.0,0.0,0.0,0.0,5.5598,5.6248,5.6466,5.6974,5.7573,5.7842,5.7932,5.7932,5.7932,5.8231,5.853,5.853,5.88,5.9099,5.9099,5.9099,5.9099,5.9099,5.9099,5.9099,5.9099,5.9099,5.9099,5.9099,5.9099,0.0,5.9099,5.88,5.877,5.9428,5.8377,5.7731,5.8349,5.6451,5.5063,5.5063,5.3185,5.225,5.312,5.2139,0.0,0.0,0.0,5.0629,5.0289,5.0385,0.0,0.0,0.0,0.0,0.0,0.0,0.0,0.0,5.2051,5.1797,0.0,0.0,0.0,0.0,0.0,0.0,0.0,0.0,0.0,0.0,0.0,0.0,0.0,0.0,0.0,0.0,4.2657,4.2526,4.3049,4.318,4.318,4.3127,4.3624,4.3964,4.3964,4.4434,4.4668,4.4668,4.4668,4.4668,4.4668,0.0,0.0,0.0,0.0,4.4694,4.4826,4.5178,4.5366,4.5445,4.6544,4.6948,4.6757,4.7947,4.9512,5.1286,5.2075,5.3592,5.5534,5.5902,5.6225,5.6244,5.4654,5.4684,5.5581,5.528,5.5598,5.6308,5.6885,0.0,0.0,5.889,5.9099,5.9099,5.9099,5.9099,5.9099,5.9099,5.9099,5.9099,5.9099,5.9099,5.9099,5.9099,5.9099,5.9099,5.9099,5.9099,5.9099,5.9099,5.9099,5.9099,5.9099,5.9099,5.9308,5.9877,5.9488,5.9308,5.9907,5.8379,5.7187,5.7187,0.0,0.0,5.5091,5.3516,5.2306,5.1701,5.1009,5.0664,5.0638,5.0943,5.1654,5.2754,5.3406,5.3501,5.3044,5.343,5.364,5.364,5.301,5.2299,0.0,0.0,0.0,0.0,0.0,0.0,0.0,0.0,0.0,0.0,0.0,0.0,0.0,0.0,0.0,4.3127,4.331,4.3625,4.3702,4.4095,4.4225,4.3755,4.4225,4.4565,4.4565,4.467,4.4668,4.4668,4.4668,4.4668,4.4668,4.4668,0.0,4.4668,4.4668,4.4903,4.5399,4.5975,4.6486,4.6992,0.0,0.0,4.792,4.9551,5.1031,5.231,5.3824,5.526,5.6528,5.6603,5.6567,5.6372,5.58,5.5551,5.5581,5.528,5.5598,5.6308,5.6885,5.7543,5.8231,5.889,5.9099,5.9099,5.9099,5.9099,0.0,5.9099,5.9099,5.9099,5.9099,5.9099,5.9099,5.9099,5.9099,5.9099,5.9099,5.9099,5.9099,5.9099,5.9099,5.9099,5.9099,5.9099,5.9159,5.9279,5.9189,5.9159,5.9279,5.8059,5.7187,5.7187,5.5481,5.4182,5.3877,5.3064,5.2138,5.1031,5.0206,4.9732,4.9792,4.9825,5.0379,5.1628,5.1777,5.212,5.2738,5.3219,5.3645,5.3928,5.3565,5.3335,0.0,0.0,0.0,0.0,0.0,0.0,0.0,0.0,0.0,0.0,0.0,4.4304,0.0,0.0,4.3807,4.3493,4.3676,4.3964,4.4251,4.4539,4.4617,4.433,4.4565,4.4668,4.4668,4.4668,4.4668,4.4668,4.4668,4.4668,4.4668,4.4668,4.4853,4.5111,4.5111,4.5454,4.6055,4.6473,4.6964,4.7393,4.84,4.9281,5.0021,5.154,5.3131,5.4849,5.5722,5.6769,5.7826,5.7826,5.7728,5.758,5.7181,5.6505,5.5811,5.5872,5.6281,5.6951,5.7805,5.8321,5.871,5.9368,5.9368,5.9099,5.9099,5.9099,5.9099,5.9099,5.9099,5.9099,5.9099,5.9099,5.9099,5.9099,5.9099,5.9099,5.9099,5.9099,5.9099,5.9099,5.9099,5.9099,5.9099,5.9099,5.9099,5.9099,5.9099,5.9099,5.9099,5.858,5.8136,5.8136,5.625,5.5046,5.5327,5.3437,5.1782,5.0883,4.9546,4.9245,5.0112,5.0319,5.0933,5.2094,5.2598,5.2988,5.3467,5.3976,5.4324,5.4423,5.4526,5.4426,0.0,0.0,0.0,0.0,0.0,0.0,0.0,0.0,4.5767,4.5604,4.519,4.4748,4.4304,4.3833,4.365,4.399,4.4042,4.4199,4.467,4.4668,4.4668,4.4668,4.4668,4.4668,4.4668,4.4668,4.4668,4.4668,4.4668,4.4668,4.4668,4.4826,4.5114,4.5555,4.5741,4.6055,4.663,4.7017,4.743,4.7844,4.9167,5.0449,5.1655,5.3107,5.4809,5.6667,5.7191,5.7973,5.8793,5.8793,5.8793,5.8693,5.8288,5.7365,5.6384,5.6596,5.6985,5.7565,5.8554,5.8919,5.9009,5.9668,5.9548,5.9099,5.9099,5.9099,5.9099,5.9099,5.9099,5.9099,5.9099,5.9099,5.9099,5.9099,5.9099,5.9099,5.9099,5.9099,5.9099,5.9099,5.9099,5.9099,5.9099,5.9099,5.9099,5.9099,5.9099,5.9099,5.9099,5.9099,5.8991,5.8743,5.7189,5.6308,5.6821,5.3705,5.1489,5.0821,4.9617,4.9599,5.1014,5.1417,5.2094,5.3123,5.379,5.4156,5.4219,5.4607,5.4788,5.4851,5.5239,5.5249,4.4618,0.0,0.0,4.4965,4.5106,4.5151,0.0,0.0,4.5356,4.5581,4.5584,4.5451,4.5454,4.5375,4.5192,4.4696,4.4643,4.4643,4.4668,4.4668,4.4668,4.4668,4.4668,4.4668,4.4668,4.4668,4.4668,4.4668,4.4668,4.4668,4.4668,4.5245,4.5558,4.5581,4.6107,4.6656,4.7231,4.8042,4.8774,4.9276,5.0233,5.0789,5.0998,5.3247,5.4589,5.5163,5.7583,5.8662,5.8793,5.8793,5.8693,5.841,5.839,5.8065,5.7637,5.7182,5.7086,5.7266,5.7962,5.8231,5.8351,5.9009,5.9159,5.9099,5.9099,5.9099,5.9099,5.9099,5.9099,5.9099,5.9099,5.9099,5.9099,5.9099,5.9099,5.9099,5.9099,5.9099,5.9099,5.9099,5.9099,5.9099,5.9099,5.9099,5.9099,5.9099,5.9099,5.9099,5.9099,5.9099,5.8689,5.7552,5.8166,5.7833,5.579,5.3133,5.1416,5.0812,5.132,5.1769,5.1953,5.248,5.3123,5.3666,5.3579,5.3632,5.3836,5.4104,5.4432,5.4719,5.5313,5.5321,4.5598,0.0,0.0,0.0,4.6849,4.7228,4.7541,4.7802,4.7794,4.7257,4.7127,4.6917,4.6238,4.6107,4.6029,0.0,4.5741,4.5741,4.5741,4.5741,4.5741,4.5741,4.5741,4.5611,4.5297,4.519,4.5401,4.5715,4.5741,4.5741,4.5741,4.5976,4.6264,4.6547,4.6839,4.7414,4.8355,4.8708,4.9305,5.0036,5.0737,5.1516,5.2439,5.3793,5.531,5.7034,5.9127,5.9963,5.9963,5.9809,5.9655,5.9551,5.9158,5.8949,5.8761,5.8159,5.7903,5.8053,5.8943,5.9009,5.88,5.9458,5.9428,5.9099,5.9099,5.9099,5.9099,5.9099,5.9099,5.9099,5.9099,5.9099,5.9099,5.9099,5.9099,5.9099,5.9099,5.9099,5.9099,5.9099,5.9099,5.9219,5.9608,5.9368,5.9249,5.9608,5.9338,5.8798,5.8081,5.8634,5.8331,5.6366,5.6594,5.5906,5.3362,5.2192,5.1648,5.1779,5.18,5.2098,5.2806,5.3095,5.3488,5.4013,5.4276,5.4433,5.4564,5.4866,5.5103,5.5261,5.5696,5.5669,4.6552,0.0,0.0,4.7841,4.8368,4.8928,4.9222,4.9481,4.9401,4.8381,4.8068,4.7702,4.6865,4.6578,4.6473,4.6473,4.6473,4.6473,4.6473,4.6473,4.6473,4.6473,4.6473,4.6369,4.6133,4.595,4.6029,4.6447,4.663,4.6708,4.6708,4.7022,4.7388,4.7806,4.7963,4.846,4.9296,4.9479,4.9887,5.0522,5.1101,5.1922,5.3011,5.4252,5.6251,5.8817,6.0031,6.0586,6.0534,6.0407,6.0219,6.0114,5.969,5.9476,5.9308,5.8828,5.8647,5.8797,5.9542,5.9518,5.9189,5.9668,5.9488,5.9099,5.9099,5.9099,5.9099,5.9099,5.9099,5.9099,5.9099,5.9099,5.9099,5.9099,5.9099,5.9099,5.9099,5.9099,5.9159,5.9338,5.9368,5.9578,6.0266,5.9967,5.9757,6.0027,5.9668,5.8952,5.7889,5.7915,5.7526,5.6021,5.5141,5.3997,5.2492,5.2177,5.2276,5.272,5.2485,5.272,5.3583,5.3792,5.4053,5.4445,5.4889,5.5099,5.5099,5.5365,5.5498,5.5472,5.5802,5.5882,0.0,0.0,4.8528,4.8774,4.9142,4.9352,4.9158,4.9113,4.893,4.8303,4.7728,4.7304,4.7252,4.6865,4.6473,4.6473,4.6473,4.6473,4.6473,4.6473,4.6473,4.6473,4.6473,4.6682,0.0,4.6787,4.6447,4.6473,4.6996,4.7252,4.7252,4.8381,4.9008,4.9035,4.9531,4.9819,4.9871,5.0446,5.076,5.076,5.1309,5.1632,5.1757,5.4477,5.7131,5.9476,5.988,6.0016,6.0016,6.0016,5.9827,5.9529,5.9529,5.9315,5.9099,5.9069,5.9069,5.9069,5.9129,5.9129,5.9099,5.9129,5.9129,5.9099,5.9099,5.9099,5.9099,5.9099,5.9099,5.9099,5.9099,5.9099,5.9099,5.9099,5.9099,5.9099,5.9099,5.9099,5.9279,5.9937,6.0057,6.0266,6.0954,6.1074,6.0835,6.0176,6.0057,5.9817,5.9135,5.6963,5.5906,5.7018,5.4424,5.3091,5.4221,5.3747,5.3347,5.3373,5.3844,5.4131,5.4184,5.4733,5.5072,5.5072,5.5099,5.5099,5.5099,5.5099,5.5099,5.5099,5.5498,5.5694,0.0,0.0,4.8567,4.9322,4.9734,5.0156,5.0646,5.076,5.0603,5.0028,4.9766,4.9505,4.9113,4.859,4.8198,4.8198,4.7858,4.7623,4.7623,4.7623,4.7623,4.7623,4.7623,0.0,0.0,0.0,0.0,4.8146,4.8381,4.8643,4.9008,4.9401,4.961,4.961,4.9793,5.008,5.0472,5.0681,5.0969,5.1335,5.1518,5.1596,5.1721,5.4533,5.628,5.716,5.9123,6.0016,6.0016,5.9773,5.9583,5.9476,5.9315,5.9153,5.9099,5.9099,5.9099,5.9099,5.9099,5.9099,5.9099,5.9099,5.9099,5.9099,5.9099,5.9099,5.9099,5.9099,5.9099,5.9099,5.9099,5.9099,5.9099,5.9099,5.9099,5.9219,5.9668,5.9757,5.9967,6.0625,6.0775,6.0984,6.1642,6.1403,6.0585,5.9058,5.8476,5.8094,5.7889,5.6709,5.5796,5.5408,5.4684,5.4153,5.3763,5.3868,5.3922,5.3922,5.4471,5.4811,5.4811,5.4994,5.5099,5.5099,5.5099,5.5099,5.5099,5.5465,5.5647,5.5647,5.6175,5.6463,0.0,4.8673,4.9339,4.9973,5.0452,5.0903,5.1455,5.1596,5.1492,5.1152,5.0917,5.0681,5.0289,4.974,4.9374,4.9374,4.9035,4.8721,4.8538,4.8512,4.8433,4.8224,4.8172,0.0,0.0,0.0,0.0,4.9035,4.9453,4.9845,5.0185,5.0394,5.0498,5.0498,5.0498,5.0681,5.1073,5.1073,5.1256,5.1596,5.1596,5.2068,5.3025,5.4828,5.6136,5.7047,5.8907,5.9667,5.9667,5.9422,5.9519,5.9729,5.9512,5.9608,5.9817,5.9817,5.9817,5.9757,5.9279,5.9099,5.9099,5.9099,5.9099,5.9099,5.9099,5.9099,5.9099,5.9099,5.9099,5.9099,5.9099,5.9099,5.9159,5.9398,5.9458,5.9638,6.0296,6.0446,6.0655,6.1343,6.1463,6.1672,6.2331,6.1702,6.0674,5.9381,5.8284,5.7366,5.691,5.6089,5.5315,5.4766,5.4772,5.4512,5.3752,5.421,5.4524,5.4524,5.4889,5.5099,5.5099,5.5099,5.5099,5.5099,5.5282,5.5386,5.5386,5.5961,5.6223,5.6249,5.6641,5.6928,4.8812,4.9698,5.0525,5.0588,5.1094,5.1534,5.1596,5.1596,5.1596,5.1596,5.1178,5.0838,0.0,0.0,4.9949,4.9949,4.9897,4.9714,4.9191,4.9113,4.8878,0.0,0.0,0.0,0.0,0.0,0.0,4.9165,0.0,5.0812,5.0838,5.1309,5.1596,5.1596,5.1596,5.1596,5.1596,5.1596,5.1596,5.1596,5.1596,5.2903,5.5295,5.5353,5.6736,5.8991,5.9045,5.9129,5.9159,5.9159,5.9548,6.0146,6.0146,6.0535,6.1104,6.1104,6.1104,6.0924,5.9638,5.9219,5.9189,5.9159,5.9159,5.9159,5.9129,5.9099,5.9099,5.9099,5.9099,5.9099,5.9099,5.9129,5.9308,5.9937,6.0116,6.0326,6.1014,6.1164,6.1373,6.2032,6.2151,6.2331,6.2959,6.2002,6.1108,6.0995,5.9327,5.7657,5.6429,5.5194,5.4669,5.5086,5.4649,5.4262,5.4262,5.4759,5.5099,5.5099,5.5099,5.5099,5.5099,5.5125,5.5151,5.5151,5.5674,5.5961,5.5961,5.6562,5.685,5.685,5.6876,5.719,4.9264,4.9618,4.9976,5.0461,5.0715,5.0968,5.1471,5.1596,5.1596,5.1596,5.1492,5.1387,0.0,0.0,0.0,5.0551,5.0185,0.0,4.9714,4.9348,0.0,4.9427,0.0,4.9087,4.9636,5.008,0.0,0.0,5.0629,5.0969,5.1361,5.1518,5.1596,5.1596,5.1596,5.1596,5.1596,5.1596,5.1596,5.1596,5.1596,5.2439,5.4024,5.4973,5.6251,5.7749,5.8689,5.9368,5.9847,5.9847,6.0236,6.0864,6.0864,6.0954,6.1104,6.1104,6.1104,6.1074,6.0715,6.0595,6.0505,5.9997,5.9847,5.9727,5.9249,5.9099,5.9099,5.9099,5.9099,5.9099,5.9099,5.9458,5.9877,6.0057,6.0475,6.1044,6.1702,6.1852,6.2032,6.269,6.2839,6.2869,6.3049,6.2391,6.1166,5.9207,5.8068,5.7284,5.6985,5.6184,5.5374,5.4508,5.4695,5.4863,5.4863,5.502,5.5099,5.5099,5.5099,5.5099,5.5099,5.5491,5.57,5.57,5.6275,5.6588,5.6588,5.7163,5.7451,5.7451,5.7869,5.8157,4.9515,4.9719,4.9912,5.0461,5.0715,5.0994,5.1471,5.1596,5.1596,5.1596,5.1413,0.0,0.0,0.0,0.0,0.0,0.0,0.0,5.0315,5.0028,4.9845,0.0,4.961,0.0,5.0237,5.0603,5.089,0.0,5.1152,5.1282,5.157,5.1596,5.1596,5.1596,5.1596,5.1596,5.1596,5.1596,5.1596,5.1596,5.1596,5.2253,5.3571,5.4797,5.6079,5.7272,0.0,5.9488,6.0086,6.0086,6.0655,6.1553,6.1553,6.1732,6.1972,6.1972,6.1972,6.1972,6.1972,6.1972,6.1822,6.0864,6.0535,6.0416,5.9727,5.9548,5.9488,5.9189,5.9308,5.9548,5.9548,6.0027,6.0595,6.0894,6.1253,6.1732,6.2391,6.254,6.263,6.3019,6.3079,6.2786,6.1937,6.1957,6.1229,5.8564,5.7631,5.708,5.6809,5.5699,5.474,5.4249,5.4497,5.4707,5.4707,5.4942,5.5099,5.5099,5.5334,5.5465,5.5465,5.5987,5.6301,5.6301,5.6876,5.719,5.719,5.7765,5.8026,5.8052,5.8366,5.8523,4.959,4.9783,5.0104,5.055,5.0804,5.112,5.1534,5.1596,5.1596,5.1596,0.0,5.089,5.089,0.0,5.089,5.089,0.0,5.1439,5.0969,5.0838,5.0629,5.0159,5.0054,5.0237,5.0838,5.089,5.11,5.157,5.1596,5.1596,5.1596,5.1596,5.1596,5.1596,5.1596,5.1596,5.1596,5.1596,5.1596,5.1596,5.1596,5.2253,5.3571,5.4619,5.579,5.7047,0.0,0.0,5.9985,6.0271,6.1104,6.2241,6.2241,6.257,6.3079,6.3079,6.3079,6.3079,6.3079,6.3079,6.2869,6.1642,6.1253,6.1134,6.0446,6.0206,6.0116,5.9638,5.9847,6.0236,6.0326,6.0805,6.1373,6.1972,6.2151,6.2391,6.2959,6.3079,6.3079,6.3079,6.3079,6.2493,6.0442,6.1084,6.0881,5.8147,5.7327,5.6815,5.6025,5.4516,5.3687,5.4158,5.4262,5.4314,5.4314,5.4863,5.5203,5.5203,5.5726,5.604,5.604,5.6615,5.6928,5.6928,5.7477,5.7835,5.7835,5.8261,5.8523,5.8523,5.8523,5.8523,4.959,4.9654,4.9847,5.0461,5.0652,5.0842,5.1471,5.1596,0.0,0.0,0.0,5.1465,5.1465,5.1465,5.1465,5.1465,0.0,0.0,0.0,0.0,5.0917,0.0,0.0,0.0,0.0,0.0,0.0,0.0,0.0,5.1596,5.1596,5.1596,5.1596,5.1596,5.1596,5.1596,5.1596,5.1596,5.1596,5.1596,5.1596,5.2253,5.351,5.3724,5.4501,5.5818,5.7569,0.0,5.9507,6.1097,6.2211,6.2899,6.2899,6.2989,6.3079,6.3079,6.3079,6.3079,6.3079,6.3079,6.2959,6.2181,6.1942,6.1792,6.1134,6.0924,6.1014,6.1463,6.1253,6.1074,6.1613,6.1822,6.1942,6.2061,6.251,6.2929,6.3049,6.3079,6.3079,6.3079,6.3079,6.2493,6.053,6.0413,5.9414,5.63,5.6112,5.5907,5.468,5.4236,5.4105,5.4184,5.4654,5.4942,5.4942,5.5465,5.5778,5.5778,5.6327,5.6641,5.6641,5.7216,5.7503,5.7503,5.8078,5.8366,5.8366,5.847,5.8523,5.8523,5.8523,5.8523,4.959,4.959,4.9783,5.0397,5.0588,5.0778,5.1471,0.0,0.0,0.0,5.1361,5.1178,5.1178,0.0,0.0,0.0,0.0,0.0,0.0,0.0,0.0,0.0,0.0,0.0,0.0,0.0,0.0,0.0,0.0,5.1596,5.1596,5.1596,5.1596,5.1596,5.1596,5.1596,5.1596,5.1596,5.1596,5.1596,5.1596,5.1882,5.2562,5.3207,5.3975,5.4966,5.6524,0.0,5.9713,6.0647,6.1845,6.3079,6.3079,6.3079,6.3079,6.3079,6.3079,6.3079,6.3079,6.3079,6.3019,6.272,6.26,6.248,6.1822,6.1852,6.2121,6.2121,6.2361,6.26,6.26,6.2839,6.3019,6.269,6.2839,6.3079,6.3079,6.2585,6.2263,6.2933,6.1939,6.0721,5.9772,5.9397,5.8288,5.5612,5.5508,5.5401,5.4354,5.421,5.421,5.421,5.4733,5.5099,5.5099,5.5883,5.6379,5.6379,5.6928,5.7242,5.7242,5.7791,5.8104,5.8104,5.8078,5.8209,5.8523,5.8209,5.8235,5.8523,5.8523,5.8523,4.95,4.9515,4.9568,5.0308,5.0448,5.065,5.132,5.1455,0.0,0.0,5.1256,5.0969,5.0969,5.0969,5.076,0.0,0.0,0.0,0.0,0.0,0.0,0.0,0.0,0.0,0.0,0.0,0.0,0.0,0.0,0.0,5.1596,5.1596,5.1596,5.1596,5.1596,5.1596,5.1596,5.1596,5.1596,5.1596,5.1596,5.1596,5.1659,5.273,5.3543,5.409,5.5541,0.0,0.0,5.97,6.0791,6.2263,6.2585,6.2643,6.2701,6.3021,6.3079,6.3079,6.3079,6.3079,6.3109,6.3228,6.3258,6.3169,6.266,6.2959,6.3408,6.3049,6.3558,6.4126,6.3797,6.3857,6.3827,6.3228,6.3079,6.3021,6.2759,6.1969,6.1438,6.1939,6.0545,5.9059,5.8389,5.7992,5.7099,5.505,5.4975,5.4922,5.4263,5.4419,5.4576,5.4576,5.4994,5.5334,5.5465,5.6405,5.6981,5.6981,5.7529,5.7843,5.7843,5.8287,5.8523,5.8523,5.8078,5.8052,5.8523,5.8052,5.8078,5.8523,5.8523,5.8523,4.9117,4.9238,4.9089,4.9913,5.0002,5.0061,5.0954,0.0,0.0,5.1492,5.157,5.1518,5.1518,5.1518,0.0,0.0,0.0,0.0,0.0,0.0,0.0,0.0,0.0,0.0,0.0,0.0,0.0,0.0,0.0,0.0,5.1596,5.1596,5.1596,5.1596,5.1596,5.1596,5.1596,5.1596,5.1596,5.1596,5.1596,5.1596,5.1622,5.2297,5.2623,5.2791,5.5168,0.0,0.0,5.8479,5.9318,5.956,6.0837,6.1286,6.1405,6.2643,6.3079,6.3079,6.3079,6.3079,6.3169,6.3737,6.3917,6.3917,6.3827,6.4306,6.4964,6.5503,6.5293,6.5054,6.5592,6.4874,6.3827,6.3228,6.3079,6.2759,6.1524,6.1673,6.1318,5.9102,5.9403,5.9082,5.6142,5.6068,5.5753,5.3868,5.4001,5.4263,5.4184,5.5099,5.5752,5.5752,5.5804,5.6066,5.6615,5.7216,5.7651,5.7651,5.8131,5.8444,5.8444,5.8497,5.8523,5.8523,5.847,5.847,5.8523,5.847,5.847,5.8523,5.8523,5.8523,4.9386,4.9439,4.9378,4.9925,5.0015,5.0168,5.0942,0.0,5.1112,5.1481,5.1596,5.1596,5.1596,5.1596,5.1413,0.0,0.0,0.0,0.0,0.0,0.0,0.0,0.0,0.0,0.0,0.0,0.0,0.0,0.0,0.0,5.1596,5.1596,5.1596,5.1596,5.1596,5.1596,5.1596,5.1596,5.1596,5.1596,5.1596,5.1596,5.1622,5.2223,5.2694,5.3086,5.4402,0.0,0.0,5.7596,5.8376,5.9251,6.0595,6.0595,6.0141,6.2321,6.2585,6.2028,6.2817,6.3079,6.3169,6.3797,6.4276,6.4605,6.4605,6.5084,6.5682,6.5922,6.6101,6.6191,6.6041,6.5024,6.3947,6.3677,6.3348,6.2844,6.1876,6.1291,6.0706,5.9985,5.8918,5.7917,5.7003,5.6111,5.5287,5.4511,5.4288,5.4341,5.4707,5.5412,5.604,5.6405,5.6771,5.7059,5.7294,5.7843,5.8183,5.8183,5.8392,5.8366,5.8,5.834,5.834,5.8,5.8,5.8183,5.8523,5.8157,5.8183,5.8523,5.8523,5.8706,4.8556,4.9082,4.9428,4.9684,4.9875,5.013,0.0,0.0,5.1101,5.1507,5.1596,5.1596,5.1596,5.1596,5.1413,0.0,0.0,0.0,0.0,0.0,0.0,0.0,0.0,0.0,0.0,0.0,0.0,0.0,0.0,0.0,5.1596,5.1596,5.1596,5.1596,5.1596,5.1596,5.1596,5.1596,5.1596,5.1596,5.1596,5.1675,5.1884,5.2485,5.3086,5.3661,0.0,0.0,0.0,5.6536,5.7092,5.8088,5.9403,5.9341,5.8752,6.1077,6.1316,6.0655,6.1584,6.1998,6.2322,6.3387,6.4128,6.4782,6.5412,6.5922,6.6311,6.6311,6.664,6.6849,6.6191,6.4844,6.3743,6.3919,6.2794,6.1586,6.1263,6.0149,5.92,5.9205,5.7933,5.6942,5.7073,5.6133,5.5282,5.5125,5.4733,5.468,5.5255,5.583,5.6405,5.7007,5.7582,5.7921,5.7921,5.8287,5.8523,5.8523,5.8523,5.834,5.7921,5.8314,5.8314,5.7921,5.7921,5.8104,5.8523,5.8104,5.8209,5.8758,5.8758,5.9176,4.6203,4.7755,4.8786,4.8786,4.9292,4.9794,0.0,0.0,5.0943,5.1492,5.1596,5.1596,5.1596,5.1596,5.1413,0.0,0.0,0.0,0.0,0.0,0.0,0.0,0.0,0.0,0.0,0.0,0.0,0.0,0.0,0.0,5.1596,5.1596,5.1596,5.1596,5.1596,5.1596,5.1596,5.1596,5.1596,5.1596,5.1596,5.191,5.2511,5.3112,5.3687,0.0,0.0,0.0,0.0,5.5099,5.5099,5.5299,5.6601,5.7157,5.7258,5.8627,5.9127,5.9127,5.9127,5.9458,6.0266,6.2332,6.3433,6.4318,6.6391,6.6969,6.6969,6.6969,6.6999,6.6849,6.6191,6.4536,6.322,6.3832,6.1079,5.8395,5.8986,5.817,5.6809,5.5432,5.6144,5.6547,5.5365,5.5543,5.5726,5.5177,5.5099,5.5282,5.583,5.6432,5.7007,5.7651,5.8157,5.8497,5.8497,5.8523,5.8523,5.8523,5.8523,5.8523,5.8497,5.8523,5.8523,5.8497,5.8497,5.8497,5.8523,5.8497,5.881,5.9359,5.9359,5.9986,4.6494,4.8026,4.9339,4.9339,4.9659,5.0041,5.0269,0.0,5.1101,5.1507,5.1596,5.1596,5.1596,5.1596,5.1413,5.089,0.0,0.0,0.0,0.0,0.0,0.0,0.0,0.0,0.0,0.0,0.0,0.0,0.0,0.0,5.1596,5.1596,5.1596,5.1596,5.1596,5.1596,5.1596,5.1596,5.1596,5.1596,5.2014,5.2302,5.2537,5.3504,0.0,0.0,0.0,0.0,0.0,5.5099,5.5099,5.5232,5.6601,5.6536,5.6039,5.825,5.8502,5.7952,5.9164,5.976,6.016,6.1649,6.2352,6.27,6.378,6.548,6.6785,6.5856,6.626,6.6478,6.4364,6.3717,6.352,6.3339,6.127,5.9482,5.9747,5.8998,5.8105,5.7097,5.7554,5.7718,5.6453,5.6405,5.6196,5.5255,5.5099,5.5308,5.583,5.6432,5.7033,5.7678,5.8183,5.8523,5.8523,5.8523,5.8523,5.8523,5.8523,5.834,5.7948,5.8314,5.834,5.7948,5.8314,5.8523,5.8523,5.8915,5.9385,5.996,6.0378,6.0771,4.5639,4.7198,4.8595,4.916,4.9824,5.0308,0.0,0.0,5.1294,5.1273,5.1465,5.1544,5.1335,5.1282,5.1178,5.0838,5.0106,0.0,0.0,0.0,0.0,0.0,0.0,0.0,0.0,0.0,0.0,0.0,0.0,0.0,5.1596,5.1596,5.1596,5.1596,5.1596,5.1596,5.1596,5.1831,5.1936,5.1936,5.2537,5.2955,5.3164,5.387,0.0,0.0,0.0,0.0,0.0,5.5099,5.5099,5.5165,5.6039,5.5842,5.5299,5.6963,5.7228,5.6819,5.802,5.8691,5.9276,6.0612,6.1556,6.2268,6.2661,6.4016,6.5198,6.4339,6.4752,6.5007,6.3235,6.2586,6.2324,6.2142,6.0082,5.8255,5.8828,5.8189,5.7439,5.745,5.7892,5.8088,5.7249,5.6954,5.6484,5.5543,5.5412,5.5621,5.617,5.6771,5.7346,5.7921,5.8314,5.8523,5.8523,5.8523,5.8523,5.8523,5.8523,5.834,5.8,5.8314,5.834,5.8,5.834,5.8627,5.8836,5.9647,6.0222,6.0561,6.1163,6.145,0.0,4.5625,4.7021,4.8494,4.9723,5.046,5.001,0.0,0.0,5.0943,5.1256,5.1439,5.0943,5.0812,5.0786,5.0734,4.9845,0.0,0.0,0.0,0.0,0.0,0.0,0.0,0.0,0.0,0.0,0.0,0.0,0.0,5.1596,5.1596,5.1622,5.1648,5.1648,5.1648,5.1648,5.2223,5.2511,5.2563,5.3164,5.3713,5.421,5.4236,0.0,0.0,0.0,0.0,0.0,5.5099,5.5099,5.5099,5.5099,5.5099,5.5099,5.5151,5.5465,5.5909,5.6013,5.6745,5.7939,5.9263,6.0969,6.2508,6.2508,6.2641,6.2773,6.2641,6.2707,6.2773,6.2575,6.1158,6.0046,6.0607,5.7949,5.5577,5.6915,5.6119,5.5543,5.6667,5.732,5.7712,5.773,5.719,5.6615,5.6066,5.5935,5.6144,5.6798,5.732,5.7869,5.8444,5.8523,5.8523,5.8523,5.8523,5.8523,5.8523,5.8523,5.8523,5.8523,5.8523,5.8523,5.8523,5.8549,5.8862,5.9437,6.0535,6.111,6.1189,6.1685,6.1921,4.3441,0.0,4.7118,4.8968,4.981,5.027,0.0,5.0827,5.1257,0.0,5.1518,5.157,5.1439,5.1073,5.0629,5.0185,0.0,4.9793,0.0,0.0,0.0,0.0,0.0,0.0,0.0,0.0,0.0,0.0,0.0,5.1596,5.1596,5.1596,5.1805,5.2276,5.2276,5.2276,5.2276,5.2433,5.272,5.3191,5.3739,5.4079,5.421,5.468,0.0,0.0,0.0,0.0,5.5099,5.5099,5.5099,5.5099,5.5099,5.5099,5.5151,5.5569,5.5804,5.604,5.6928,5.7425,5.7808,5.8552,5.9139,5.9525,5.9525,6.1057,6.2575,6.1436,6.1908,6.2309,6.0123,5.9947,6.0226,5.9472,5.7799,5.6656,5.7551,5.705,5.6615,5.732,5.7921,5.8183,5.7739,5.719,5.6771,5.6615,5.6196,5.6275,5.732,5.7651,5.7869,5.8444,5.8523,5.8523,5.8523,5.8523,5.8523,5.8523,5.8523,5.8523,5.8523,5.8523,5.8523,5.8523,5.8941,5.9437,6.0013,6.03,6.0901,6.1764,6.145,6.1555,4.1415,4.3886,4.6114,4.8913,4.9847,5.0168,5.0525,0.0,0.0,0.0,0.0,0.0,0.0,5.0551,5.008,0.0,4.9871,0.0,0.0,0.0,0.0,0.0,0.0,0.0,0.0,0.0,0.0,0.0,0.0,5.1596,5.1596,5.1858,5.2171,5.2485,5.2772,5.2903,5.2903,5.3164,5.3452,5.3766,5.4341,5.4602,5.4628,5.4942,5.5099,0.0,0.0,0.0,5.5099,5.5099,5.5099,5.5099,5.5099,5.5099,5.5177,5.57,5.6092,5.6458,5.7346,5.7843,5.8104,5.8418,5.8523,5.8523,5.8523,5.9595,6.0647,5.9846,6.0234,6.0441,5.892,5.9035,5.9344,5.8171,5.7319,5.6846,5.6957,5.6897,5.6981,5.7556,5.8131,5.8418,5.8104,5.7346,5.6902,5.7163,5.6693,5.6641,5.7556,5.7895,5.8183,5.847,5.8523,5.8523,5.8523,5.8523,5.8523,5.8523,5.8523,5.8523,5.8523,5.8523,5.8523,5.8523,5.9072,5.9516,5.983,6.0091,6.0535,6.1163,6.1136,6.1293,3.9404,4.1772,4.4547,4.8179,4.9529,5.0104,5.055,0.0,0.0,0.0,0.0,0.0,0.0,4.9793,0.0,0.0,0.0,0.0,0.0,0.0,0.0,0.0,0.0,0.0,0.0,0.0,0.0,0.0,0.0,5.1622,5.1727,5.2223,5.2589,5.2746,5.3243,5.3556,5.3661,5.4027,5.4262,5.4341,5.4863,5.5099,5.5099,5.5099,5.5099,0.0,0.0,0.0,5.5099,5.5099,5.5099,5.5099,5.5099,5.5099,5.5177,5.5804,5.6379,5.6902,5.7556,5.8104,5.8523,5.8523,5.8523,5.8523,5.8523,5.8523,5.8523,5.8523,5.8523,5.8523,5.8523,5.8523,5.8235,5.7085,5.6876,5.6771,5.617,5.651,5.7111,5.7686,5.8183,5.8523,5.8523,5.7634,5.7137,5.7712,5.7294,5.7137,5.7712,5.8209,5.8523,5.8523,5.8523,5.8523,5.8523,5.8523,5.8523,5.8523,5.8523,5.8523,5.8523,5.8523,5.8523,5.8523,5.9072,5.9359,5.9359,5.9856,6.0169,6.0378,6.0797,6.1084,4.0343,4.1885,4.3281,4.5966,4.816,4.9847,5.0461,0.0,0.0,0.0,0.0,0.0,0.0,4.9505,4.9296,0.0,0.0,0.0,0.0,0.0,0.0,0.0,0.0,0.0,0.0,0.0,0.0,0.0,0.0,0.0,5.2328,5.2433,5.2929,5.3896,5.4027,5.4314,5.4837,5.4419,5.4445,5.4968,5.5072,5.5099,5.5099,5.5099,5.5099,0.0,0.0,5.5099,5.5099,5.5099,5.5099,5.5099,5.5099,5.5099,5.5229,5.6275,5.6719,5.6954,5.8026,5.8444,5.8523,5.8523,5.8523,5.8523,5.8523,5.8523,5.8523,5.8523,5.8523,5.8523,5.8523,5.8523,5.8235,5.7085,5.719,5.7373,5.6798,5.7137,5.7686,5.8261,5.8444,5.8523,5.8523,5.7974,5.7739,5.8287,5.7895,5.7739,5.8314,5.847,5.8523,5.8523,5.8523,5.8523,5.8523,5.8523,5.8523,5.8523,5.8523,5.8523,5.8523,5.8523,5.8523,5.8523,5.9072,5.9359,5.9359,5.9437,6.0013,6.098,6.0561,6.0901,3.8985,4.1046,4.2979,4.5086,4.7153,4.8876,4.9504,0.0,0.0,0.0,0.0,0.0,0.0,0.0,4.9374,5.0237,0.0,0.0,0.0,0.0,0.0,0.0,0.0,0.0,0.0,0.0,0.0,0.0,0.0,0.0,5.2485,5.3086,5.3661,5.4184,5.4524,5.4811,5.5099,5.4811,5.4837,5.5099,5.5099,5.5099,5.5099,5.5099,5.5099,5.5099,0.0,5.5099,5.5099,5.5099,5.5099,5.5099,5.5099,5.5282,5.5674,5.685,5.7477,5.7791,5.834,5.8523,5.8523,5.8523,5.8523,5.8523,5.8523,5.8523,5.8523,5.8523,5.8523,5.8523,5.8523,5.8523,5.8235,5.7085,5.7242,5.7503,5.6928,5.7242,5.7843,5.8392,5.8523,5.8523,5.8523,5.8026,5.7843,5.8418,5.8026,5.7869,5.8444,5.8523,5.8523,5.8523,5.8523,5.8523,5.8523,5.8523,5.8523,5.8523,5.8523,5.8523,5.8523,5.8523,5.8523,5.8523,5.8758,5.8915,5.8915,5.9202,5.9647,6.0169,6.0535,6.098,3.8021,4.0428,4.2762,4.475,4.6699,4.8296,4.8942,0.0,0.0,0.0,0.0,0.0,0.0,4.9897,0.0,5.0655,5.1256,0.0,0.0,0.0,0.0,0.0,0.0,0.0,0.0,0.0,0.0,0.0,0.0,0.0,5.2877,5.3739,5.4262,5.4419,5.4863,5.5099,5.5099,5.5099,5.5099,5.5099,5.5099,5.5099,5.5099,5.5099,5.5099,5.5099,5.5099,5.5099,5.5099,5.5099,5.5099,5.5125,5.5255,5.5726,5.6432,5.732,5.8026,5.8523,5.8523,5.8523,5.8523,5.8523,5.8523,5.8523,5.8523,5.8523,5.8523,5.8523,5.8523,5.8523,5.8523,5.8523,5.8261,5.7242,5.7451,5.7712,5.7137,5.7451,5.8,5.8418,5.8523,5.8523,5.8523,5.8157,5.8,5.8444,5.8131,5.8026,5.8444,5.8523,5.8523,5.8523,5.8523,5.8523,5.8523,5.8523,5.8523,5.8523,5.8523,5.8523,5.8523,5.8523,5.8523,5.8523,5.8523,5.8575,5.8706,5.915,5.9516,5.9803,6.0692,6.1189,3.9055,4.0793,4.2342,4.4833,4.7093,4.8901,4.9618,4.9307,0.0,4.9124,0.0,0.0,0.0,5.0002,5.0681,5.0786,0.0,0.0,0.0,0.0,0.0,0.0,0.0,0.0,0.0,0.0,0.0,0.0,0.0,0.0,5.4027,5.4158,5.4471,5.502,5.5072,5.5099,5.5099,5.5099,5.5099,5.5099,5.5099,5.5099,5.5099,5.5099,5.5099,5.5099,5.5099,5.5099,5.5099,5.5099,5.5099,5.5151,5.5647,5.6536,5.7599,5.7704,5.8026,5.8523,5.8523,5.8523,5.8523,5.8523,5.8523,5.8523,5.8523,5.8523,5.8523,5.8523,5.8523,5.8523,5.8523,5.8523,5.8366,5.7739,5.8026,5.8287,5.7712,5.8052,5.847,5.8497,5.8523,5.8523,5.8523,5.847,5.847,5.8497,5.847,5.847,5.8497,5.8523,5.8523,5.8523,5.8523,5.8523,5.8523,5.8523,5.8523,5.8523,5.8523,5.8523,5.8523,5.8523,5.8523,5.8523,5.8523,5.8784,5.9307,5.9333,5.9934,6.1006,6.1084,6.1398,3.8957,4.0921,4.2716,4.5116,4.6985,4.8259,0.0,4.8442,4.8557,4.9136,4.9646,0.0,0.0,0.0,5.1282,0.0,0.0,0.0,0.0,0.0,0.0,0.0,0.0,0.0,0.0,0.0,0.0,0.0,0.0,0.0,0.0,5.455,5.4863,5.5099,5.5099,5.5099,5.5099,5.5099,5.5099,5.5099,5.5099,5.5099,5.5099,5.5099,5.5099,5.5099,5.5099,5.5099,5.5099,5.5099,5.5099,5.5203,5.6118,5.6954,5.7782,5.8052,5.834,5.8523,5.8523,5.8523,5.8523,5.8523,5.8523,5.8523,5.8523,5.8523,5.8523,5.8523,5.8523,5.8523,5.8523,5.8523,5.8366,5.7791,5.8104,5.8366,5.7861,5.8104,5.8523,5.8523,5.8523,5.8523,5.8523,5.8523,5.8523,5.8523,5.8523,5.8523,5.8523,5.8523,5.8523,5.8523,5.8523,5.8523,5.8523,5.8523,5.8523,5.8523,5.8523,5.8523,5.8523,5.8523,5.8679,5.9045,5.9045,5.9333,5.9908,6.0274,6.0692,6.1136,6.1476,6.1764,3.9638,4.1402,4.3002,4.5571,0.0,0.0,4.7738,4.8029,4.8522,4.9299,4.9811,0.0,0.0,0.0,0.0,0.0,0.0,0.0,0.0,0.0,0.0,0.0,0.0,0.0,0.0,0.0,0.0,0.0,0.0,0.0,0.0,5.4889,5.5099,5.5099,5.5099,5.5099,5.5099,5.5099,5.5099,5.5099,5.5099,5.5099,5.5099,5.5099,5.5099,5.5099,5.5099,5.5099,5.5099,5.5099,5.5308,5.5726,5.651,5.7268,5.7974,5.8366,5.8523,5.8523,5.8523,5.8523,5.8523,5.8523,5.8523,5.8523,5.8523,5.8523,5.8523,5.8523,5.8523,5.8523,5.8523,5.8523,5.8418,5.8026,5.8235,5.8392,5.8,5.8235,5.8523,5.8523,5.8523,5.8523,5.8523,5.8653,5.8784,5.8784,5.8784,5.8784,5.8784,5.8627,5.8523,5.8523,5.8523,5.8523,5.8523,5.8523,5.8523,5.8523,5.8523,5.8523,5.8523,5.8679,5.8967,5.9359,5.9542,5.9934,6.0509,6.0927,6.1215,6.1398,6.179,6.1973,4.1244,4.2351,4.3184,4.6303,0.0,0.0,4.7908,4.8429,4.9009,4.9316,0.0,5.0969,0.0,0.0,0.0,0.0,0.0,0.0,0.0,0.0,0.0,0.0,0.0,0.0,0.0,0.0,0.0,0.0,0.0,0.0,0.0,5.5099,5.5099,0.0,5.5099,5.5099,5.5099,5.5099,5.5099,5.5099,5.5099,5.5099,5.5099,5.5099,5.5099,5.5099,5.5099,5.5099,5.5099,5.5125,5.5778,5.6824,5.6824,5.7503,5.8523,5.8523,5.8523,5.8523,5.8523,5.8523,5.8523,5.8523,5.8523,5.8523,5.8523,5.8523,5.8523,5.8523,5.8523,5.8523,5.8523,5.8523,5.8523,5.8523,5.8523,5.8523,5.8523,5.8523,5.8523,5.8523,5.8523,5.8523,5.8523,5.8993,5.9359,5.9385,5.9385,5.9385,5.9359,5.8862,5.8523,5.8523,5.8523,5.8523,5.8523,5.8523,5.8523,5.8523,5.8523,5.8523,5.8523,5.9072,5.9385,5.9457,5.9934,6.0535,6.1136,6.1136,6.1424,6.1973,6.1973,6.1973,3.8486,4.0904,4.3211,4.4431,0.0,0.0,0.0,4.8888,0.0,0.0,0.0,0.0,0.0,0.0,0.0,0.0,0.0,0.0,0.0,0.0,0.0,0.0,0.0,0.0,0.0,0.0,0.0,0.0,0.0,0.0,0.0,5.5099,5.5099,0.0,5.5099,5.5099,5.5099,5.4805,5.4805,5.5099,5.4805,5.4805,5.5099,5.5099,5.5099,5.5099,5.5099,5.5099,5.5125,5.5517,5.6353,5.7399,5.7399,5.7869,5.8523,5.8523,5.8523,5.8523,5.8523,5.8523,5.8523,5.8523,5.8523,5.8523,5.8523,5.8523,5.8523,5.8523,5.8523,5.8523,5.8523,5.8523,5.8523,5.8523,5.8523,5.8523,5.8523,5.8523,5.8523,5.8523,5.8523,5.8627,5.9045,5.9255,5.949,5.9908,5.996,5.983,5.9411,5.9202,5.8967,5.8549,5.8862,5.8941,5.8549,5.8523,5.8523,5.8523,5.8889,5.9098,5.9098,5.9281,5.9751,6.0588,6.0771,6.1136,6.1711,6.1711,6.1816,6.1973,6.1973,6.1973,3.8542,4.0778,4.3083,4.4529,4.6673,4.8535,4.8987,0.0,0.0,0.0,0.0,0.0,0.0,0.0,0.0,0.0,0.0,0.0,0.0,0.0,0.0,0.0,0.0,0.0,0.0,0.0,0.0,0.0,0.0,0.0,0.0,5.5099,0.0,0.0,5.4939,5.4965,5.5099,5.4604,5.4604,5.5099,5.4712,5.4712,5.5099,5.5099,5.5099,5.5099,5.5099,5.5229,5.5438,5.5778,5.6588,5.773,5.773,5.8,5.8523,5.8523,5.8523,5.8523,5.8523,5.8523,5.8523,5.8523,5.8523,5.8523,5.8523,5.8523,5.8549,5.8784,5.8679,5.8575,5.881,5.8679,5.8523,5.8523,5.8523,5.8523,5.8523,5.8523,5.8523,5.8523,5.8523,5.8706,5.9281,5.9359,5.9647,6.0457,6.0378,6.0013,5.9437,5.9176,5.8967,5.8862,5.8967,5.8889,5.8549,5.8523,5.8601,5.8836,5.9176,5.9568,6.0039,6.0065,6.0405,6.111,6.1346,6.1633,6.1973,6.1973,6.1973,6.1973,6.1973,6.1973,4.0081,4.1345,4.2742,4.5657,4.717,0.0,4.9364,4.9847,5.0232,5.0931,0.0,0.0,0.0,0.0,0.0,0.0,0.0,0.0,0.0,0.0,0.0,0.0,0.0,0.0,0.0,0.0,0.0,0.0,0.0,0.0,0.0,0.0,0.0,5.5099,5.4712,5.4645,5.5032,5.4335,5.4335,0.0,5.4578,5.4671,5.5099,5.5099,5.5099,5.5099,5.5151,5.5491,5.5987,5.604,5.6719,5.7739,5.7739,5.8052,5.8523,5.8523,5.8523,5.8523,5.8523,5.8523,5.8523,5.8523,5.8523,5.8523,5.8523,5.8549,5.8679,5.915,5.8941,5.8706,5.9176,5.8915,5.8523,5.8523,5.8523,5.8523,5.8523,5.8523,5.8523,5.8523,5.8549,5.8758,5.9281,5.9411,5.9803,6.0875,6.0561,6.0039,5.9516,5.8993,5.8862,5.9307,5.8915,5.8575,5.8523,5.8549,5.881,5.9333,5.9464,6.0013,6.1084,6.111,6.1136,6.1189,6.1711,6.1973,6.1973,6.1973,6.1973,6.1973,6.1973,6.1973,3.8005,3.9691,0.0,0.0,4.6884,4.9289,4.954,4.9654,4.9912,0.0,0.0,0.0,0.0,0.0,0.0,0.0,0.0,0.0,0.0,0.0,0.0,0.0,0.0,0.0,0.0,0.0,0.0,0.0,0.0,0.0,0.0,0.0,0.0,5.5099,5.4712,5.4578,5.4645,5.3929,5.3929,0.0,5.3997,5.4225,5.5099,5.5099,5.5099,5.5125,5.5543,5.6066,5.6641,5.7111,5.7686,5.834,5.834,5.8392,5.8523,5.8523,5.8523,5.8523,5.8523,5.8523,5.8523,5.8523,5.8523,5.8523,5.8523,5.8836,5.9098,5.8784,5.8941,5.9098,5.8784,5.8601,5.8523,5.8523,5.8523,5.8523,5.8523,5.8523,5.8523,5.8523,5.8862,5.9228,5.9333,5.9751,6.0117,6.0378,6.03,6.0169,6.0039,5.9934,5.9725,5.9385,5.9255,5.8993,5.8549,5.8915,5.9228,5.9359,6.0222,6.0849,6.111,6.111,6.1319,6.179,6.1894,6.1973,6.1973,6.1973,6.1973,6.1973,6.1973,6.1973,3.7363,0.0,0.0,4.3225,0.0,4.8567,4.8567,4.9112,0.0,0.0,0.0,0.0,0.0,0.0,0.0,0.0,0.0,0.0,0.0,0.0,0.0,0.0,0.0,0.0,0.0,0.0,0.0,0.0,0.0,0.0,0.0,5.4939,5.4805,5.4805,5.4335,5.4106,5.4241,5.3725,5.3861,5.4511,5.3997,5.4132,5.4805,5.5032,5.5099,5.5125,5.5674,5.6249,5.685,5.7425,5.8,5.8523,5.8523,5.8523,5.8523,5.8523,5.8523,5.8523,5.8523,5.8523,5.8523,5.8523,5.8523,5.8549,5.8836,5.8941,5.9019,5.9255,5.915,5.8941,5.8941,5.8732,5.8523,5.8523,5.8523,5.8523,5.8523,5.8523,5.8601,5.8862,5.8941,5.9124,5.9673,6.0013,6.0117,5.9856,6.0039,6.0326,6.0614,6.0405,6.0117,5.9803,5.9516,5.9255,5.8941,5.9202,5.9594,6.0169,6.0771,6.1241,6.1529,6.1529,6.1659,6.1973,6.1973,6.1973,6.1973,6.1973,6.1973,6.1973,6.1973,6.1973,3.7363,0.0,4.034,4.2741,4.5159,0.0,4.7335,0.0,0.0,0.0,0.0,0.0,0.0,0.0,0.0,0.0,0.0,0.0,0.0,0.0,0.0,0.0,0.0,0.0,0.0,0.0,0.0,0.0,0.0,0.0,5.5032,5.4645,5.4511,5.4443,5.3793,5.3614,5.3929,5.3546,5.3725,5.4309,5.4106,5.4174,5.4511,5.4872,5.5032,5.5151,5.5778,5.6353,5.685,5.7529,5.8078,5.8523,5.8523,5.8523,5.8523,5.8523,5.8523,5.8523,5.8523,5.8523,5.8523,5.8627,5.8601,5.8627,5.9202,5.9045,5.8836,5.9673,5.9307,5.8758,5.9124,5.8862,5.8549,5.8627,5.8601,5.8523,5.8523,5.8523,5.8679,5.9255,5.8993,5.8967,5.9908,6.0065,5.9908,5.9437,5.9934,6.0561,6.1058,6.0588,6.0222,6.0222,5.9699,5.9359,5.9359,5.9542,6.0091,6.1058,6.1215,6.1476,6.1947,6.1973,6.1973,6.1973,6.1973,6.1973,6.1973,6.1973,6.1973,6.1973,6.1973,6.1973,0.0,0.0,4.1001,0.0,4.3443,4.5396,0.0,0.0,0.0,0.0,0.0,0.0,0.0,0.0,0.0,0.0,0.0,0.0,0.0,0.0,0.0,0.0,0.0,0.0,0.0,0.0,0.0,0.0,0.0,0.0,5.4578,5.4511,5.4376,5.4064,5.3682,5.3546,5.3546,5.3204,5.3204,5.3614,5.3861,5.4174,5.4511,5.4578,5.4805,5.5177,5.6223,5.6745,5.6876,5.7948,5.8444,5.8523,5.8523,5.8523,5.8523,5.8523,5.8523,5.8523,5.8523,5.8523,5.8601,5.9098,5.8915,5.8627,5.9202,5.9307,5.9176,5.8836,5.8993,5.915,5.8732,5.8575,5.8627,5.915,5.8862,5.8523,5.8523,5.8523,5.8679,5.9255,5.9307,5.9307,5.9437,5.949,5.9437,5.9385,6.03,6.1032,6.111,6.0588,6.0222,6.0222,5.9699,5.9359,5.9359,6.03,6.0953,6.111,6.1581,6.1894,6.1973,6.1973,6.1973,6.1973,6.1973,6.1973,6.1973,6.1973,6.1973,6.1973,6.1973,6.1973,3.6908,3.8406,3.9799,0.0,0.0,0.0,0.0,0.0,0.0,0.0,0.0,0.0,0.0,0.0,0.0,0.0,0.0,0.0,0.0,0.0,0.0,0.0,0.0,0.0,0.0,0.0,0.0,0.0,0.0,5.5032,5.4872,5.4645,5.4376,5.3997,5.3682,5.3478,5.3478,5.3341,5.341,5.3793,5.3929,5.4174,5.4511,5.4511,5.4894,5.5595,5.6432,5.6981,5.7346,5.8183,5.8523,5.8523,5.8523,5.8523,5.8523,5.8523,5.8523,5.8523,5.8523,5.8732,5.8967,5.8915,5.8941,5.9045,5.9281,5.915,5.8915,5.8967,5.8941,5.8836,5.8575,5.8758,5.8967,5.8915,5.8941,5.8915,5.8575,5.8758,5.9072,5.9307,5.9359,5.9359,5.9359,5.9359,5.9594,6.0248,6.0797,6.1241,6.1555,6.1084,6.0718,6.0718,6.0195,5.9986,6.0326,6.0823,6.1241,6.1581,6.1842,6.1973,6.1973,6.1973,6.1973,6.1973,6.1973,6.1973,6.1973,6.1973,6.1973,6.1973,6.1973,6.1973,0.0,0.0,0.0,0.0,0.0,0.0,0.0,0.0,0.0,0.0,0.0,0.0,0.0,0.0,0.0,0.0,0.0,0.0,0.0,0.0,0.0,0.0,0.0,0.0,0.0,0.0,0.0,0.0,0.0,5.5032,5.4939,5.4645,5.4376,5.3997,5.3682,5.3478,5.3478,5.341,5.3546,5.3861,5.3793,5.3971,5.4511,5.4599,5.519,5.617,5.6615,5.7137,5.7782,5.8287,5.8523,5.8523,5.8523,5.8523,5.8523,5.8523,5.8523,5.8523,5.8523,5.8784,5.9098,5.8836,5.8915,5.9176,5.9307,5.8967,5.8601,5.9019,5.8836,5.8549,5.8706,5.8941,5.9124,5.8967,5.9045,5.9045,5.8601,5.8967,5.9307,5.9176,5.9385,5.9542,5.9385,5.962,6.0117,6.098,6.1241,6.1476,6.1921,6.1476,6.111,6.111,6.0718,6.064,6.1084,6.1241,6.1529,6.1947,6.1973,6.1973,6.1973,6.1973,6.1973,6.1973,6.1973,6.1973,6.1973,6.1973,6.1973,6.1973,6.1973,6.1973,0.0,0.0,0.0,0.0,0.0,0.0,0.0,0.0,0.0,0.0,0.0,0.0,0.0,0.0,0.0,0.0,0.0,0.0,0.0,0.0,0.0,0.0,0.0,0.0,0.0,0.0,0.0,0.0,0.0,5.4939,5.4578,5.4511,5.4376,5.3997,5.3682,5.3478,5.3478,5.3136,5.3136,5.3546,5.3136,5.3521,5.4511,5.4766,5.5538,5.6771,5.6798,5.7137,5.7782,5.8287,5.8523,5.8523,5.8523,5.8523,5.8523,5.8523,5.8523,5.8523,5.8523,5.8523,5.8653,5.915,5.8967,5.8653,5.9202,5.8967,5.8523,5.8549,5.8523,5.8627,5.9176,5.8941,5.881,5.9882,5.9333,5.8549,5.8523,5.8967,5.9202,5.8653,5.9437,6.0013,5.9464,6.03,6.1058,6.111,6.1581,6.1921,6.1973,6.1476,6.111,6.111,6.1084,6.1084,6.111,6.1607,6.1947,6.1973,6.1973,6.1973,6.1973,6.1973,6.1973,6.1973,6.1973,6.1973,6.1973,6.1973,6.1973,6.1973,6.1973,6.1973,0.0,0.0,0.0,0.0,0.0,0.0,0.0,0.0,0.0,0.0,0.0,0.0,0.0,0.0,0.0,0.0,0.0,0.0,0.0,0.0,0.0,0.0,0.0,0.0,0.0,0.0,0.0,0.0,0.0,0.0,5.4511,5.4309,5.4064,5.3682,5.3546,5.341,5.3136,5.3204,5.3341,5.3478,5.3463,5.3847,5.474,5.5193,5.5993,5.6998,5.7277,5.7686,5.8235,5.8418,5.8523,5.8523,5.8523,5.8523,5.8523,5.8523,5.8523,5.8523,5.8523,5.8758,5.9045,5.8862,5.8941,5.9045,5.8862,5.8679,5.8523,5.8523,5.8784,5.9098,5.9307,5.949,5.962,5.9673,5.9072,5.8523,5.8523,5.8679,5.8967,5.9516,5.9647,5.9856,6.0405,6.0849,6.1241,6.1607,6.1842,6.1973,6.1973,6.1476,6.1267,6.1633,6.1346,6.1267,6.1633,6.1868,6.1973,6.1973,6.1973,6.1973,6.1973,6.1973,6.1973,6.1973,6.1973,6.1973,6.1973,6.1973,6.1973,6.1973,6.1973,6.1973,0.0,0.0,0.0,0.0,0.0,0.0,0.0,0.0,0.0,0.0,0.0,0.0,0.0,0.0,0.0,0.0,0.0,0.0,0.0,0.0,0.0,0.0,0.0,0.0,0.0,0.0,0.0,0.0,0.0,0.0,5.4712,5.4376,5.3997,5.3682,5.3546,5.3442,5.3344,5.3482,5.3695,5.3898,5.3973,5.4359,5.4942,5.5644,5.6386,5.7169,5.7729,5.8157,5.8523,5.8523,5.8523,5.8523,5.8523,5.8523,5.8523,5.8523,5.8523,5.8523,5.8523,5.8758,5.9019,5.8627,5.8758,5.8993,5.8627,5.8653,5.881,5.881,5.9202,5.9647,5.9647,5.9803,5.9777,5.9202,5.8784,5.8575,5.8758,5.881,5.9019,5.9777,5.9934,6.0195,6.098,6.1293,6.1529,6.1921,6.1973,6.1973,6.1973,6.1633,6.1555,6.1921,6.1633,6.1555,6.1947,6.1973,6.1973,6.1973,6.1973,6.2051,6.226,6.2077,6.2156,6.2548,6.2365,6.226,6.226,6.2077,6.1973,6.1973,6.1973,6.1973,0.0,0.0,0.0,0.0,0.0,0.0,0.0,0.0,0.0,0.0,0.0,0.0,0.0,0.0,0.0,0.0,0.0,0.0,0.0,0.0,0.0,0.0,0.0,0.0,0.0,0.0,0.0,0.0,0.0,5.4645,5.5032,5.4645,5.4309,5.3997,5.3682,5.3732,5.429,5.3892,5.3959,5.4511,5.4536,5.4774,5.5152,5.6065,5.6746,5.7125,5.812,5.8523,5.8523,5.8523,5.8523,5.8523,5.8523,5.8523,5.8523,5.8523,5.8523,5.8523,5.8523,5.8523,5.8523,5.8523,5.8523,5.8523,5.8523,5.8941,5.9359,5.9457,5.9803,6.0222,6.0195,5.9777,5.9228,5.8653,5.8523,5.8706,5.9255,5.9457,5.9411,5.9411,6.0326,6.1136,6.1136,6.1607,6.1973,6.1973,6.1973,6.1973,6.1973,6.1973,6.1973,6.1973,6.1973,6.1973,6.1973,6.1973,6.1999,6.1999,6.2025,6.226,6.2835,6.2313,6.2548,6.3646,6.3123,6.2862,6.2862,6.2287,6.1999,6.1973,6.1999,6.1999,3.6018,0.0,0.0,0.0,0.0,0.0,0.0,0.0,0.0,0.0,0.0,0.0,0.0,0.0,0.0,0.0,0.0,0.0,0.0,0.0,0.0,0.0,0.0,0.0,0.0,0.0,0.0,0.0,5.4309,5.4309,5.4645,5.4132,5.3725,5.3614,5.3273,5.3142,5.3293,5.3155,5.3231,5.3381,5.4185,5.4774,5.5127,5.6545,5.722,5.7364,5.816,5.8284,5.807,5.8381,5.8523,5.8523,5.8523,5.8523,5.8523,5.8523,5.8523,5.8523,5.8523,5.8523,5.8523,5.8523,5.8523,5.8601,5.8993,5.9255,5.9437,5.9856,6.0091,6.0117,5.9699,5.949,5.9228,5.8653,5.8836,5.9176,5.9333,6.0039,6.064,6.064,6.0901,6.1241,6.1659,6.1868,6.1973,6.1973,6.1973,6.1973,6.1973,6.1973,6.1973,6.1973,6.1973,6.1973,6.1973,6.2339,6.26,6.26,6.2966,6.328,6.3437,6.328,6.3358,6.3672,6.3515,6.3437,6.3437,6.2862,6.2365,6.1973,6.2391,6.26,0.0,0.0,0.0,0.0,0.0,0.0,0.0,0.0,0.0,0.0,0.0,0.0,0.0,0.0,0.0,0.0,0.0,0.0,0.0,0.0,0.0,0.0,0.0,0.0,0.0,0.0,0.0,5.4064,5.4064,5.3997,5.4064,5.3725,5.3478,5.3478,5.3136,5.3099,5.3488,5.3325,5.3482,5.3959,5.4361,5.4875,5.5457,5.6341,5.6887,5.7306,5.7945,5.8016,5.7874,5.8086,5.8314,5.8523,5.8523,5.8366,5.8183,5.8418,5.8366,5.8183,5.8418,5.8523,5.8549,5.8784,5.8862,5.8967,5.9542,5.9908,6.0117,6.0195,6.0039,5.9777,5.9437,5.9359,5.9281,5.8941,5.9307,5.9777,6.0039,6.064,6.111,6.111,6.1319,6.1581,6.1921,6.1973,6.1973,6.1973,6.1973,6.1973,6.1973,6.1973,6.1973,6.1973,6.1973,6.2077,6.2313,6.2626,6.294,6.3175,6.3489,6.3776,6.4012,6.3803,6.3907,6.4378,6.4168,6.4038,6.4038,6.3463,6.2992,6.2679,6.3018,6.3175,0.0,0.0,0.0,0.0,0.0,0.0,0.0,0.0,0.0,0.0,0.0,0.0,0.0,0.0,0.0,0.0,0.0,0.0,0.0,0.0,0.0,0.0,0.0,0.0,0.0,5.248,5.3273,5.3478,5.3793,5.3861,5.3546,5.3546,5.3478,5.3478,5.3136,5.3293,5.4144,5.3822,5.421,5.5189,5.4834,5.5097,5.5812,5.5778,5.618,5.6996,5.7416,5.7556,5.7556,5.7556,5.7869,5.8314,5.8314,5.8052,5.7782,5.8235,5.8183,5.7992,5.8418,5.8653,5.8784,5.9307,5.9464,5.9568,6.0143,6.064,6.0901,6.03,5.9751,5.9359,5.9359,5.9359,5.9457,5.9437,5.9908,6.0457,6.1006,6.1163,6.1215,6.1215,6.1633,6.1973,6.1973,6.1973,6.1973,6.1973,6.1973,6.1973,6.1973,6.2025,6.2077,6.2077,6.213,6.2365,6.2888,6.2966,6.3227,6.375,6.3829,6.409,6.4613,6.4142,6.4351,6.5371,6.4874,6.4639,6.4639,6.3985,6.3672,6.3672,6.375,6.3776,0.0,0.0,0.0,0.0,0.0,0.0,0.0,0.0,0.0,0.0,0.0,0.0,0.0,0.0,0.0,0.0,0.0,0.0,0.0,0.0,0.0,0.0,0.0,0.0,0.0,5.1245,5.1792,5.341,5.3793,5.3997,5.3929,5.3682,5.3478,5.3478,5.3136,5.298,5.3149,5.3482,5.3808,5.4034,5.4693,5.5107,5.5254,5.5853,5.6044,5.6007,5.6704,5.6773,5.6539,5.6842,5.7033,5.7137,5.7137,5.7346,5.7756,5.7791,5.834,5.9045,5.915,5.9516,5.9908,6.0013,6.0039,6.0169,6.0771,6.0692,6.0274,5.9699,5.9437,5.9359,5.9359,5.9359,5.949,5.9934,6.0509,6.098,6.1084,6.1476,6.179,6.179,6.1894,6.1973,6.1973,6.1973,6.1973,6.1973,6.1973,6.1973,6.1973,6.2365,6.2652,6.2652,6.3071,6.3384,6.3489,6.3933,6.4247,6.4351,6.4796,6.5109,6.5214,6.5109,6.5162,6.5371,6.5266,6.5214,6.5214,6.4168,6.3672,6.3698,6.4142,6.4351,0.0,0.0,0.0,3.5769,0.0,0.0,0.0,0.0,0.0,0.0,0.0,0.0,0.0,0.0,0.0,0.0,0.0,0.0,0.0,0.0,0.0,0.0,0.0,0.0,0.0,5.0234,5.1681,5.3721,5.363,5.3579,5.3833,5.3399,5.3204,5.3204,5.2998,5.3055,5.3306,5.3582,5.3903,5.4416,5.4416,5.4556,5.4949,5.5039,5.5272,5.5555,5.5968,5.608,5.6106,5.6418,5.6503,5.6458,5.732,5.766,5.7835,5.8627,5.9124,5.9411,5.9699,5.9986,6.0274,6.0561,6.0666,6.0718,6.1032,6.0509,5.9725,5.9437,5.9359,5.9359,5.9359,5.9803,6.0326,6.0588,6.111,6.1555,6.1555,6.1764,6.1973,6.1973,6.1973,6.1973,6.1973,6.1973,6.2077,6.2365,6.2391,6.2496,6.2783,6.3071,6.3254,6.3254,6.3515,6.3803,6.409,6.4378,6.4665,6.4926,6.5214,6.5371,6.5371,6.5371,6.5371,6.5371,6.5371,6.5371,6.5371,6.4822,6.4534,6.4534,6.4822,6.4953,0.0,0.0,0.0,0.0,0.0,3.5625,0.0,0.0,0.0,0.0,0.0,0.0,0.0,0.0,0.0,0.0,0.0,0.0,0.0,0.0,0.0,0.0,0.0,0.0,0.0,4.9204,5.1568,5.3961,5.3067,5.2784,5.3683,5.3206,5.2929,5.2929,5.303,5.3281,5.3708,5.3878,5.432,5.4986,5.4264,5.4195,5.4679,5.4321,5.4499,5.5235,5.5407,5.5637,5.5961,5.6245,5.6262,5.6223,5.7634,5.7974,5.7913,5.9333,5.9751,5.962,6.0195,6.0384,6.0493,6.1136,6.1215,6.111,6.098,6.0195,5.9333,5.9228,5.9281,5.9385,5.949,6.0326,6.1136,6.1267,6.1633,6.1973,6.1973,6.1973,6.1973,6.1973,6.1973,6.1973,6.1973,6.1973,6.2156,6.2731,6.2835,6.3045,6.3593,6.3776,6.3829,6.3829,6.3933,6.4195,6.4665,6.4691,6.49,6.5345,6.5371,6.5371,6.5371,6.5371,6.5371,6.5371,6.5371,6.5371,6.5371,6.5371,6.5371,6.5371,6.5371,6.5371,0.0,0.0,0.0,0.0,3.5769,0.0,0.0,0.0,0.0,0.0,0.0,0.0,0.0,0.0,0.0,0.0,0.0,0.0,0.0,0.0,0.0,0.0,0.0,0.0,0.0,0.0,5.0056,5.3518,5.1947,5.1663,5.3588,5.3206,5.2929,5.2929,5.3381,5.3632,5.3708,5.4491,5.4865,5.4632,5.4683,5.4567,5.4359,5.4431,5.4469,5.464,5.5471,5.5841,5.5961,5.6494,5.6703,5.6719,5.6928,5.7268,5.7808,5.8444,5.9307,6.0195,6.0797,6.1122,6.1313,6.1767,6.1529,6.1032,6.0483,5.9882,5.9255,5.8758,5.8967,5.949,5.9986,6.0614,6.1241,6.1764,6.1921,6.1973,6.1973,6.1973,6.1973,6.1973,6.1973,6.1973,6.1973,6.1973,6.2156,6.2731,6.2835,6.3045,6.3593,6.4116,6.443,6.443,6.49,6.5214,6.5266,6.5292,6.5318,6.5371,6.5371,6.5371,6.5371,6.5371,6.5371,6.5371,6.5371,6.5371,6.5371,6.5371,6.5371,6.5371,6.5371,6.5371,0.0,0.0,0.0,0.0,0.0,0.0,3.5894,0.0,3.579,0.0,0.0,0.0,0.0,0.0,0.0,0.0,0.0,0.0,0.0,0.0,0.0,0.0,0.0,0.0,0.0,0.0,0.0,0.0,0.0,5.1522,5.3588,5.3507,5.3381,5.3381,5.3582,5.4009,5.4662,5.4754,5.4845,5.4845,5.3512,5.2783,5.2789,5.3187,5.3514,5.3771,5.5418,5.6226,5.6484,5.6851,5.6946,5.7042,5.759,5.7948,5.8314,5.9253,6.0107,6.0749,6.1174,6.1464,6.1695,6.1506,6.1319,6.0953,6.0013,5.9542,5.9307,5.9072,5.9411,5.9986,6.0588,6.1189,6.1685,6.1921,6.1973,6.1973,6.1973,6.1973,6.1973,6.1973,6.1973,6.1973,6.1973,6.2234,6.2652,6.3227,6.3593,6.4012,6.4587,6.4874,6.5031,6.5031,6.524,6.5371,6.5371,6.5371,6.5371,6.5371,6.5371,6.5371,6.5371,6.5371,6.5371,6.5371,6.5371,6.5371,6.5371,6.5371,6.5371,6.5371,6.5371,6.5371,3.915,0.0,0.0,0.0,0.0,0.0,0.0,0.0,0.0,0.0,0.0,0.0,0.0,0.0,0.0,0.0,0.0,0.0,0.0,0.0,0.0,0.0,0.0,0.0,0.0,0.0,0.0,0.0,0.0,0.0,5.2957,5.3052,5.3263,5.3708,5.3858,5.4336,5.5164,5.4905,5.4557,5.4073,5.2801,5.203,5.1828,5.2791,5.3462,5.4074,5.5802,5.6712,5.7016,5.6765,5.6997,5.7499,5.7532,5.7901,5.8634,5.9908,6.0549,6.0697,6.136,6.1643,6.1659,6.0944,6.0605,6.0362,5.9513,5.9273,5.9241,5.9398,5.9867,6.0415,6.0932,6.148,6.1898,6.1973,6.1973,6.1973,6.1973,6.1973,6.1973,6.1973,6.1973,6.1973,6.1973,6.2443,6.3018,6.3593,6.4168,6.4743,6.5318,6.5371,6.5371,6.5371,6.5371,6.5371,6.5371,6.5371,6.5371,6.5371,6.5371,6.5371,6.5371,6.5371,6.5371,6.5371,6.5371,6.5371,6.5371,6.5371,6.5371,6.5371,6.5371,6.5371,0.0,0.0,0.0,3.8274,0.0,0.0,0.0,0.0,3.6763,0.0,0.0,0.0,0.0,0.0,0.0,0.0,0.0,0.0,0.0,0.0,0.0,0.0,0.0,0.0,0.0,0.0,0.0,0.0,0.0,0.0,5.1273,5.1441,5.2108,5.3638,5.4235,5.4561,5.4658,5.4941,5.3907,5.1537,5.3358,5.3428,5.2036,5.4119,5.5382,5.6176,5.6814,5.7258,5.752,5.6132,5.6674,5.8186,5.5947,5.641,5.8653,5.983,5.9908,5.9673,6.1372,6.1607,6.0988,6.0217,5.9444,5.8911,5.9087,5.9002,5.8958,5.9429,6.0024,6.0564,6.0962,6.123,6.1495,6.1898,6.1973,6.1973,6.1973,6.1973,6.1973,6.1973,6.1973,6.1973,6.1973,6.2443,6.3018,6.3593,6.4168,6.4743,6.5318,6.5371,6.5371,6.5371,6.5371,6.5371,6.5371,6.5371,6.5371,6.5371,6.5371,6.5371,6.5371,6.5371,6.5371,6.5371,6.5371,6.5371,6.5371,6.5371,6.5371,6.5371,6.5371,6.5371,0.0,0.0,4.0771,3.9015,0.0,0.0,0.0,0.0,0.0,0.0,0.0,0.0,0.0,0.0,0.0,0.0,0.0,0.0,0.0,0.0,0.0,0.0,0.0,0.0,0.0,0.0,0.0,0.0,0.0,0.0,0.0,5.1369,5.2425,5.4716,5.3313,5.2861,5.3595,5.33,5.2862,5.2308,5.2692,5.2907,5.2931,5.3759,5.4511,5.5349,5.6673,5.75,5.7811,5.7297,5.7328,5.7739,5.7112,5.6555,5.634,5.8174,5.8386,5.7948,5.8908,5.9692,6.0214,5.9827,5.9772,5.9869,5.954,5.9839,6.0267,6.0227,6.036,6.0593,6.1207,6.1365,6.1495,6.1898,6.1973,6.1973,6.1973,6.1973,6.1973,6.1973,6.1973,6.2077,6.2469,6.3018,6.3463,6.3646,6.4482,6.5162,6.5345,6.5371,6.5371,6.5371,6.5371,6.5371,6.5371,6.5371,6.5371,6.5371,6.5371,6.5371,6.5371,6.5371,6.5371,6.5371,6.5371,6.5371,6.5371,6.5371,6.5371,6.5371,6.5371,6.5371,4.3624,4.2764,0.0,4.0482,3.9777,0.0,3.8999,0.0,0.0,0.0,0.0,0.0,0.0,0.0,0.0,0.0,0.0,0.0,0.0,0.0,0.0,0.0,0.0,0.0,0.0,0.0,0.0,0.0,0.0,0.0,0.0,0.0,5.2283,5.4223,5.2403,5.185,5.2741,5.2404,5.2357,5.2574,5.3083,5.3326,5.335,5.4326,5.5011,5.5569,5.684,5.7523,5.7641,5.6337,5.6045,5.6387,5.5262,5.4893,5.5115,5.6721,5.7399,5.7497,5.8227,5.921,6.0065,5.9827,5.9753,5.9707,5.9527,5.9982,6.0441,6.0116,6.0345,6.0627,6.1007,6.1264,6.1495,6.1898,6.1973,6.1973,6.1973,6.213,6.2208,6.2025,6.213,6.2391,6.2757,6.3306,6.375,6.3959,6.477,6.5371,6.5371,6.5371,6.5371,6.5371,6.5371,6.5371,6.5371,6.5371,6.5371,6.5371,6.5371,6.5371,6.5371,6.5371,6.5292,6.5083,6.5266,6.5266,6.5083,6.5292,6.5371,6.5371,6.5371,6.5371]}]]